[[{"header":{"parameterUnit":"m.s-1","parameterCategory":1,"la1":30.6,"la2":28.766,"lo1":-90.7593,"lo2":-88.6598,"dy":0.0162,"dx":0.0183,"nx":116,"ny":114,"refTime":"2023-11-17T06:00:00:Z","depth":0,"parameterNumber":2,"parameterNumberName":"U-component_of_WINDS"},"data":[0.0,0.0,0.0,0.0,0.0,0.0,0.0,0.0,0.0,0.0,0.0,0.0,0.0,0.0,0.0,0.0,0.0,0.0,0.0,0.0,0.0,0.0,0.0,0.0,0.0,0.0,0.0,0.0,0.0,0.0,0.0,0.0,0.0,0.0,0.0,0.0,0.0,0.0,0.0,0.0,0.0,0.0,0.0,0.0,0.0,0.0,0.0,0.0,0.0,0.0,0.0,0.0,0.0,0.0,0.0,0.0,0.0,0.0,0.0,0.0,0.0,0.0,0.0,0.0,0.0,0.0,0.0,0.0,0.0,0.0,0.0,0.0,0.0,0.0,0.0,0.0,0.0,0.0,0.0,0.0,0.0,0.0,0.0,0.0,0.0,0.0,0.0,0.0,0.0,0.0,0.0,0.0,0.0,0.0,0.0,0.0,0.0,0.0,0.0,0.0,0.0,0.0,0.0,0.0,0.0,0.0,0.0,0.0,0.0,0.0,0.0,0.0,0.0,0.0,0.0,0.0,0.0,0.0,0.0,0.0,0.0,0.0,0.0,0.0,0.0,0.0,0.0,0.0,0.0,0.0,0.0,0.0,0.0,0.0,0.0,0.0,0.0,0.0,0.0,0.0,0.0,0.0,0.0,0.0,0.0,0.0,0.0,0.0,0.0,0.0,0.0,0.0,0.0,0.0,0.0,0.0,0.0,0.0,0.0,0.0,0.0,0.0,0.0,0.0,0.0,0.0,0.0,0.0,0.0,0.0,0.0,0.0,0.0,0.0,0.0,0.0,0.0,0.0,0.0,0.0,0.0,0.0,0.0,0.0,0.0,0.0,0.0,0.0,0.0,0.0,0.0,0.0,0.0,0.0,0.0,0.0,0.0,0.0,0.0,0.0,0.0,0.0,0.0,0.0,0.0,0.0,0.0,0.0,0.0,0.0,0.0,0.0,0.0,0.0,0.0,0.0,0.0,0.0,0.0,0.0,0.0,0.0,0.0,0.0,0.0,0.0,0.0,0.0,0.0,0.0,0.0,0.0,0.0,0.0,0.0,0.0,0.0,0.0,0.0,0.0,0.0,0.0,0.0,0.0,0.0,0.0,0.0,0.0,0.0,0.0,0.0,0.0,0.0,0.0,0.0,0.0,0.0,0.0,0.0,0.0,0.0,0.0,0.0,0.0,0.0,0.0,0.0,0.0,0.0,0.0,0.0,0.0,0.0,0.0,0.0,0.0,0.0,0.0,0.0,0.0,0.0,0.0,0.0,0.0,0.0,0.0,0.0,0.0,0.0,0.0,0.0,0.0,0.0,0.0,0.0,0.0,0.0,0.0,0.0,0.0,0.0,0.0,0.0,0.0,0.0,0.0,0.0,0.0,0.0,0.0,0.0,0.0,0.0,0.0,0.0,0.0,0.0,0.0,0.0,0.0,0.0,0.0,0.0,0.0,0.0,0.0,0.0,0.0,0.0,0.0,0.0,0.0,0.0,0.0,0.0,0.0,0.0,0.0,0.0,0.0,0.0,0.0,0.0,0.0,0.0,0.0,0.0,0.0,0.0,0.0,0.0,0.0,0.0,0.0,0.0,0.0,0.0,0.0,0.0,0.0,0.0,0.0,0.0,0.0,0.0,0.0,0.0,0.0,0.0,0.0,0.0,0.0,0.0,0.0,0.0,0.0,0.0,0.0,0.0,0.0,0.0,0.0,0.0,0.0,0.0,0.0,0.0,0.0,0.0,0.0,0.0,0.0,0.0,0.0,0.0,0.0,0.0,0.0,0.0,0.0,0.0,0.0,0.0,0.0,0.0,0.0,0.0,0.0,0.0,0.0,0.0,0.0,0.0,0.0,0.0,0.0,0.0,0.0,0.0,0.0,0.0,0.0,0.0,0.0,0.0,0.0,0.0,0.0,0.0,0.0,0.0,0.0,0.0,0.0,0.0,0.0,0.0,0.0,0.0,0.0,0.0,0.0,0.0,0.0,0.0,0.0,0.0,0.0,0.0,0.0,0.0,0.0,0.0,0.0,0.0,0.0,0.0,0.0,0.0,0.0,0.0,0.0,0.0,0.0,0.0,0.0,0.0,0.0,0.0,0.0,0.0,0.0,0.0,0.0,0.0,0.0,0.0,0.0,0.0,0.0,0.0,0.0,0.0,0.0,0.0,0.0,0.0,0.0,0.0,0.0,0.0,0.0,0.0,0.0,0.0,0.0,0.0,0.0,0.0,0.0,0.0,0.0,0.0,0.0,0.0,0.0,0.0,0.0,0.0,0.0,0.0,0.0,0.0,0.0,0.0,0.0,0.0,0.0,0.0,0.0,0.0,0.0,0.0,0.0,0.0,0.0,0.0,0.0,0.0,0.0,0.0,0.0,0.0,0.0,0.0,0.0,0.0,0.0,0.0,0.0,0.0,0.0,0.0,0.0,0.0,0.0,0.0,0.0,0.0,0.0,0.0,0.0,0.0,0.0,0.0,0.0,0.0,0.0,0.0,0.0,0.0,0.0,0.0,0.0,0.0,0.0,0.0,0.0,0.0,0.0,0.0,0.0,0.0,0.0,0.0,0.0,0.0,0.0,0.0,0.0,0.0,0.0,0.0,0.0,0.0,0.0,0.0,0.0,0.0,0.0,0.0,0.0,0.0,0.0,0.0,0.0,0.0,0.0,0.0,0.0,0.0,0.0,0.0,0.0,0.0,0.0,0.0,0.0,0.0,0.0,0.0,0.0,0.0,0.0,0.0,0.0,0.0,0.0,0.0,0.0,0.0,0.0,0.0,0.0,0.0,0.0,0.0,0.0,0.0,0.0,0.0,0.0,0.0,0.0,0.0,0.0,0.0,0.0,0.0,0.0,0.0,0.0,0.0,0.0,0.0,0.0,0.0,0.0,0.0,0.0,0.0,0.0,0.0,0.0,0.0,0.0,0.0,0.0,0.0,0.0,0.0,0.0,0.0,0.0,0.0,0.0,0.0,0.0,0.0,0.0,0.0,0.0,0.0,0.0,0.0,0.0,0.0,0.0,0.0,0.0,0.0,0.0,0.0,0.0,0.0,0.0,0.0,0.0,0.0,0.0,0.0,0.0,0.0,0.0,0.0,0.0,0.0,0.0,0.0,0.0,0.0,0.0,0.0,0.0,0.0,0.0,0.0,0.0,0.0,0.0,0.0,0.0,0.0,0.0,0.0,0.0,0.0,0.0,0.0,0.0,0.0,0.0,0.0,0.0,0.0,0.0,0.0,0.0,0.0,0.0,0.0,0.0,0.0,0.0,0.0,0.0,0.0,0.0,0.0,0.0,0.0,0.0,0.0,0.0,0.0,0.0,0.0,0.0,0.0,0.0,0.0,0.0,0.0,0.0,0.0,0.0,0.0,0.0,0.0,0.0,0.0,0.0,0.0,0.0,0.0,0.0,0.0,0.0,0.0,0.0,0.0,0.0,0.0,0.0,0.0,0.0,0.0,0.0,0.0,0.0,0.0,0.0,0.0,0.0,0.0,0.0,0.0,0.0,0.0,0.0,0.0,0.0,0.0,0.0,0.0,0.0,0.0,0.0,0.0,0.0,0.0,0.0,0.0,0.0,0.0,0.0,0.0,0.0,0.0,0.0,0.0,0.0,0.0,0.0,0.0,0.0,0.0,0.0,0.0,0.0,0.0,0.0,0.0,0.0,0.0,0.0,0.0,0.0,0.0,0.0,0.0,0.0,0.0,0.0,0.0,0.0,0.0,0.0,0.0,0.0,0.0,0.0,0.0,0.0,0.0,0.0,0.0,0.0,0.0,0.0,0.0,0.0,0.0,0.0,0.0,0.0,0.0,0.0,0.0,0.0,0.0,0.0,0.0,0.0,0.0,0.0,0.0,0.0,0.0,0.0,0.0,0.0,0.0,0.0,0.0,0.0,0.0,0.0,0.0,0.0,0.0,0.0,0.0,0.0,0.0,0.0,0.0,0.0,0.0,0.0,0.0,0.0,0.0,0.0,0.0,0.0,0.0,0.0,0.0,0.0,0.0,0.0,0.0,0.0,0.0,0.0,0.0,0.0,0.0,0.0,0.0,0.0,0.0,0.0,0.0,0.0,0.0,0.0,0.0,0.0,0.0,0.0,0.0,0.0,0.0,0.0,0.0,0.0,0.0,0.0,0.0,0.0,0.0,0.0,0.0,0.0,0.0,0.0,0.0,0.0,0.0,0.0,0.0,0.0,0.0,0.0,0.0,0.0,0.0,0.0,0.0,0.0,0.0,0.0,0.0,0.0,0.0,0.0,0.0,0.0,0.0,0.0,0.0,0.0,0.0,0.0,0.0,0.0,0.0,0.0,0.0,0.0,0.0,0.0,0.0,0.0,0.0,0.0,0.0,0.0,0.0,0.0,0.0,0.0,0.0,0.0,0.0,0.0,0.0,0.0,0.0,0.0,0.0,0.0,0.0,0.0,0.0,0.0,0.0,0.0,0.0,0.0,0.0,0.0,0.0,0.0,0.0,0.0,0.0,0.0,0.0,0.0,0.0,0.0,0.0,0.0,0.0,0.0,0.0,0.0,0.0,0.0,0.0,0.0,0.0,0.0,0.0,0.0,0.0,0.0,0.0,0.0,0.0,0.0,0.0,0.0,0.0,0.0,0.0,0.0,0.0,0.0,0.0,0.0,0.0,0.0,0.0,0.0,0.0,0.0,0.0,0.0,0.0,0.0,0.0,0.0,0.0,0.0,0.0,0.0,0.0,0.0,0.0,0.0,0.0,0.0,0.0,0.0,0.0,0.0,0.0,0.0,0.0,0.0,0.0,0.0,0.0,0.0,0.0,0.0,0.0,0.0,0.0,0.0,0.0,0.0,0.0,0.0,0.0,0.0,0.0,0.0,0.0,0.0,0.0,0.0,0.0,0.0,0.0,0.0,0.0,0.0,0.0,0.0,0.0,0.0,0.0,0.0,0.0,0.0,0.0,0.0,0.0,0.0,0.0,0.0,0.0,0.0,0.0,0.0,0.0,0.0,0.0,0.0,0.0,0.0,0.0,0.0,0.0,0.0,0.0,0.0,0.0,0.0,0.0,0.0,0.0,0.0,0.0,0.0,0.0,0.0,0.0,0.0,0.0,0.0,0.0,0.0,0.0,0.0,0.0,0.0,0.0,0.0,0.0,0.0,0.0,0.0,0.0,0.0,0.0,0.0,0.0,0.0,0.0,0.0,0.0,0.0,0.0,0.0,0.0,0.0,0.0,0.0,0.0,0.0,0.0,0.0,0.0,0.0,0.0,0.0,0.0,0.0,0.0,0.0,0.0,0.0,0.0,0.0,0.0,0.0,0.0,0.0,0.0,0.0,0.0,0.0,0.0,0.0,0.0,0.0,0.0,0.0,0.0,0.0,0.0,0.0,0.0,0.0,0.0,0.0,0.0,0.0,0.0,0.0,0.0,0.0,0.0,0.0,0.0,0.0,0.0,0.0,0.0,0.0,0.0,0.0,0.0,0.0,0.0,0.0,0.0,0.0,0.0,0.0,0.0,0.0,0.0,0.0,0.0,0.0,0.0,0.0,0.0,0.0,0.0,0.0,0.0,0.0,0.0,0.0,0.0,0.0,0.0,0.0,0.0,0.0,0.0,0.0,0.0,0.0,0.0,0.0,0.0,0.0,0.0,0.0,0.0,0.0,0.0,0.0,0.0,0.0,0.0,0.0,0.0,0.0,0.0,0.0,0.0,0.0,0.0,0.0,0.0,0.0,0.0,0.0,0.0,0.0,0.0,0.0,0.0,0.0,0.0,0.0,0.0,0.0,0.0,0.0,0.0,0.0,0.0,0.0,0.0,0.0,0.0,0.0,0.0,0.0,0.0,0.0,0.0,0.0,0.0,0.0,0.0,0.0,0.0,0.0,0.0,0.0,0.0,0.0,0.0,0.0,0.0,0.0,0.0,0.0,0.0,0.0,0.0,0.0,0.0,0.0,0.0,0.0,0.0,0.0,0.0,0.0,0.0,0.0,0.0,0.0,0.0,0.0,0.0,0.0,0.0,0.0,0.0,0.0,0.0,0.0,0.0,0.0,0.0,0.0,0.0,0.0,0.0,0.0,0.0,0.0,0.0,0.0,0.0,0.0,0.0,0.0,0.0,0.0,0.0,0.0,0.0,0.0,0.0,0.0,-7.7101,-7.7101,0.0,0.0,0.0,0.0,0.0,0.0,0.0,0.0,0.0,0.0,0.0,0.0,0.0,0.0,0.0,0.0,0.0,0.0,0.0,0.0,0.0,0.0,0.0,0.0,0.0,0.0,0.0,0.0,0.0,0.0,0.0,0.0,0.0,0.0,0.0,0.0,0.0,0.0,-6.9721,-6.9592,-6.9707,-6.9855,-6.9946,-6.9961,0.0,0.0,0.0,0.0,0.0,0.0,0.0,0.0,0.0,0.0,0.0,0.0,0.0,0.0,0.0,0.0,0.0,0.0,0.0,0.0,0.0,0.0,0.0,0.0,0.0,0.0,0.0,0.0,0.0,0.0,0.0,0.0,0.0,0.0,0.0,0.0,0.0,0.0,0.0,0.0,0.0,0.0,0.0,0.0,0.0,0.0,0.0,0.0,0.0,0.0,0.0,0.0,0.0,0.0,0.0,0.0,0.0,0.0,0.0,0.0,0.0,0.0,0.0,0.0,0.0,0.0,0.0,0.0,0.0,0.0,-7.7101,-7.7101,0.0,0.0,0.0,0.0,0.0,0.0,0.0,0.0,0.0,0.0,0.0,0.0,0.0,0.0,0.0,0.0,0.0,0.0,0.0,0.0,0.0,0.0,0.0,-7.0515,-7.0567,-7.0855,-7.0866,-7.0866,0.0,0.0,0.0,0.0,0.0,0.0,0.0,-6.9125,-6.8798,-6.881,-6.8703,-6.8695,-6.8733,-6.816,-6.8279,-6.8942,-6.8942,0.0,0.0,0.0,0.0,0.0,0.0,0.0,0.0,0.0,0.0,0.0,0.0,0.0,0.0,0.0,0.0,0.0,0.0,0.0,0.0,0.0,0.0,0.0,0.0,0.0,0.0,0.0,0.0,0.0,0.0,0.0,0.0,0.0,0.0,0.0,0.0,0.0,0.0,0.0,0.0,0.0,0.0,0.0,0.0,0.0,0.0,0.0,0.0,0.0,0.0,0.0,0.0,0.0,0.0,0.0,0.0,0.0,0.0,0.0,0.0,0.0,0.0,0.0,-7.7101,-7.7101,-7.7101,-7.7101,-7.7101,-7.7101,-7.7101,-7.7101,-7.7101,-7.7101,0.0,0.0,0.0,0.0,0.0,0.0,0.0,0.0,0.0,0.0,0.0,0.0,0.0,0.0,0.0,0.0,0.0,0.0,0.0,0.0,0.0,-6.9292,-6.9082,-6.9115,-6.9125,-6.9125,-6.9125,0.0,0.0,0.0,0.0,0.0,-6.897,-6.8854,-6.8798,-6.881,-6.8286,-6.7688,-6.7029,-6.6987,-6.7029,-6.7146,-6.7146,-6.7068,-6.6951,0.0,0.0,0.0,0.0,0.0,0.0,0.0,0.0,0.0,0.0,0.0,0.0,0.0,0.0,0.0,0.0,0.0,0.0,0.0,0.0,0.0,0.0,0.0,0.0,0.0,0.0,0.0,0.0,0.0,0.0,0.0,0.0,0.0,0.0,0.0,0.0,0.0,0.0,0.0,0.0,0.0,-6.7107,-6.8005,0.0,0.0,0.0,0.0,0.0,0.0,0.0,0.0,0.0,0.0,0.0,0.0,0.0,-7.4095,-7.5777,-7.5816,-7.6242,-7.7101,-7.7101,-7.7101,-7.7101,-7.7101,-7.7101,-7.7101,-7.7101,0.0,-7.7101,-7.7101,0.0,0.0,0.0,0.0,0.0,0.0,0.0,0.0,0.0,0.0,0.0,0.0,0.0,0.0,0.0,0.0,0.0,0.0,0.0,0.0,0.0,-6.8906,-6.8816,-6.8816,-6.8816,-6.8816,-6.8816,-6.8816,0.0,0.0,0.0,-6.8081,-6.8081,-6.7647,-6.7426,-6.7462,-6.7311,-6.706,-6.668,-6.6752,-6.6795,-6.6795,-6.6795,-6.6795,-6.6795,-6.6795,0.0,0.0,0.0,0.0,0.0,0.0,0.0,0.0,0.0,0.0,0.0,0.0,0.0,0.0,0.0,0.0,0.0,0.0,0.0,0.0,0.0,0.0,0.0,0.0,0.0,0.0,0.0,0.0,0.0,0.0,0.0,0.0,0.0,0.0,0.0,0.0,0.0,0.0,0.0,-6.6795,-6.7303,-6.8669,-6.9176,-6.9918,0.0,0.0,0.0,0.0,0.0,0.0,0.0,0.0,0.0,-7.2573,-7.2573,-7.3354,-7.5032,-7.5071,-7.5735,-7.7101,-7.7101,-7.7101,-7.7101,-7.7101,-7.7101,-7.7101,-7.7101,-7.7101,-7.7101,-7.7101,-7.7101,-7.7101,0.0,0.0,0.0,0.0,-7.7101,-7.7101,0.0,0.0,0.0,0.0,0.0,0.0,0.0,0.0,0.0,0.0,0.0,0.0,-6.8386,-6.8274,-6.8119,-6.8119,-6.8119,-6.8119,-6.8119,-6.8119,-6.8119,-6.8119,-6.7501,-6.7152,-6.7152,-6.6603,-6.6367,-6.6406,-6.6594,-6.6717,-6.668,-6.6752,-6.6795,-6.6795,-6.6795,-6.6795,-6.6795,-6.6795,-6.6795,-6.6795,0.0,0.0,0.0,0.0,0.0,0.0,0.0,0.0,0.0,0.0,0.0,0.0,0.0,0.0,0.0,0.0,0.0,0.0,0.0,0.0,0.0,0.0,0.0,0.0,0.0,0.0,0.0,0.0,0.0,0.0,0.0,0.0,0.0,0.0,0.0,0.0,0.0,-6.6795,-6.7459,-6.9176,-6.9411,-7.0074,0.0,0.0,0.0,0.0,0.0,0.0,-7.1987,-7.1987,-7.1987,-7.1987,-7.1987,-7.2807,-7.4486,-7.4486,-7.5384,-7.7101,-7.7101,-7.7101,-7.7101,-7.7101,-7.7101,-7.7101,-7.7101,-7.7101,-7.7101,-7.7101,-7.7101,-7.7101,-7.7101,-7.7101,-7.7101,-7.7101,-7.7101,-7.7101,0.0,0.0,0.0,0.0,0.0,0.0,0.0,0.0,0.0,0.0,0.0,-6.7178,-6.7508,-6.6843,-6.634,-6.634,-6.634,-6.634,-6.634,-6.634,-6.634,-6.634,-6.6301,-6.6263,-6.6263,-6.637,-6.6403,-6.6406,-6.6594,-6.6717,-6.668,-6.6752,-6.6795,-6.6795,-6.6795,-6.6795,-6.6795,-6.6795,-6.6795,-6.6795,-6.6795,0.0,0.0,0.0,0.0,0.0,0.0,0.0,0.0,0.0,0.0,0.0,0.0,0.0,0.0,0.0,0.0,0.0,0.0,0.0,0.0,0.0,0.0,0.0,0.0,0.0,0.0,0.0,0.0,0.0,0.0,0.0,0.0,0.0,0.0,0.0,0.0,0.0,0.0,-6.9176,-6.9411,0.0,0.0,0.0,0.0,-7.1987,-7.1987,-7.1987,-7.1987,-7.1987,-7.1987,-7.1987,-7.1987,-7.2807,-7.4486,-7.4486,-7.5384,-7.7101,-7.7101,-7.7101,-7.7101,-7.7101,-7.7101,-7.7101,-7.7101,-7.7101,-7.7101,-7.7101,-7.7101,-7.7101,-7.7101,-7.7101,-7.7101,-7.7101,-7.7101,-7.7101,0.0,0.0,0.0,0.0,0.0,0.0,0.0,0.0,-6.7279,-6.7016,-6.6345,-6.6114,-6.6608,-6.6379,-6.6185,-6.6185,-6.6185,-6.6185,-6.6185,-6.6185,-6.6185,-6.6185,-6.6185,-6.6254,-6.6331,-6.6394,-6.6406,-6.6446,-6.6603,-6.6405,-6.5858,-6.5971,-6.5741,-6.5197,-6.5197,-6.5197,-6.5236,-6.578,-6.5702,-6.5197,-6.5197,-6.5197,0.0,0.0,0.0,0.0,0.0,0.0,0.0,0.0,0.0,0.0,0.0,0.0,0.0,0.0,0.0,0.0,0.0,0.0,0.0,0.0,0.0,0.0,0.0,0.0,0.0,0.0,0.0,0.0,0.0,0.0,0.0,0.0,0.0,0.0,0.0,0.0,0.0,-6.9176,-6.9411,0.0,-7.1831,-7.1987,-7.1987,-7.1987,-7.1987,-7.1987,-7.1987,-7.1987,-7.1987,-7.1987,-7.1987,-7.2807,-7.4486,-7.4486,-7.5384,-7.7101,-7.7101,-7.7101,-7.7101,-7.7101,-7.7101,-7.7101,-7.7101,-7.7101,-7.7101,-7.7101,-7.7101,-7.7101,-7.7101,-7.7101,-7.7101,-7.7101,-7.7101,-7.7101,0.0,0.0,0.0,0.0,0.0,0.0,0.0,0.0,-6.6614,-6.616,-6.5643,-6.5531,-6.6134,-6.6185,-6.6185,-6.6185,-6.6185,-6.6185,-6.6185,-6.6185,-6.6069,-6.5799,-6.5819,-6.5983,-6.6385,-6.6109,-6.6034,-6.6081,-6.5874,-6.5526,-6.496,-6.5077,-6.4819,-6.4299,-6.4299,-6.4143,-6.3906,-6.4492,-6.457,-6.4299,-6.4299,-6.4299,-6.4299,0.0,0.0,0.0,0.0,0.0,0.0,0.0,0.0,0.0,0.0,0.0,0.0,0.0,0.0,0.0,0.0,0.0,0.0,0.0,0.0,0.0,0.0,0.0,0.0,0.0,0.0,0.0,0.0,0.0,0.0,0.0,0.0,0.0,0.0,-6.6795,-6.7342,-6.8786,-6.9215,-6.9957,-7.1402,-7.1831,-7.1987,-7.1987,-7.1987,-7.1987,-7.1987,-7.1987,-7.1987,-7.1987,-7.1987,-7.2651,-7.4095,-7.4369,-7.5227,-7.6672,-7.6945,-7.7101,-7.7101,-7.7101,-7.7101,-7.7101,-7.7101,-7.7101,-7.7101,-7.7101,-7.7101,-7.7101,-7.7101,-7.7101,-7.7101,-7.7101,-7.7101,-7.7101,0.0,0.0,0.0,0.0,0.0,0.0,0.0,-6.6821,-6.6426,-6.5436,-6.5299,-6.5531,-6.6134,-6.6185,-6.6185,-6.6185,-6.6185,-6.6185,-6.6147,-6.6147,-6.5799,-6.4996,-6.5006,-6.541,-6.6308,-6.5575,-6.5149,-6.5141,-6.4399,-6.4037,-6.4062,-6.4137,-6.4174,-6.4223,-6.4221,-6.375,-6.2969,-6.2969,-6.3438,-6.4221,-6.4221,-6.4221,-6.4221,0.0,0.0,0.0,0.0,0.0,0.0,0.0,0.0,0.0,0.0,0.0,0.0,0.0,0.0,0.0,0.0,0.0,0.0,0.0,0.0,0.0,0.0,0.0,0.0,0.0,0.0,0.0,0.0,0.0,0.0,0.0,0.0,0.0,-6.6795,-6.6795,-6.7107,-6.8005,-6.8864,-6.9723,-7.0621,-7.148,-7.1987,-7.1987,-7.1987,-7.1987,-7.1987,-7.1987,-7.1987,-7.1987,-7.1987,-7.2417,-7.3275,-7.4095,-7.4954,-7.5816,-7.6672,-7.7101,-7.7101,-7.7101,-7.7101,-7.7101,-7.7101,-7.7101,-7.7101,-7.7101,-7.7101,-7.7101,-7.7101,-7.7101,-7.7101,-7.7101,-7.7101,-7.7101,0.0,0.0,0.0,0.0,0.0,0.0,-6.7046,-6.6821,-6.6426,-6.5436,-6.5299,-6.5531,-6.6134,-6.6185,-6.6185,-6.6185,-6.6185,-6.5953,-6.5373,-6.5334,-6.4967,-6.4077,-6.4704,-6.4903,-6.4605,-6.4412,-6.4326,-6.4333,-6.4126,-6.3691,-6.3093,-6.3192,-6.2929,-6.234,-6.2399,-6.2267,-6.2071,-6.2071,-6.2189,-6.2423,-6.2423,-6.2423,-6.2423,0.0,0.0,0.0,0.0,0.0,0.0,0.0,0.0,0.0,0.0,0.0,0.0,0.0,0.0,0.0,0.0,0.0,0.0,0.0,0.0,0.0,0.0,0.0,0.0,0.0,0.0,0.0,0.0,0.0,0.0,0.0,-6.6817,-6.6795,-6.6795,-6.6795,-6.7107,-6.8005,-6.8864,-6.9723,-7.0621,-7.148,-7.1987,-7.1987,-7.1987,-7.1987,-7.1987,-7.1987,-7.1987,-7.1987,-7.1987,-7.2417,-7.3275,-7.4095,-7.4954,-7.5816,-7.6672,-7.7101,-7.7101,-7.7101,-7.7101,-7.7101,-7.7101,-7.7101,-7.7101,-7.7101,-7.7101,-7.7101,-7.7101,-7.7101,-7.7101,-7.7101,-7.7101,-7.7101,0.0,0.0,0.0,0.0,0.0,0.0,-6.7025,-6.6821,-6.6426,-6.5436,-6.5299,-6.5531,-6.6134,-6.6185,-6.6185,-6.6185,-6.5876,-6.5489,-6.5025,-6.4329,-6.4,-6.4241,-6.4102,-6.399,-6.3922,-6.3611,-6.3439,-6.3439,-6.31,-6.2658,-6.2192,-6.229,-6.2052,-6.1557,-6.1638,-6.1666,-6.1665,-6.1688,-6.1718,-6.1718,-6.1718,-6.1718,-6.1718,-6.1718,-6.1718,-6.1718,-6.1718,-6.1718,-6.1839,-6.2677,0.0,0.0,0.0,0.0,0.0,0.0,0.0,0.0,0.0,0.0,0.0,0.0,0.0,0.0,0.0,0.0,0.0,0.0,0.0,0.0,0.0,0.0,0.0,0.0,-6.6813,-6.6795,-6.6795,-6.6795,-6.699,-6.7498,-6.863,-6.9606,-7.0113,-7.1285,-7.1987,-7.1987,-7.1987,-7.1987,-7.1987,-7.1987,-7.1987,-7.1987,-7.1987,-7.2221,-7.2768,-7.3588,-7.4408,-7.5266,-7.6125,-7.675,-7.7101,-7.7101,-7.7101,-7.7101,-7.7101,-7.7101,-7.7101,-7.7101,-7.7101,-7.7101,0.0,0.0,0.0,0.0,-7.7101,-7.7101,0.0,0.0,0.0,0.0,0.0,0.0,-6.7025,-6.6821,-6.6426,-6.5436,-6.5299,-6.5531,-6.6134,-6.6185,-6.6185,-6.6185,-6.545,-6.4909,-6.4715,-6.3362,-6.3149,-6.4521,-6.3249,-6.2865,-6.3612,-6.2912,-6.2546,-6.2546,-6.1762,-6.1441,-6.1471,-6.1486,-6.1495,-6.1481,-6.1559,-6.1601,-6.1601,-6.166,-6.1718,-6.1718,-6.1718,-6.1718,-6.1718,-6.1718,-6.1718,-6.172,-6.1686,-6.1688,-6.1811,-6.2499,0.0,0.0,0.0,0.0,0.0,0.0,0.0,0.0,0.0,0.0,0.0,0.0,0.0,0.0,0.0,0.0,0.0,0.0,0.0,0.0,0.0,0.0,0.0,0.0,-6.68,-6.6795,-6.6795,-6.6795,-6.6834,-6.6912,-6.8396,-6.945,-6.9528,-7.1011,-7.1987,-7.1987,-7.1987,-7.1987,-7.1987,-7.1987,0.0,0.0,0.0,-7.1987,-7.1987,-7.2846,-7.3705,-7.4525,-7.5384,-7.6242,-7.7101,-7.7101,-7.7101,-7.7101,-7.7101,-7.7101,-7.7101,-7.7101,-7.7101,-7.7101,-7.7101,-7.7101,-7.7101,-7.7101,-7.7101,-7.7101,0.0,0.0,0.0,0.0,0.0,0.0,0.0,-6.6821,-6.6426,-6.5436,-6.5299,-6.5531,-6.6134,-6.6185,-6.6185,-6.6185,-6.545,-6.4406,-6.2975,-6.3245,-6.3022,-6.2056,-6.2336,-6.2299,-6.191,-6.1723,-6.1645,-6.1645,-6.149,-6.1388,-6.1421,-6.1489,-6.15,-6.1487,-6.1552,-6.1601,-6.1601,-6.166,-6.1718,-6.1718,-6.1718,-6.1718,-6.1718,-6.1718,-6.1718,-6.1686,-6.1634,-6.1639,-6.164,-6.1746,-6.2125,-6.2625,-6.2871,-6.3354,0.0,0.0,0.0,0.0,0.0,0.0,0.0,0.0,0.0,0.0,0.0,0.0,0.0,0.0,0.0,0.0,0.0,0.0,0.0,-6.6796,-6.682,-6.6795,-6.6795,-6.6795,-6.7068,-6.7771,-6.8786,-6.9684,-7.0387,-7.1402,-7.1987,-7.1987,-7.1987,-7.1987,-7.1987,-7.1987,-7.1987,-7.1987,-7.1987,-7.1987,-7.1987,-7.2846,-7.3705,-7.4525,-7.5384,0.0,-7.7101,-7.7101,-7.7101,-7.7101,-7.7101,-7.7101,-7.7101,-7.7101,-7.7101,-7.7101,-7.7101,-7.7101,-7.7101,-7.7101,-7.7101,-7.7101,0.0,0.0,0.0,0.0,0.0,0.0,0.0,-6.6779,-6.6404,-6.5192,-6.5191,-6.5475,-6.589,-6.6123,-6.6031,-6.5644,-6.4445,-6.3323,-6.2472,-6.2394,-6.2239,-6.1923,-6.1909,-6.1718,-6.1344,-6.1366,-6.1412,-6.1412,-6.1412,-6.1412,-6.1419,-6.1408,-6.1445,-6.1451,-6.152,-6.1564,-6.1568,-6.1601,-6.1631,-6.1669,-6.169,-6.1694,-6.1668,-6.1688,-6.1694,-6.1632,-6.1601,-6.1561,-6.1549,-6.1504,-6.1794,-6.2286,-6.312,-6.3352,-6.3339,0.0,0.0,0.0,0.0,0.0,0.0,0.0,0.0,0.0,0.0,0.0,0.0,0.0,0.0,-6.6624,-6.6706,0.0,-6.6796,-6.6789,-6.6811,-6.6795,-6.6795,-6.6795,-6.7107,-6.8005,-6.8864,-6.9723,-7.0621,-7.148,-7.1987,-7.1987,-7.1987,-7.1987,-7.1987,-7.1987,-7.1987,-7.1987,-7.1987,-7.1987,-7.1987,-7.2417,-7.3275,-7.4525,-7.4954,-7.5813,-7.7101,-7.7101,-7.7101,-7.7101,-7.7101,-7.7101,-7.7101,-7.7101,-7.7101,-7.7101,-7.7101,-7.7101,-7.7101,-7.7101,-7.7101,-7.7101,0.0,0.0,0.0,0.0,0.0,0.0,0.0,-6.6699,-6.6325,-6.4987,-6.503,-6.5329,-6.5588,-6.5854,-6.5644,-6.4732,-6.3379,-6.2423,-6.2153,-6.166,-6.1601,-6.2236,-6.1621,-6.1314,-6.1306,-6.1352,-6.1373,-6.1366,-6.1373,-6.1412,-6.1412,-6.1412,-6.1412,-6.1381,-6.1479,-6.149,-6.1504,-6.1543,-6.1561,-6.1601,-6.1634,-6.1637,-6.1601,-6.1633,-6.1638,-6.1561,-6.1597,-6.1543,-6.1501,-6.1495,-6.15,-6.1757,-6.3281,-6.3362,-6.309,-6.3789,-6.3517,0.0,0.0,0.0,0.0,0.0,0.0,0.0,0.0,-6.4372,-6.5037,-6.525,-6.5874,-6.6479,-6.6756,-6.6796,-6.6791,-6.6802,-6.6795,-6.6795,-6.6795,-6.6795,-6.7185,-6.8239,-6.8981,-6.9801,-7.0855,-7.1597,-7.1987,-7.1987,-7.1987,-7.1987,-7.1987,-7.1987,-7.1987,-7.1987,-7.1987,-7.1987,-7.1987,-7.1987,-7.2846,-7.4486,-7.4486,-7.5423,-7.7101,-7.7101,-7.7101,-7.7101,-7.7101,-7.7101,-7.7101,-7.7101,-7.7101,-7.7101,-7.7101,-7.7101,-7.7101,-7.7101,-7.7101,-7.7101,0.0,0.0,0.0,0.0,0.0,0.0,0.0,0.0,-6.6325,-6.4987,-6.4848,-6.4964,-6.5314,-6.5374,-6.4852,-6.3524,-6.3214,-6.2574,-6.1341,-6.1892,-6.1988,-6.1375,-6.1311,-6.1306,-6.1306,-6.1376,-6.1359,-6.1329,-6.1359,-6.1412,-6.1412,-6.1412,-6.1412,-6.1381,-6.1479,-6.149,-6.15,-6.1509,-6.1495,-6.1495,-6.1539,-6.1538,-6.1495,-6.1539,-6.1538,-6.1529,-6.151,-6.1517,-6.149,-6.1408,-6.1401,-6.1596,-6.2553,-6.3323,-6.3867,-6.3983,-6.3945,-6.3673,-6.2779,-6.208,-6.156,-6.1609,-6.2206,-6.285,0.0,-6.3517,-6.4344,-6.5133,-6.5418,-6.5792,-6.664,-6.6788,-6.6802,-6.6798,-6.6795,-6.6795,-6.6795,-6.6795,-6.742,-6.9059,-6.9333,-7.0035,-7.1675,-7.1948,-7.1987,-7.1987,-7.1987,-7.1987,-7.1987,-7.1987,-7.1987,-7.1987,-7.1987,-7.1987,-7.1987,-7.1987,-7.2846,-7.4486,-7.4486,-7.5423,-7.7101,-7.7101,-7.7101,-7.7101,-7.7101,-7.7101,-7.7101,-7.7101,-7.7101,-7.7101,-7.7101,-7.7101,-7.7101,-7.7101,-7.7101,-7.7101,0.0,0.0,0.0,0.0,0.0,0.0,0.0,0.0,0.0,-6.533,-6.4972,-6.4865,-6.4981,-6.4718,-6.4193,-6.3283,-6.2731,-6.2066,-6.1138,-6.1427,-6.1475,-6.1146,-6.1191,-6.1272,-6.1297,-6.1314,-6.1344,-6.1352,-6.1405,-6.1412,-6.1412,-6.1412,-6.1412,-6.1419,-6.1441,-6.1427,-6.1433,-6.147,-6.151,-6.1513,-6.1515,-6.1507,-6.151,-6.151,-6.1478,-6.1466,-6.1486,-6.1489,0.0,-6.1394,-6.1412,-6.1529,-6.2429,-6.3269,-6.3953,-6.3976,-6.4303,-6.4341,-6.2975,-6.2299,-6.1903,-6.1431,-6.1586,-6.1904,-6.191,-6.2624,-6.3365,-6.3774,-6.4684,-6.5524,-6.5976,-6.6471,-6.6795,-6.6795,-6.6795,-6.6795,-6.6795,-6.7224,-6.8005,-6.9255,-6.984,-7.0621,-7.187,-7.1987,-7.1987,-7.1987,-7.1987,-7.1987,-7.1987,-7.1987,-7.1987,-7.1987,-7.1987,-7.1987,-7.1987,-7.1987,-7.2612,-7.3822,-7.429,-7.5149,-7.636,-7.6867,-7.7101,-7.7101,-7.7101,-7.7101,-7.7101,-7.7101,-7.7101,-7.7101,-7.7101,-7.7101,-7.7101,-7.7101,-7.7101,-7.7101,0.0,0.0,0.0,0.0,0.0,0.0,0.0,0.0,0.0,0.0,-6.4992,-6.4651,-6.4651,-6.4124,-6.3543,-6.3023,-6.2155,-6.1453,-6.101,-6.0992,-6.1022,-6.1118,-6.1164,-6.1199,-6.1281,-6.1291,-6.1337,-6.1359,-6.1373,-6.1412,-6.1412,-6.1412,-6.1412,-6.1412,-6.1412,-6.1412,-6.1381,-6.1445,-6.1484,-6.145,-6.1487,-6.1474,-6.1484,-6.1484,-6.1427,-6.1426,-6.1451,-6.1427,-6.1412,-6.1412,-6.1412,-6.149,-6.2104,-6.2897,-6.3534,-6.3596,-6.4139,-6.4477,-6.318,-6.2659,-6.2349,-6.1779,-6.1477,-6.1291,-6.1352,-6.1878,-6.2432,-6.2723,-6.3967,-6.5119,-6.5429,-6.6204,-6.6811,-6.6798,-6.6795,-6.6795,-6.6795,-6.7537,-6.8435,-6.9294,-7.0152,-7.105,-7.1909,-7.1987,-7.1987,-7.1987,-7.1987,-7.1987,-7.1987,-7.1987,-7.1987,-7.1987,-7.1987,-7.1987,-7.1987,-7.1987,-7.2456,-7.3315,-7.4134,-7.4954,-7.5816,-7.6711,-7.7101,-7.7101,-7.7101,-7.7101,-7.7101,-7.7101,-7.7101,-7.7101,-7.7101,-7.7101,-7.7101,-7.7101,-7.7101,-7.7101,0.0,0.0,0.0,0.0,0.0,0.0,0.0,0.0,0.0,0.0,0.0,0.0,0.0,-6.361,-6.29,-6.237,-6.1532,-6.0944,-6.0719,-6.0716,-6.0817,-6.1109,-6.1164,-6.1182,-6.1191,-6.1275,-6.1283,-6.1283,-6.1359,-6.1412,-6.1412,-6.1412,-6.1412,-6.1412,-6.1412,-6.1412,-6.1412,-6.1381,-6.1381,-6.1381,-6.1388,-6.1388,-6.1381,-6.1381,-6.1419,-6.1412,-6.1381,-6.1419,-6.1412,-6.1412,-6.1412,-6.1405,-6.1337,-6.1943,-6.2634,-6.2555,-6.3158,-6.3809,-6.3687,-6.3085,-6.2482,-6.2486,-6.1879,-6.1322,-6.1283,-6.1391,-6.1694,-6.2606,-6.3448,-6.4322,-6.5311,-6.6211,-6.6794,-6.6805,-6.6795,-6.6795,-6.6795,-6.7537,-6.8435,-6.9294,-7.0152,-7.105,-7.1909,-7.1987,-7.1987,-7.1987,-7.1987,-7.1987,-7.1987,-7.1987,-7.1987,-7.1987,-7.1987,-7.1987,-7.1987,-7.1987,-7.2456,-7.3315,-7.4134,-7.4954,-7.5816,-7.6711,-7.7101,-7.7101,-7.7101,-7.7101,-7.7101,-7.7101,-7.7101,-7.7101,-7.7101,-7.7101,-7.7101,-7.7101,-7.7101,-7.7101,0.0,0.0,0.0,0.0,0.0,0.0,0.0,0.0,0.0,0.0,0.0,0.0,0.0,0.0,0.0,0.0,-6.2332,-6.1751,-6.149,-6.1,-6.0817,-6.1109,-6.1127,-6.1155,-6.1182,-6.1289,-6.1291,-6.1283,-6.1359,-6.1412,-6.1412,-6.1412,-6.1412,-6.1412,-6.1412,-6.1412,-6.1412,-6.1412,-6.1412,-6.1412,-6.1412,-6.1412,-6.1412,-6.1412,-6.1412,-6.1373,0.0,-6.1352,-6.1412,-6.1412,-6.1412,-6.1405,-6.1329,-6.1881,-6.2624,-6.3166,-6.3902,-6.4462,-6.3874,-6.3477,-6.3186,-6.2624,-6.1875,-6.1242,-6.1275,-6.1314,-6.1437,-6.1719,-6.2563,-6.3466,-6.434,-6.53,-6.6132,-6.6715,-6.6817,-6.6795,-6.6795,-6.8044,-6.9059,-6.9372,-7.0699,-7.1675,-7.1987,-7.1987,-7.1987,-7.1987,-7.1987,-7.1987,-7.1987,-7.1987,-7.1987,-7.1987,-7.1987,-7.1987,-7.1987,-7.1987,-7.2143,-7.2456,-7.3822,-7.5266,-7.6672,-7.6984,-7.7101,-7.7101,-7.7101,-7.7101,-7.7101,-7.7101,-7.7101,-7.7101,-7.7101,-7.7101,-7.7101,-7.7101,-7.7101,-7.7101,0.0,0.0,0.0,0.0,0.0,0.0,0.0,0.0,0.0,0.0,0.0,0.0,0.0,0.0,0.0,0.0,0.0,-6.1966,-6.1587,-6.0824,-6.0545,-6.0951,-6.0962,-6.1022,-6.1182,-6.1255,-6.1297,-6.1299,-6.1322,-6.1344,-6.1359,-6.1359,-6.1366,-6.1412,-6.1412,-6.1412,-6.1412,-6.1412,-6.1412,-6.1412,-6.1412,-6.1405,-6.1359,-6.1359,-6.1352,0.0,-6.1306,-6.1314,-6.1376,-6.1376,-6.1376,-6.1368,-6.1291,-6.1591,-6.2206,-6.339,-6.4087,-6.4532,-6.4571,-6.4377,-6.3952,-6.3138,-6.2305,-6.1587,-6.1341,-6.1283,-6.1283,-6.1283,-6.2095,-6.3008,-6.3867,-6.4799,-6.5738,-6.6636,-6.679,-6.6802,-6.6818,-6.8291,-6.9411,-6.9411,-7.0933,-7.1987,-7.1987,-7.1987,-7.1987,-7.1987,-7.1987,-7.1987,-7.1987,-7.1987,-7.1987,-7.1987,-7.1987,-7.1987,-7.1987,-7.1987,-7.23,-7.2924,-7.429,-7.5696,-7.7101,-7.7101,-7.7101,-7.7101,-7.7101,-7.7101,-7.7101,-7.7101,-7.7101,-7.7101,-7.7101,-7.7101,-7.7101,-7.7101,-7.7101,-7.7101,0.0,0.0,0.0,0.0,0.0,0.0,0.0,0.0,0.0,0.0,0.0,0.0,0.0,0.0,0.0,0.0,0.0,0.0,-6.1086,-6.0302,-6.0106,-6.0669,-6.0692,-6.0839,-6.1164,-6.1182,-6.1247,-6.1297,-6.1297,-6.1283,-6.1314,-6.1314,-6.1337,-6.1373,-6.1373,-6.1412,-6.1412,-6.1412,-6.1412,-6.1412,-6.1412,-6.1352,-6.1283,-6.1314,-6.1291,-6.1297,-6.1297,-6.1297,-6.1297,-6.1297,-6.1297,-6.1289,-6.1277,-6.1232,-6.1505,-6.3216,-6.3719,-6.4106,-6.5721,-6.5566,-6.4803,-6.399,-6.3129,-6.2275,-6.1453,-6.1289,-6.1314,-6.1314,-6.2051,-6.2976,-6.3847,-6.4762,-6.5704,-6.6561,-6.6757,-6.6811,-6.6796,-6.8305,-6.9411,-6.9411,-7.0933,-7.1987,-7.1987,-7.1987,-7.1987,-7.1987,-7.1987,-7.1987,-7.1987,-7.1987,-7.1987,-7.1987,-7.1987,-7.1987,-7.1987,-7.2026,-7.2885,-7.4525,-7.5384,-7.6242,-7.7101,-7.7101,-7.7101,-7.7101,-7.7101,-7.7101,-7.7101,-7.7101,-7.7101,-7.7101,-7.7101,-7.7101,-7.7101,-7.7101,-7.7101,-7.7101,0.0,0.0,0.0,0.0,0.0,0.0,0.0,0.0,0.0,0.0,0.0,0.0,0.0,0.0,0.0,0.0,0.0,0.0,-6.2012,-6.1157,-6.0592,-6.0351,-6.057,-6.0739,-6.0817,-6.1051,-6.1191,-6.1247,-6.1281,-6.1306,-6.1314,-6.1314,-6.1299,-6.1337,-6.1337,-6.1352,-6.1412,-6.1412,-6.1412,-6.1412,-6.1344,-6.1329,-6.1314,-6.1291,-6.1306,-6.1297,-6.1255,-6.1247,-6.1208,-6.1289,-6.1272,-6.1354,-6.1965,-6.2123,-6.2278,-6.3371,-6.4145,-6.4764,-6.518,-6.5141,-6.4948,-6.4725,-6.3526,-6.2375,-6.2143,-6.1646,-6.1234,-6.1306,-6.2013,-6.2912,-6.3838,-6.4762,-6.5704,-6.6561,-6.6757,-6.68,-6.6813,-6.8288,-6.9411,-6.9411,-7.0933,-7.1987,-7.1987,-7.1987,-7.1987,-7.1987,-7.1987,-7.1987,-7.1987,-7.1987,-7.1987,-7.1987,-7.1987,-7.1987,-7.1987,-7.2651,-7.3471,-7.4525,-7.5384,-7.6242,-7.7101,-7.7101,-7.7101,-7.7101,-7.7101,-7.7101,-7.7101,-7.7101,-7.7101,-7.7101,-7.7101,-7.7101,-7.7101,-7.7101,-7.7101,-7.7101,0.0,0.0,0.0,0.0,0.0,0.0,0.0,0.0,0.0,0.0,0.0,0.0,0.0,0.0,0.0,0.0,0.0,0.0,0.0,-6.1294,-6.0598,-6.0038,-6.0189,-6.0431,-6.0704,-6.0871,-6.1032,-6.1155,-6.1182,-6.1247,-6.1264,-6.1264,-6.1259,-6.1283,-6.1299,-6.1329,-6.1412,-6.1383,-6.1376,0.0,0.0,-6.1283,-6.1259,-6.1272,-6.1255,-6.1199,-6.1164,-6.1155,-6.1164,-6.1191,-6.1182,-6.131,-6.2161,-6.2413,-6.2665,-6.3903,-6.4609,-6.5064,-6.5412,-6.5528,-6.545,-6.5102,-6.398,-6.2859,-6.2511,-6.1774,-6.1191,-6.1264,-6.1981,-6.2882,-6.3798,-6.4734,-6.5697,-6.6525,-6.6757,-6.6922,-6.729,-6.8527,-6.9528,-6.9918,-7.1167,-7.1987,-7.1987,-7.1987,-7.1987,-7.1987,-7.1987,-7.1987,-7.1987,-7.1987,-7.1987,-7.1987,-7.1987,-7.1987,-7.1987,-7.3197,-7.4056,-7.4525,-7.5774,-7.6633,-7.7101,-7.7101,-7.7101,-7.7101,-7.7101,-7.7101,-7.7101,-7.7101,-7.7101,-7.7101,-7.7101,-7.7101,-7.7101,-7.7101,-7.7101,-7.7101,0.0,0.0,0.0,0.0,0.0,0.0,0.0,0.0,0.0,0.0,0.0,0.0,0.0,0.0,0.0,0.0,0.0,0.0,0.0,0.0,-6.049,-5.9917,-5.9831,-6.0038,-6.0558,-6.0669,-6.0806,-6.1041,-6.106,-6.1137,-6.1173,-6.1173,-6.1225,-6.1299,-6.1306,-6.133,-6.1398,-6.133,-6.1283,-6.1306,-6.1306,-6.1264,-6.1182,0.0,-6.1155,-6.1118,-6.1118,-6.1118,-6.1118,-6.1234,-6.1273,-6.1427,-6.2317,-6.2665,-6.3052,-6.4677,-6.5141,-6.5296,-6.5992,-6.6185,-6.6031,-6.5334,-6.4416,-6.3487,-6.2743,-6.1842,-6.122,-6.1337,-6.2112,-6.3022,-6.3922,-6.4909,-6.5793,-6.6507,-6.6714,-6.709,-6.7889,-6.8812,-6.9723,-7.0582,-7.148,-7.1987,-7.1987,-7.1987,-7.1987,-7.1987,-7.1987,-7.1987,-7.1987,-7.1987,-7.1987,-7.1987,-7.1987,-7.2065,-7.2182,-7.3705,-7.4564,-7.4681,-7.632,-7.7101,-7.7101,-7.7101,-7.7101,-7.7101,-7.7101,-7.7101,-7.7101,-7.7101,-7.7101,-7.7101,-7.7101,-7.7101,-7.7101,-7.7101,-7.7101,-7.7101,0.0,0.0,0.0,0.0,0.0,0.0,0.0,0.0,0.0,0.0,-6.5243,-6.4284,0.0,0.0,0.0,0.0,0.0,0.0,0.0,0.0,0.0,-6.0473,-6.0021,-5.9874,-5.9946,-6.0444,-6.0727,-6.0762,-6.0992,-6.1118,-6.1127,-6.1127,-6.1155,-6.1208,-6.1199,-6.1234,-6.1322,-6.1306,-6.1306,-6.1306,-6.1255,-6.1191,-6.1182,-6.1146,0.0,0.0,-6.1118,-6.1118,-6.1195,-6.193,-6.2162,-6.2317,-6.3207,-6.398,-6.4754,-6.5721,-6.5992,-6.6031,-6.6147,-6.6185,-6.6185,-6.6031,-6.4831,-6.3681,-6.3526,-6.2249,-6.1339,-6.2111,-6.2978,-6.3882,-6.4807,-6.5732,-6.6447,-6.6655,-6.6751,-6.7104,-6.7943,-6.883,-6.9723,-7.0582,-7.148,-7.1987,-7.1987,-7.1987,-7.1987,-7.1987,-7.1987,-7.1987,-7.1987,-7.1987,-7.1987,-7.1987,-7.1987,-7.2339,-7.308,-7.4017,-7.4876,-7.5579,-7.6594,-7.7101,-7.7101,-7.7101,-7.7101,-7.7101,-7.7101,-7.7101,-7.7101,-7.7101,-7.7101,-7.7101,-7.7101,-7.7101,-7.7101,-7.7101,-7.7101,-7.7101,0.0,0.0,0.0,0.0,0.0,0.0,0.0,0.0,-6.6699,-6.68,-6.5356,-6.4284,-6.4284,-6.4284,0.0,0.0,0.0,0.0,0.0,0.0,0.0,0.0,0.0,0.0,-5.9809,-6.0082,-6.0311,-6.0418,0.0,-6.0654,-6.0654,-6.0654,-6.0677,-6.0745,-6.0871,-6.0963,-6.1041,-6.1164,-6.1199,-6.1255,-6.1173,-6.1146,-6.1146,0.0,0.0,0.0,-6.1118,-6.1389,-6.1853,-6.2278,-6.3013,-6.3826,-6.4251,-6.4648,-6.5141,-6.5953,-6.6185,-6.6185,-6.6185,-6.6185,-6.6185,-6.6185,-6.5296,-6.4261,-6.3797,-6.2704,-6.1892,-6.2345,-6.3154,-6.4214,-6.5558,-6.6633,-6.7447,-6.7919,-6.8078,-6.8435,-6.934,-6.9801,-7.0387,-7.1285,-7.1753,-7.1987,-7.1987,-7.1987,-7.1987,-7.1987,-7.1987,-7.1987,-7.1987,-7.1987,-7.1987,-7.1987,-7.1987,-7.2417,-7.3275,-7.4095,-7.4954,-7.5816,-7.6672,-7.7101,-7.7101,-7.7101,-7.7101,-7.7101,-7.7101,-7.7101,-7.7101,-7.7101,-7.7101,-7.7101,-7.7101,-7.7101,-7.7101,-7.7101,-7.7101,-7.7101,0.0,0.0,0.0,0.0,0.0,0.0,0.0,-6.7441,-6.6561,-6.6537,-6.5243,-6.4284,-6.4284,-6.4284,-6.4284,0.0,0.0,0.0,0.0,0.0,0.0,0.0,0.0,0.0,0.0,0.0,0.0,-6.0118,-6.0189,0.0,0.0,0.0,0.0,0.0,-6.0508,-6.0604,-6.0707,-6.0923,-6.1032,0.0,0.0,-6.1118,0.0,0.0,0.0,0.0,0.0,-6.1814,-6.2472,-6.282,-6.3864,-6.5025,-6.518,-6.5257,-6.5373,-6.5992,-6.6185,-6.6185,-6.6185,-6.6185,-6.6185,-6.6185,-6.5605,-6.4764,-6.3913,-6.3168,-6.2665,-6.2665,-6.3562,-6.4834,-6.6385,-6.7482,-6.8383,-6.909,-6.925,-6.9646,-7.059,-7.0699,-7.1011,-7.1909,-7.1987,-7.1987,-7.1987,-7.1987,-7.1987,-7.1987,-7.1987,-7.1987,-7.1987,-7.1987,-7.1987,-7.1987,-7.1987,-7.2495,-7.3549,-7.4173,-7.5032,-7.6086,-7.6789,-7.7101,-7.7101,-7.7101,-7.7101,-7.7101,-7.7101,-7.7101,-7.7101,-7.7101,-7.7101,-7.7101,-7.7101,-7.7101,-7.7101,-7.7101,-7.7101,-7.7101,0.0,0.0,0.0,0.0,0.0,0.0,0.0,-6.7067,-6.6373,-6.5691,-6.4847,-6.4284,-6.4284,-6.4284,-6.4284,0.0,0.0,0.0,0.0,0.0,0.0,0.0,0.0,0.0,0.0,0.0,0.0,-5.9858,-6.0074,0.0,0.0,0.0,0.0,0.0,0.0,-6.0259,-6.03,-6.0594,0.0,0.0,0.0,0.0,0.0,0.0,0.0,0.0,0.0,-6.2317,-6.2627,-6.4213,-6.487,-6.5141,-6.5876,-6.6108,-6.6108,-6.6185,-6.6185,-6.6185,-6.6185,-6.6185,-6.6185,-6.6185,-6.5605,-6.4764,-6.3913,-6.3642,-6.3565,-6.3565,-6.4957,-6.6424,-6.7346,-6.8338,-6.9089,-6.9207,-6.9251,-6.9645,-7.0587,-7.0699,-7.1011,-7.1909,-7.1987,-7.1987,-7.1987,-7.1987,-7.1987,-7.1987,-7.1987,-7.1987,-7.1987,-7.1987,-7.1987,-7.1987,-7.1987,-7.2768,-7.4369,-7.4447,-7.5345,-7.6984,-7.7062,-7.7101,-7.7101,-7.7101,-7.7101,-7.7101,-7.7101,-7.7101,-7.7101,-7.7101,-7.7101,-7.7101,-7.7101,-7.7101,-7.7101,-7.7101,-7.7101,-7.7101,0.0,0.0,0.0,0.0,0.0,0.0,-6.768,-6.6986,-6.625,-6.5578,-6.481,-6.4284,-6.4284,-6.4284,-6.4284,0.0,0.0,0.0,0.0,0.0,0.0,0.0,0.0,0.0,0.0,0.0,-5.9488,-5.9488,-5.9588,0.0,0.0,0.0,0.0,0.0,0.0,-5.9977,-6.0007,-6.0482,0.0,0.0,0.0,0.0,0.0,0.0,0.0,0.0,0.0,0.0,-6.4058,-6.4754,-6.5334,-6.576,-6.6108,-6.6185,-6.6185,-6.6185,-6.6185,-6.6185,-6.6185,-6.6185,-6.6185,-6.6185,-6.5953,-6.5489,-6.4687,-6.4493,-6.4609,-6.5102,-6.5819,-6.6931,-6.8819,-6.9561,-7.0077,-7.0681,-7.0794,-7.0974,-7.1414,-7.148,-7.1597,-7.1948,-7.1987,-7.1987,-7.1987,-7.1987,-7.1987,-7.1987,-7.1987,-7.1987,-7.1987,-7.1987,-7.1987,-7.1987,-7.2495,-7.3354,-7.4486,-7.5032,-7.5891,-7.7101,-7.7101,-7.7101,-7.7101,-7.7101,-7.7101,-7.7101,-7.7101,-7.7101,-7.7101,-7.7101,-7.7101,-7.7101,-7.7101,-7.7101,-7.7101,-7.7101,-7.7101,-7.7101,0.0,0.0,0.0,0.0,0.0,-6.8206,-6.7382,-6.6754,-6.6095,-6.5278,-6.466,-6.4284,-6.4284,-6.4284,-6.4284,-6.4284,0.0,0.0,0.0,0.0,0.0,0.0,0.0,0.0,0.0,0.0,-5.929,-5.929,-5.929,-5.929,0.0,0.0,-5.929,-5.9309,0.0,0.0,0.0,0.0,0.0,0.0,0.0,0.0,0.0,0.0,0.0,0.0,0.0,0.0,0.0,0.0,0.0,-6.6185,-6.6185,-6.6185,-6.6185,-6.6185,-6.6185,-6.6185,-6.6185,-6.6185,-6.6185,-6.6185,-6.6185,-6.5992,-6.518,-6.5373,-6.5837,-6.6147,-6.6854,-6.7987,-6.9856,-7.046,-7.094,-7.1693,-7.1805,-7.1871,-7.1961,-7.1987,-7.1987,-7.1987,-7.1987,-7.1987,-7.1987,-7.1987,-7.1987,-7.1987,-7.1987,-7.1987,-7.1987,-7.1987,-7.1987,-7.1987,-7.2846,-7.3705,-7.4486,-7.5345,-7.6242,-7.7101,-7.7101,-7.7101,-7.7101,-7.7101,-7.7101,-7.7101,-7.7101,-7.7101,-7.7101,-7.7101,-7.7101,-7.7101,-7.7101,-7.7101,-7.7101,-7.7101,-7.7101,-7.7101,0.0,0.0,0.0,0.0,0.0,0.0,0.0,-6.6418,-6.5908,-6.4489,-6.4304,-6.4284,-6.4284,-6.4284,-6.4284,-6.4284,0.0,0.0,0.0,0.0,0.0,0.0,0.0,0.0,0.0,0.0,-5.929,-5.929,-5.929,-5.929,-5.929,-5.929,-5.929,-5.929,0.0,0.0,0.0,0.0,0.0,0.0,0.0,0.0,-6.3681,0.0,0.0,0.0,0.0,0.0,0.0,0.0,0.0,0.0,0.0,-6.6185,-6.6185,-6.6185,-6.6185,-6.6185,-6.6185,-6.6185,-6.6185,-6.6185,-6.6185,-6.5992,-6.518,-6.6263,-6.723,-6.6379,-6.8248,-7.0079,-7.0167,-7.0946,-7.1627,-7.178,-7.1866,-7.1912,-7.1995,-7.1987,-7.1987,-7.1987,-7.1987,-7.1987,-7.1987,-7.1987,-7.1987,-7.1987,-7.1987,-7.1987,-7.1987,-7.1987,-7.1987,-7.1987,-7.2846,-7.3705,-7.4486,-7.5345,-7.6242,-7.7101,-7.7101,-7.7101,-7.7101,-7.7101,-7.7101,-7.7101,-7.7101,-7.7101,-7.7101,-7.7101,-7.7101,-7.7101,-7.7101,-7.7101,-7.7101,-7.7101,-7.7101,-7.7101,0.0,0.0,0.0,0.0,0.0,0.0,0.0,-6.6336,-6.5864,-6.435,-6.4244,-6.4284,-6.4284,-6.4284,-6.4284,-6.4284,0.0,0.0,0.0,0.0,0.0,0.0,0.0,0.0,0.0,0.0,-5.929,-5.929,-5.929,-5.929,-5.929,-5.929,-5.929,-5.929,-5.929,-5.9628,0.0,0.0,0.0,0.0,0.0,-6.3385,-6.3923,0.0,0.0,0.0,0.0,0.0,0.0,0.0,0.0,0.0,0.0,0.0,0.0,-6.6185,-6.6185,-6.6185,-6.6185,-6.6185,-6.6185,-6.6185,-6.6185,-6.6147,-6.5876,-6.6688,-6.7578,-6.7926,-6.9058,-7.0271,-7.0971,-7.1389,-7.1638,-7.1777,-7.1866,-7.1912,-7.1995,-7.1987,-7.1987,-7.1987,-7.1987,-7.1987,-7.1987,-7.1987,-7.1987,-7.1987,-7.1987,-7.1987,-7.1987,-7.1987,-7.226,-7.2885,-7.3705,-7.4525,-7.5384,-7.6242,-7.6828,-7.7101,-7.7101,-7.7101,-7.7101,-7.7101,-7.7101,-7.7101,-7.7101,-7.7101,-7.7101,-7.7101,-7.7101,-7.7101,-7.7101,-7.7101,-7.7101,-7.7101,-7.7101,-7.7101,0.0,0.0,0.0,0.0,0.0,0.0,0.0,-6.6112,-6.5512,-6.4312,-6.4244,-6.4284,-6.4284,-6.4284,-6.4284,-6.4284,0.0,0.0,0.0,0.0,0.0,0.0,0.0,0.0,-5.9816,-5.9478,-5.929,-5.929,-5.929,-5.929,-5.929,-5.929,-5.9478,-5.9778,-5.9778,-6.0266,0.0,0.0,0.0,0.0,-6.3505,-6.4023,-6.4481,0.0,0.0,0.0,0.0,0.0,0.0,0.0,0.0,0.0,0.0,0.0,0.0,0.0,-6.6185,-6.6185,-6.6185,-6.6185,-6.6185,-6.6185,-6.6185,-6.6301,-6.6611,-6.7346,-6.8236,-6.9087,-6.9899,-7.0697,-7.1413,-7.1575,-7.1644,-7.1807,-7.1871,-7.1912,-7.1995,-7.1987,-7.1987,-7.1987,-7.1987,-7.1987,-7.1987,-7.1987,-7.1987,-7.1987,-7.1987,-7.1987,-7.1987,-7.1987,-7.2534,-7.3705,-7.4251,-7.4915,-7.5777,-7.6672,-7.7101,-7.7101,-7.7101,-7.7101,-7.7101,-7.7101,-7.7101,-7.7101,-7.7101,-7.7101,0.0,-7.7101,-7.7101,-7.7101,-7.7101,-7.7101,-7.7101,-7.7101,-7.7101,-7.7101,0.0,0.0,0.0,0.0,0.0,0.0,0.0,0.0,0.0,-6.4377,-6.4284,-6.4284,-6.4284,-6.4284,-6.4284,-6.4284,0.0,0.0,0.0,0.0,0.0,0.0,0.0,0.0,-6.0642,-5.9741,-5.929,-5.929,-5.929,-5.929,-5.929,-5.9365,-5.9816,-6.0604,-6.068,-6.113,-6.1995,-6.3083,-6.3565,-6.3638,-6.4791,-6.5222,0.0,0.0,0.0,0.0,0.0,0.0,0.0,0.0,0.0,0.0,0.0,0.0,0.0,0.0,0.0,0.0,0.0,-6.6185,-6.6185,-6.6185,-6.6185,-6.6417,-6.7307,-6.8158,0.0,-6.9821,-7.0672,-7.1348,-7.1536,-7.1601,-7.1672,-7.1831,-7.1914,-7.1949,-7.1995,-7.1987,-7.1987,-7.1987,-7.1987,-7.1987,-7.1987,-7.1987,-7.1987,-7.1987,-7.1987,-7.1987,-7.1987,-7.1987,-7.2768,-7.4447,-7.4486,-7.4954,-7.5894,-7.6711,-7.7101,-7.7101,-7.7101,-7.7101,-7.7101,-7.7101,-7.7101,-7.7101,-7.7101,-7.7101,-7.7101,-7.7101,-7.7101,-7.7101,-7.7101,-7.7101,-7.7101,-7.7101,-7.7101,-7.7101,0.0,0.0,0.0,0.0,0.0,0.0,0.0,0.0,0.0,0.0,-6.4244,-6.4284,-6.4284,-6.4284,-6.4284,0.0,0.0,0.0,0.0,0.0,0.0,0.0,0.0,0.0,-6.0642,-5.9741,-5.929,-5.929,-5.929,-5.929,-5.929,-5.9966,-6.0417,-6.0642,-6.1243,-6.1994,-6.2857,-6.3764,-6.4104,-6.4142,-6.4426,-6.4539,0.0,0.0,0.0,0.0,-6.4997,-6.5191,0.0,0.0,0.0,0.0,0.0,0.0,0.0,0.0,-6.6185,-6.6185,-6.6185,0.0,-6.6185,-6.6185,-6.6185,-6.6417,0.0,-6.8158,-6.9048,-6.9821,-7.0672,-7.1334,-7.1446,-7.1517,-7.1651,-7.1711,-7.1875,-7.1963,-7.199,-7.1987,-7.1987,-7.1987,-7.1987,-7.1987,-7.1987,-7.1987,-7.1987,-7.1987,-7.1987,-7.1987,-7.1987,-7.1987,-7.2768,-7.4447,-7.4486,-7.5227,-7.6789,-7.6984,-7.7101,-7.7101,-7.7101,-7.7101,-7.7101,-7.7101,-7.7101,-7.7101,-7.7101,-7.7101,-7.7101,-7.7101,-7.7101,-7.7101,-7.7101,-7.7101,-7.7101,-7.7101,-7.7101,-7.7101,0.0,0.0,0.0,0.0,0.0,0.0,0.0,0.0,0.0,0.0,0.0,0.0,0.0,0.0,0.0,0.0,0.0,0.0,0.0,0.0,0.0,0.0,0.0,-6.2181,-6.1768,-6.0529,-5.9891,-5.9891,-5.9515,-5.9515,-5.9929,-6.0379,-6.1017,-6.1768,-6.2595,-6.3008,-6.3158,-6.3946,-6.4284,-6.4284,-6.4284,0.0,0.0,0.0,0.0,0.0,-6.4741,-6.4934,0.0,-6.5561,-6.5705,-6.5755,0.0,0.0,0.0,0.0,-6.6185,-6.6185,-6.6185,-6.6185,-6.6185,-6.6185,-6.6185,-6.6533,-6.781,-6.8468,-6.9125,-7.0363,-7.0982,-7.1337,-7.1528,-7.1288,-7.1221,-7.1749,-7.1243,-7.0933,-7.1363,-7.1753,-7.1987,-7.1987,-7.1987,-7.1987,-7.1987,-7.1987,-7.1987,-7.1987,-7.1987,-7.1987,-7.1987,-7.1987,-7.2768,-7.4447,-7.4486,-7.5345,-7.7062,-7.7101,-7.7101,-7.7101,-7.7101,-7.7101,-7.7101,-7.7101,-7.7101,-7.7101,-7.7101,-7.7101,-7.7101,-7.7101,-7.7101,-7.7101,-7.7101,-7.7101,-7.7101,-7.7101,-7.7101,-7.7101,0.0,0.0,0.0,0.0,0.0,0.0,0.0,0.0,0.0,0.0,0.0,0.0,0.0,0.0,0.0,0.0,0.0,0.0,0.0,0.0,0.0,0.0,0.0,-6.312,-6.312,-6.1581,-6.0792,-6.0792,-6.0041,-6.0041,-6.0792,-6.0942,-6.1806,-6.3308,-6.3984,-6.3909,-6.3345,-6.4021,-6.4284,-6.4284,-6.4284,0.0,0.0,0.0,0.0,0.0,0.0,0.0,0.0,-6.5451,-6.5667,-6.5755,-6.6074,0.0,0.0,0.0,0.0,0.0,-6.6185,-6.6185,-6.6185,-6.6185,-6.6185,-6.6611,-6.8236,-6.87,-6.9241,-7.0789,-7.1214,-7.1359,-7.1438,-7.0966,-7.085,-7.1634,-7.0675,-7.0035,-7.0777,-7.1519,-7.1987,-7.1987,-7.1987,-7.1987,-7.1987,-7.1987,-7.1987,-7.1987,-7.1987,-7.1987,-7.1987,-7.1987,-7.2768,-7.4447,-7.4486,-7.5345,-7.7062,-7.7101,-7.7101,-7.7101,-7.7101,-7.7101,-7.7101,-7.7101,-7.7101,-7.7101,-7.7101,-7.7101,-7.7101,-7.7101,-7.7101,-7.7101,-7.7101,-7.7101,-7.7101,-7.7101,-7.7101,-7.7101,0.0,0.0,0.0,0.0,0.0,0.0,0.0,0.0,0.0,0.0,0.0,0.0,0.0,0.0,0.0,0.0,0.0,0.0,0.0,0.0,0.0,-6.4284,-6.3533,-6.312,-6.312,-6.2106,-6.1618,-6.1618,-6.1468,-6.1468,-6.1618,-6.2369,-6.3233,-6.4096,-6.4247,-6.4209,-6.4096,-6.4247,-6.4284,-6.4284,-6.4284,0.0,0.0,0.0,0.0,0.0,0.0,0.0,0.0,-6.5238,-6.5507,-6.5755,-6.6074,0.0,0.0,0.0,0.0,0.0,-6.6185,-6.6185,-6.6185,-6.6185,-6.6185,-6.6456,-6.7462,-6.8274,-6.9087,-7.0015,-7.0789,-7.1115,-7.0557,-7.0954,-7.1263,-7.0817,-7.1239,-7.1636,-7.1792,-7.1909,-7.1987,-7.1987,-7.1987,-7.1987,-7.1987,-7.1987,-7.1987,-7.1987,-7.1987,-7.1987,-7.1987,-7.1987,-7.2768,-7.4447,-7.4486,-7.5345,-7.7062,-7.7101,-7.7101,-7.7101,-7.7101,-7.7101,-7.7101,-7.7101,-7.7101,-7.7101,-7.7101,-7.7101,-7.7101,-7.7101,-7.7101,-7.7101,-7.7101,-7.7101,-7.7101,-7.7101,-7.7101,-7.7101,0.0,0.0,0.0,0.0,0.0,0.0,0.0,0.0,0.0,0.0,0.0,0.0,0.0,0.0,0.0,0.0,0.0,0.0,0.0,0.0,0.0,-6.4284,-6.3946,-6.3759,-6.3759,-6.2932,-6.2482,-6.2482,-6.2031,-6.2031,-6.2519,-6.3345,-6.3721,-6.3683,-6.4096,-6.4059,-6.3683,-6.4096,-6.4284,-6.4284,0.0,0.0,0.0,0.0,0.0,0.0,0.0,0.0,0.0,0.0,-6.5465,-6.5755,-6.6074,0.0,0.0,0.0,0.0,0.0,-6.6185,-6.6185,-6.6185,-6.6185,-6.6185,-6.6417,-6.7307,-6.781,-6.8352,-6.9164,-6.9667,-6.9857,-6.9662,-6.9582,-6.9477,-6.9256,-7.0366,-7.1285,-7.1285,-7.1714,-7.1987,-7.1987,-7.1987,-7.1987,-7.1987,-7.1987,-7.1987,-7.1987,-7.1987,-7.1987,-7.1987,-7.2456,-7.3236,-7.4447,-7.4954,-7.5813,-7.7101,-7.7101,-7.7101,-7.7101,-7.7101,-7.7101,-7.7101,-7.7101,-7.7101,-7.7101,-7.7101,-7.7101,-7.7101,-7.7101,-7.7101,-7.7101,-7.7101,-7.7101,-7.7101,-7.7101,-7.7101,-7.7101,0.0,0.0,0.0,0.0,0.0,0.0,0.0,0.0,0.0,0.0,0.0,0.0,0.0,0.0,0.0,0.0,0.0,0.0,0.0,0.0,-6.4284,-6.4284,-6.4284,-6.4284,-6.4284,-6.3683,-6.3383,-6.3383,-6.2707,-6.2707,-6.3383,-6.4021,-6.3946,-6.3421,-6.4021,-6.3946,-6.3421,-6.4021,-6.4284,-6.4284,0.0,0.0,0.0,0.0,0.0,0.0,0.0,0.0,0.0,0.0,0.0,0.0,0.0,0.0,0.0,-6.6263,-6.6185,-6.6185,-6.6185,-6.6185,-6.6185,-6.6185,-6.6185,-6.6379,-6.7036,-6.7346,-6.7704,-6.8413,-6.8704,-6.8843,-6.8856,-6.83,-6.8035,-6.8605,-6.984,-7.0777,-7.0972,-7.1597,-7.1987,-7.1987,-7.1987,-7.1987,-7.1987,-7.1987,-7.1987,-7.1987,-7.1987,-7.1987,-7.1987,-7.2612,-7.3471,-7.4486,-7.5149,-7.6008,-7.7101,-7.7101,-7.7101,-7.7101,-7.7101,-7.7101,-7.7101,-7.7101,-7.7101,-7.7101,-7.7101,-7.7101,-7.7101,-7.7101,-7.7101,-7.7101,-7.7101,-7.7101,-7.7101,-7.7101,-7.7101,-7.7101,0.0,0.0,0.0,0.0,0.0,0.0,0.0,0.0,0.0,0.0,0.0,0.0,0.0,0.0,0.0,0.0,0.0,0.0,0.0,0.0,-6.4284,-6.4284,-6.4284,-6.4284,-6.4284,-6.4247,-6.4209,-6.4209,-6.4134,-6.4134,-6.4209,-6.4267,-6.4267,-6.4209,-6.4267,-6.4267,-6.4209,-6.4304,-6.4284,-6.4284,-6.4284,0.0,0.0,0.0,0.0,0.0,0.0,0.0,0.0,0.0,0.0,0.0,0.0,0.0,-6.7268,-6.6456,-6.6185,-6.6185,-6.6185,-6.6185,-6.6185,-6.6185,-6.6185,-6.6224,-6.6263,-6.692,-6.7551,-6.7734,-6.8373,-6.8735,-6.8169,-6.8085,-6.8601,-7.023,-7.0621,-7.0972,-7.1792,-7.1948,-7.1987,-7.1987,-7.1987,-7.1987,-7.1987,-7.1987,-7.1987,-7.1987,-7.1987,-7.1987,-7.1987,-7.2065,-7.2846,-7.4447,-7.4564,-7.5384,-7.7062,-7.7101,-7.7101,-7.7101,-7.7101,-7.7101,-7.7101,-7.7101,-7.7101,-7.7101,-7.7101,-7.7101,-7.7101,-7.7101,-7.7101,-7.7101,-7.7101,-7.7101,-7.7101,-7.7101,-7.7101,-7.7101,0.0,0.0,0.0,0.0,0.0,0.0,0.0,0.0,0.0,0.0,0.0,0.0,0.0,0.0,0.0,0.0,0.0,0.0,0.0,-6.4284,-6.4284,-6.4284,-6.4284,-6.4284,-6.4284,-6.4284,-6.4284,-6.4284,-6.4284,-6.4284,-6.4284,-6.4284,-6.4284,-6.4284,-6.4284,-6.4284,-6.4284,-6.4284,-6.4284,-6.4342,-6.4847,-6.5035,0.0,0.0,0.0,0.0,0.0,0.0,0.0,0.0,-6.7703,-6.8231,-6.7923,-6.8034,-6.8158,-6.7268,-6.6998,-6.6882,-6.634,-6.6185,-6.6185,-6.6185,-6.6185,-6.6185,-6.6185,-6.6456,-6.6709,-6.6748,-6.7082,-6.7325,-6.7209,-6.726,-6.7693,-6.8903,-6.9528,-7.0191,-7.1089,-7.1675,-7.1987,-7.1987,-7.1987,-7.1987,-7.1987,-7.1987,-7.1987,-7.1987,-7.1987,-7.1987,-7.1987,-7.2495,-7.3315,-7.4447,-7.5032,-7.5891,-7.7101,-7.7101,-7.7101,-7.7101,-7.7101,-7.7101,-7.7101,-7.7101,-7.7101,-7.7101,-7.7101,-7.7101,-7.7101,-7.7101,-7.7101,-7.7101,-7.7101,-7.7101,-7.7101,-7.7101,-7.7101,-7.7101,0.0,0.0,0.0,0.0,0.0,0.0,0.0,0.0,0.0,0.0,0.0,0.0,0.0,0.0,0.0,0.0,0.0,0.0,-6.4284,-6.4284,-6.4284,-6.4284,-6.4284,-6.4284,-6.4284,-6.4284,-6.4284,-6.4284,-6.4284,-6.4284,-6.4284,-6.4284,-6.4284,-6.4284,-6.4284,-6.4284,-6.4284,-6.4284,-6.4434,-6.4735,-6.5298,-6.5674,0.0,0.0,0.0,0.0,0.0,0.0,0.0,0.0,-6.8299,-6.8862,-6.8594,-6.8821,-6.9009,-6.8158,-6.7733,-6.7384,-6.6766,-6.6417,-6.6185,-6.6185,-6.6185,-6.6185,-6.6185,-6.6185,-6.6205,-6.6235,-6.6397,-6.6537,-6.6718,-6.6782,-6.7107,-6.7966,-6.8825,-6.9684,-7.0582,-7.1441,-7.1987,-7.1987,-7.1987,-7.1987,-7.1987,-7.1987,-7.1987,-7.1987,-7.1987,-7.1987,-7.1987,-7.2573,-7.3393,-7.4486,-7.5071,-7.593,-7.7101,-7.7101,-7.7101,-7.7101,-7.7101,-7.7101,-7.7101,-7.7101,-7.7101,-7.7101,-7.7101,-7.7101,-7.7101,-7.7101,-7.7101,-7.7101,-7.7101,-7.7101,-7.7101,-7.7101,-7.7101,-7.7101,0.0,0.0,0.0,0.0,0.0,0.0,0.0,0.0,0.0,0.0,0.0,0.0,0.0,0.0,0.0,0.0,0.0,0.0,-6.4284,-6.4284,-6.4284,-6.4284,-6.4284,-6.4284,-6.4284,-6.4284,-6.4284,-6.4284,-6.4284,-6.4284,-6.4284,-6.4284,-6.4284,-6.4284,-6.4284,-6.4284,-6.4284,-6.4304,-6.4772,-6.5523,-6.5523,-6.6049,-6.6896,0.0,0.0,0.0,0.0,0.0,0.0,0.0,-6.9701,-7.0151,-6.9295,-6.9473,-6.986,-6.9048,-6.8197,-6.7539,-6.7501,-6.6882,-6.6224,-6.6185,-6.6185,-6.6185,-6.6185,-6.6185,-6.6245,-6.6361,-6.6564,-6.6717,-6.677,-6.6795,-6.7068,-6.7966,-6.8825,-6.9684,-7.0543,-7.1441,-7.1987,-7.1987,-7.1987,-7.1987,-7.1987,-7.1987,-7.1987,-7.1987,-7.1987,-7.1987,-7.1987,-7.1987,-7.2768,-7.4447,-7.4486,-7.5345,-7.7062,-7.7101,-7.7101,-7.7101,-7.7101,-7.7101,-7.7101,-7.7101,-7.7101,-7.7101,-7.7101,-7.7101,-7.7101,-7.7101,-7.7101,-7.7101,-7.7101,-7.7101,-7.7101,-7.7101,-7.7101,-7.7101,0.0,0.0,0.0,0.0,0.0,0.0,0.0,0.0,0.0,0.0,0.0,0.0,0.0,0.0,0.0,0.0,0.0,0.0,-6.4284,-6.4284,-6.4284,-6.4284,-6.4284,-6.4284,-6.4284,-6.4284,-6.4284,-6.4284,-6.4284,-6.4284,-6.4284,-6.4284,-6.4284,-6.4284,-6.4284,-6.4284,-6.4342,-6.4885,-6.5298,-6.5598,-6.68,-6.7401,-6.7739,0.0,0.0,0.0,0.0,0.0,0.0,0.0,0.0,0.0,-6.9999,-7.0371,-7.075,-6.9899,-6.9473,-6.9009,-6.781,-6.7307,-6.6959,-6.634,-6.6185,-6.6185,-6.6185,-6.6185,-6.6263,-6.6435,-6.6583,-6.6717,-6.677,-6.6795,-6.6873,-6.7146,-6.7927,-6.8786,-6.9645,-7.0543,-7.1324,-7.1948,-7.1987,-7.1987,-7.1987,-7.1987,-7.1987,-7.1987,-7.1987,-7.1987,-7.1987,-7.1987,-7.2768,-7.4447,-7.4486,-7.5345,-7.7062,-7.7101,-7.7101,-7.7101,-7.7101,-7.7101,-7.7101,-7.7101,-7.7101,-7.7101,-7.7101,-7.7101,-7.7101,-7.7101,-7.7101,-7.7101,-7.7101,-7.7101,-7.7101,-7.7101,-7.7101,-7.7101,0.0,0.0,0.0,0.0,0.0,0.0,0.0,0.0,0.0,0.0,-6.2929,-6.3238,0.0,0.0,0.0,0.0,0.0,0.0,0.0,-6.4284,-6.4284,-6.4284,-6.4284,-6.4284,-6.4284,-6.4284,-6.4284,-6.4284,-6.4284,-6.4284,-6.4284,-6.4284,-6.4284,-6.4284,-6.4284,-6.4472,-6.481,-6.5298,-6.5899,-6.6575,-6.7589,-6.8189,-6.8527,0.0,0.0,0.0,0.0,0.0,0.0,0.0,0.0,0.0,-7.0103,-7.0569,-7.0988,-7.0447,-7.0181,-6.9783,-6.8777,-6.8003,-6.7384,-6.6843,-6.6456,-6.6185,-6.6185,-6.6185,-6.6251,-6.6464,-6.6544,-6.6668,-6.6774,-6.6795,-6.6795,-6.6795,-6.7537,-6.8396,-6.9294,-7.0152,-7.1011,-7.1909,-7.1987,-7.1987,-7.1987,-7.1987,-7.1987,-7.1987,-7.1987,-7.1987,-7.1987,-7.1987,-7.2768,-7.4447,-7.4486,-7.5345,-7.7062,-7.7101,-7.7101,-7.7101,-7.7101,-7.7101,-7.7101,-7.7101,-7.7101,-7.7101,-7.7101,-7.7101,-7.7101,-7.7101,-7.7101,-7.7101,-7.7101,-7.7101,-7.7101,-7.7101,-7.7101,-7.7101,0.0,0.0,0.0,0.0,0.0,0.0,0.0,0.0,0.0,0.0,-6.2668,-6.2977,0.0,0.0,0.0,0.0,0.0,0.0,0.0,0.0,-6.4284,-6.4284,-6.4284,-6.4284,-6.4284,-6.4284,-6.4284,-6.4284,-6.4284,-6.4284,-6.4284,-6.4284,-6.4284,-6.4284,-6.4359,-6.481,-6.5523,-6.5674,-6.6612,-6.8002,-6.8077,-6.8565,-6.9181,-6.9181,0.0,0.0,0.0,0.0,0.0,0.0,0.0,0.0,-6.9816,-7.0288,-7.0821,-7.0848,-7.0501,-7.0092,-7.0015,-6.8893,-6.7694,-6.7539,-6.6843,-6.6185,-6.6185,-6.6185,-6.6251,-6.6459,-6.6514,-6.6566,-6.6777,-6.6798,-6.6795,-6.6795,-6.7459,-6.8279,-6.9176,-7.0035,-7.0894,-7.1792,-7.1948,-7.1987,-7.1987,-7.1987,-7.1987,-7.1987,-7.1987,-7.1987,-7.1987,-7.1987,-7.2729,-7.433,-7.4447,-7.5305,-7.6984,-7.7062,-7.7101,-7.7101,-7.7101,-7.7101,-7.7101,-7.7101,-7.7101,-7.7101,-7.7101,-7.7101,-7.7101,-7.7101,-7.7101,-7.7101,-7.7101,-7.7101,-7.7101,-7.7101,-7.7101,-7.7101,0.0,0.0,0.0,0.0,0.0,0.0,0.0,0.0,0.0,0.0,0.0,0.0,0.0,0.0,0.0,0.0,0.0,0.0,0.0,0.0,-6.4284,-6.4284,-6.4284,-6.4284,-6.4284,-6.4284,-6.4284,-6.4284,-6.4284,-6.4284,-6.4284,-6.4284,-6.4284,-6.4322,-6.496,-6.5336,-6.5598,-6.6913,-6.7664,-6.8077,-6.8715,-6.9031,-6.9181,-6.9181,-6.9181,0.0,0.0,0.0,0.0,0.0,0.0,0.0,-7.0103,-7.0478,-7.0862,-7.1116,-7.1104,-7.0866,-7.017,-6.9744,-6.9164,-6.7849,-6.6843,-6.6185,-6.6185,-6.6185,-6.6242,-6.6473,-6.6583,-6.6673,-6.6781,-6.6802,-6.6795,-6.6795,-6.6951,-6.7381,-6.8279,-6.9137,-6.9996,-7.0894,-7.1597,-7.1987,-7.1987,-7.1987,-7.1987,-7.1987,-7.1987,-7.1987,-7.1987,-7.1987,-7.2495,-7.3549,-7.4173,-7.4993,-7.6086,-7.675,-7.7101,-7.7101,-7.7101,-7.7101,-7.7101,-7.7101,-7.7101,-7.7101,-7.7101,-7.7101,-7.7101,-7.7101,-7.7101,-7.7101,-7.7101,-7.7101,-7.7101,-7.7101,-7.7101,-7.7101,0.0,0.0,0.0,0.0,0.0,0.0,0.0,0.0,0.0,0.0,0.0,0.0,0.0,0.0,0.0,0.0,0.0,0.0,0.0,0.0,-6.4284,-6.4284,-6.4284,-6.4284,-6.4284,-6.4284,-6.4284,-6.4284,-6.4697,-6.466,-6.4304,-6.4697,-6.4885,-6.4923,-6.5749,-6.6349,-6.6762,-6.7626,-6.8227,-6.8602,-6.9031,-6.9181,-6.9181,-6.9181,-6.9181,-6.9181,-6.9181,0.0,0.0,0.0,0.0,0.0,0.0,0.0,-7.0848,-7.0991,-7.1163,-7.1214,-7.075,-7.0324,-6.9589,-6.7926,-6.6843,-6.6185,-6.6185,-6.6185,-6.6244,-6.6406,-6.6533,-6.6625,-6.6784,-6.6805,-6.6795,-6.6795,-6.6795,-6.7107,-6.7966,-6.8474,-6.9255,-7.0543,-7.1089,-7.1558,-7.1948,-7.1987,-7.1987,-7.1987,-7.1987,-7.1987,-7.1987,-7.1987,-7.2417,-7.3275,-7.4095,-7.4915,-7.5777,-7.6672,-7.7101,-7.7101,-7.7101,-7.7101,-7.7101,-7.7101,-7.7101,-7.7101,-7.7101,-7.7101,-7.7101,-7.7101,-7.7101,-7.7101,-7.7101,-7.7101,-7.7101,-7.7101,-7.7101,-7.7101,0.0,0.0,0.0,0.0,0.0,0.0,0.0,0.0,0.0,0.0,0.0,0.0,0.0,0.0,0.0,0.0,0.0,0.0,0.0,0.0,0.0,-6.4755,-6.4755,-6.4755,-6.4755,-6.4755,-6.4755,-6.4755,-6.5411,-6.5373,-6.4735,-6.5411,-6.5711,-6.5749,-6.6612,-6.7363,-6.8002,-6.8152,-6.8602,-6.9181,-6.9181,-6.9181,-6.9181,-6.9181,-6.9181,-6.9181,-6.9181,-6.9181,-6.9181,-6.9181,0.0,0.0,0.0,0.0,-7.0728,-7.0862,-7.1091,-7.1291,-7.1291,-7.0672,-6.9628,-6.8119,-6.7075,-6.6379,-6.6224,-6.6185,-6.6245,-6.6353,-6.6441,-6.6553,-6.6754,-6.6772,-6.6795,-6.6795,-6.6795,-6.7068,-6.7771,-6.8005,-6.863,-7.0074,-7.0504,-7.0972,-7.1714,-7.1909,-7.1987,-7.1987,-7.1987,-7.1987,-7.1987,-7.1987,-7.2339,-7.3041,-7.3861,-7.472,-7.5579,-7.6438,-7.6945,-7.7101,-7.7101,-7.7101,-7.7101,-7.7101,-7.7101,-7.7101,-7.7101,-7.7101,-7.7101,-7.7101,-7.7101,-7.7101,-7.7101,-7.7101,-7.7101,-7.7101,-7.7101,-7.7101,0.0,0.0,0.0,0.0,0.0,0.0,0.0,0.0,0.0,0.0,-6.4126,-6.4293,0.0,0.0,0.0,0.0,0.0,0.0,0.0,0.0,0.0,-6.6483,-6.6483,-6.6483,-6.6483,-6.6483,-6.6483,-6.6483,-6.6596,-6.6596,-6.6483,-6.6596,-6.6633,-6.6671,-6.7476,-6.7889,-6.8039,-6.8753,-6.9106,-6.9181,-6.9181,-6.9181,-6.9181,-6.9181,-6.9181,-6.9181,-6.9181,-6.9181,-6.9181,-6.9181,-6.9225,0.0,0.0,0.0,-7.0494,-7.1041,-7.1269,-7.1291,-7.1291,-7.0672,-6.9783,-6.8854,-6.7965,-6.7114,-6.6379,-6.6185,-6.6245,-6.6353,-6.6441,-6.6535,-6.6708,-6.6752,-6.6795,-6.6795,-6.6795,-6.6834,-6.6951,-6.7615,-6.82,-6.8435,-6.9762,-7.0738,-7.0855,-7.1558,-7.1987,-7.1987,-7.1987,-7.1987,-7.1987,-7.1987,-7.2065,-7.2182,-7.3002,-7.3861,-7.4681,-7.554,-7.636,-7.7101,-7.7101,-7.7101,-7.7101,-7.7101,-7.7101,-7.7101,-7.7101,-7.7101,-7.7101,-7.7101,-7.7101,-7.7101,-7.7101,-7.7101,-7.7101,-7.7101,-7.7101,-7.7101,0.0,0.0,0.0,0.0,0.0,0.0,0.0,0.0,0.0,0.0,0.0,-6.4565,0.0,0.0,0.0,0.0,0.0,0.0,0.0,0.0,0.0,-6.6821,-6.6821,-6.6821,-6.6821,-6.6821,-6.6821,-6.6821,-6.7251,-6.7476,-6.7476,-6.7926,-6.7889,-6.7513,-6.8302,-6.8677,-6.8715,-6.9031,-6.9181,-6.9181,-6.9181,-6.9181,-6.9181,-6.9181,-6.9181,-6.9181,-6.9181,-6.9181,-6.9181,-6.9181,-6.9353,-6.9641,-7.0154,0.0,0.0,0.0,-7.1291,-7.1291,-7.1291,-7.0672,-6.9821,-6.9009,-6.8158,-6.7268,-6.6417,-6.6185,-6.6215,-6.6263,-6.6351,-6.6503,-6.6659,-6.6754,-6.6795,-6.6795,-6.6795,-6.6795,-6.6795,-6.7146,-6.7537,-6.8044,-6.9215,-7.0152,-7.066,-7.148,-7.1987,-7.1987,-7.1987,-7.1987,-7.1987,-7.1987,-7.1987,-7.1987,-7.2846,-7.3705,-7.4486,-7.5345,-7.6242,-7.7101,-7.7101,-7.7101,-7.7101,-7.7101,-7.7101,-7.7101,-7.7101,-7.7101,-7.7101,-7.7101,-7.7101,-7.7101,-7.7101,-7.7101,-7.7101,-7.7101,-7.7101,-7.7101,0.0,0.0,0.0,0.0,0.0,0.0,0.0,0.0,0.0,0.0,0.0,0.0,0.0,0.0,0.0,0.0,0.0,0.0,0.0,0.0,0.0,-6.7401,-6.7401,-6.7401,-6.7401,-6.7401,-6.7401,-6.7401,-6.8002,-6.8302,-6.834,-6.8919,-6.8903,-6.834,-6.8919,-6.9181,-6.9181,-6.9181,-6.9181,-6.9181,-6.9181,-6.9181,-6.9181,-6.9181,-6.9181,-6.9181,-6.9181,-6.9181,-6.9181,-6.9181,-6.9378,-6.9701,-7.005,-7.0416,0.0,0.0,0.0,-7.1291,-7.1291,-7.0827,-7.0131,-6.9319,-6.8468,-6.7617,-6.6727,-6.6379,-6.6185,-6.6185,-6.6303,-6.6457,-6.6639,-6.6719,-6.6774,-6.68,-6.6795,-6.6795,-6.6795,-6.6795,-6.7029,-6.7693,-6.8552,-6.9411,-7.0309,-7.1167,-7.1753,-7.1987,-7.1987,-7.1987,-7.1987,-7.1987,-7.1987,-7.1987,-7.2612,-7.3471,-7.4486,-7.5579,-7.6477,-7.7101,-7.7101,-7.7101,-7.7101,-7.7101,-7.7101,-7.7101,-7.7101,-7.7101,-7.7101,-7.7101,-7.7101,-7.7101,-7.7101,-7.7101,-7.7101,-7.7101,-7.7101,-7.7101,0.0,0.0,0.0,0.0,0.0,0.0,0.0,0.0,0.0,0.0,0.0,0.0,-6.7232,-6.7314,-6.744,-6.786,0.0,0.0,0.0,0.0,0.0,-6.9069,-6.9069,0.0,-6.9069,-6.9069,-6.9069,-6.9069,-6.9106,-6.9144,-6.9144,-6.9181,-6.9181,-6.9144,-6.9181,-6.9181,-6.9181,-6.9181,-6.9181,-6.9181,-6.9181,-6.9181,-6.9181,-6.9181,-6.9181,-6.9181,-6.9181,-6.9181,-6.9181,-6.9181,-6.9203,-6.931,-6.972,-7.005,-7.04,0.0,0.0,0.0,-7.1291,-7.1253,-7.1021,-7.0131,-6.9319,-6.8506,-6.7617,-6.6804,-6.6185,-6.6185,-6.6303,-6.6426,-6.6494,-6.6618,-6.6718,-6.6807,-6.6795,-6.6795,-6.6795,-6.6795,-6.6834,-6.6873,-6.7654,-6.8513,-6.9372,-7.027,-7.1128,-7.1948,-7.1987,-7.1987,-7.1987,-7.1987,-7.1987,-7.1987,-7.2026,-7.2846,-7.4486,-7.6164,-7.7062,-7.7101,-7.7101,-7.7101,-7.7101,-7.7101,-7.7101,-7.7101,-7.7101,-7.7101,-7.7101,-7.7101,-7.7101,-7.7101,-7.7101,-7.7101,-7.7101,-7.7101,-7.7101,-7.7101,0.0,0.0,0.0,0.0,0.0,0.0,0.0,0.0,0.0,0.0,0.0,0.0,0.0,-6.7478,-6.7841,-6.7996,-6.8586,0.0,0.0,0.0,0.0,-6.9181,-6.9181,-6.9181,-6.9181,-6.9181,-6.9181,-6.9181,-6.9181,-6.9181,-6.9181,-6.9181,-6.9181,-6.9181,-6.9181,-6.9181,-6.9181,-6.9181,-6.9181,-6.9181,-6.9181,-6.9181,-6.9181,-6.9181,-6.9181,-6.9181,-6.9181,-6.9181,-6.9181,-6.9181,-6.9181,-6.9332,-6.9925,-7.0205,-7.0416,-7.0953,-7.1224,-7.1291,-7.1291,-7.1291,-7.1098,-7.0208,-6.9396,-6.8584,-6.7694,-6.6843,-6.6185,-6.6185,-6.6225,-6.6322,-6.6477,-6.6614,-6.6719,-6.6807,-6.6795,-6.6795,-6.6795,-6.6795,-6.6795,-6.6795,-6.7576,-6.8435,-6.9333,-7.0191,-7.105,-7.1948,-7.1987,-7.1987,-7.1987,-7.1987,-7.1987,-7.1987,-7.1987,-7.2807,-7.4486,-7.5657,-7.6555,-7.7101,-7.7101,-7.7101,-7.7101,-7.7101,-7.7101,-7.7101,-7.7101,-7.7101,-7.7101,-7.7101,-7.7101,-7.7101,-7.7101,-7.7101,-7.7101,-7.7101,-7.7101,-7.7101,0.0,0.0,0.0,0.0,0.0,0.0,0.0,0.0,0.0,-6.6548,0.0,0.0,0.0,0.0,-6.8097,-6.837,-6.8763,-6.9072,-6.9181,-6.9181,-6.9181,-6.9181,-6.9181,-6.9181,-6.9181,-6.9181,-6.9181,-6.9181,-6.9181,-6.9181,-6.9181,-6.9181,-6.9181,-6.9181,-6.9181,-6.9181,-6.9181,-6.9181,-6.9181,-6.9181,-6.9181,-6.9369,-6.9654,-6.9654,-6.9782,-7.0007,-6.9729,-6.9654,-6.9616,-6.9294,-6.9181,-6.9332,-6.9925,-7.0304,-7.0584,-7.1139,-7.1291,-7.1291,-7.1291,-7.1291,-7.1175,-7.0556,-6.9628,-6.8661,-6.8081,-6.7036,-6.6185,-6.6185,-6.6185,-6.6242,-6.6463,-6.6583,-6.6676,-6.677,-6.6795,-6.6795,-6.6795,-6.6795,-6.6795,-6.6795,-6.7303,-6.8005,-6.8864,-6.9762,-7.0621,-7.1519,-7.1831,-7.1987,-7.1987,-7.1987,-7.1987,-7.1987,-7.226,-7.3119,-7.4486,-7.5345,-7.6242,-7.7101,-7.7101,-7.7101,-7.7101,-7.7101,-7.7101,-7.7101,-7.7101,-7.7101,-7.7101,-7.7101,-7.7101,-7.7101,-7.7101,-7.7101,-7.7101,-7.7101,-7.7101,-7.7101,0.0,0.0,0.0,0.0,0.0,0.0,0.0,0.0,-6.5931,-6.6274,0.0,0.0,0.0,0.0,0.0,-6.9138,-6.8855,-6.8786,-6.9197,-6.9219,-6.9257,-6.9257,0.0,0.0,-6.9257,-6.9257,-6.9257,-6.9257,-6.9257,-6.9257,-6.9257,-6.9257,-6.9257,-6.9257,-6.9257,-6.9257,-6.9257,-6.9257,-6.9257,-6.9257,-6.9257,-6.9766,-7.048,-7.048,-7.0968,-7.1531,-7.0743,-7.0442,-7.033,-6.9482,-6.9181,-6.9268,-6.97,-7.0271,-7.0888,-7.1186,-7.1291,-7.1291,0.0,0.0,0.0,-7.1291,-7.0054,-6.8816,-6.8816,-6.7462,-6.6224,-6.6224,-6.6185,-6.6244,-6.6464,-6.6483,-6.6561,-6.6779,-6.6798,-6.6795,-6.6795,-6.6795,-6.6795,-6.6795,-6.6795,-6.7146,-6.8005,-6.8903,-6.9762,-7.0621,-7.1519,-7.1987,-7.1987,-7.1987,-7.1987,-7.1987,-7.2807,-7.3666,-7.4447,-7.5345,-7.6203,-7.7062,-7.7101,-7.7101,-7.7101,-7.7101,-7.7101,-7.7101,-7.7101,-7.7101,-7.7101,-7.7101,-7.7101,-7.7101,-7.7101,-7.7101,-7.7101,-7.7101,-7.7101,-7.7101,0.0,0.0,0.0,0.0,0.0,0.0,-6.5145,-6.5542,-6.5931,0.0,0.0,0.0,-6.7097,-6.763,-6.8321,-6.9138,-6.9094,-6.9356,-7.0104,-7.0142,-7.0405,-7.0983,-7.0983,-7.0983,-7.0983,-7.0983,-7.0983,-7.0983,-7.0983,-7.0983,-7.0983,-7.0983,-7.0983,-7.0983,-7.0983,-7.0983,-7.0968,-7.0405,-7.048,-7.0983,-7.0983,-7.0818,-7.048,-7.048,-7.0255,-6.9857,-6.9654,-6.9579,-6.9541,-6.9257,-6.9181,-6.9332,-6.9961,-7.0628,-7.1163,-7.1269,-7.1291,-7.1291,-7.1291,0.0,0.0,0.0,0.0,0.0,-6.8932,-6.7926,-6.6959,-6.634,-6.6185,-6.6244,-6.6464,-6.6495,-6.6541,-6.6703,-6.6752,-6.6795,-6.6795,-6.6795,-6.6795,-6.6795,-6.6795,-6.7146,-6.8005,-6.8903,-6.9762,-7.0621,-7.1519,-7.1987,-7.1987,-7.1987,-7.1987,-7.1987,-7.2221,-7.2768,-7.3627,-7.4447,-7.5305,-7.6164,-7.6789,-7.7101,-7.7101,-7.7101,-7.7101,-7.7101,-7.7101,-7.7101,-7.7101,-7.7101,-7.7101,-7.7101,-7.7101,-7.7101,-7.7101,-7.7101,-7.7101,-7.7101,0.0,0.0,0.0,0.0,0.0,-6.4775,-6.4944,-6.5445,-6.5867,0.0,0.0,0.0,-6.7733,-6.8539,-6.9388,-7.0173,-7.0233,-7.048,-7.0968,-7.1006,-7.1231,-7.1681,-7.1719,-7.1719,-7.1719,-7.1719,-7.1719,-7.1719,-7.1719,-7.1719,-7.1719,-7.1719,-7.1719,-7.1719,-7.1719,-7.1907,-7.217,-7.1681,-7.1569,-7.1719,-7.1719,-7.1644,-7.1456,-7.1118,-7.0893,-7.0668,-6.9992,-6.9954,-7.012,-6.9444,-6.931,-6.9544,-7.0266,-7.0769,-7.1116,-7.1269,-7.1291,-7.1291,-7.1291,-7.1291,-7.1291,-7.1291,0.0,0.0,-6.897,-6.8119,-6.7268,-6.6379,-6.6185,-6.6254,-6.6423,-6.6464,-6.6513,-6.6623,-6.6707,-6.6755,-6.6785,-6.6809,-6.6795,-6.6795,-6.6795,-6.699,-6.7498,-6.8669,-6.9606,-7.0113,-7.1285,-7.1987,-7.1987,-7.1987,-7.1987,-7.1987,-7.1987,-7.2417,-7.3275,-7.4095,-7.4954,-7.5816,-7.6672,-7.7101,-7.7101,-7.7101,-7.7101,-7.7101,-7.7101,-7.7101,-7.7101,-7.7101,-7.7101,-7.7101,-7.7101,-7.7101,-7.7101,-7.7101,-7.7101,-7.7101,0.0,0.0,0.0,-6.4672,-6.4672,-6.4672,-6.4672,-6.5313,-6.5804,0.0,-6.6499,-6.762,-6.9252,-7.0121,-7.0886,-7.1621,-7.1719,-7.1757,-7.1832,-7.1832,-7.1907,-7.1959,-7.1982,-7.1982,-7.1982,-7.1982,-7.1982,-7.1982,-7.1982,-7.1982,-7.1982,-7.1982,-7.1982,-7.1982,-7.1982,-7.2395,-7.3033,-7.3033,-7.262,-7.1982,-7.1982,-7.2357,-7.2808,-7.2132,-7.217,-7.2432,-7.1006,-7.0893,-7.1171,-6.9707,-6.9501,-6.9963,-7.0554,-7.0821,-7.0915,-7.1197,-7.1291,-7.1291,-7.1291,-7.1291,-7.1291,-7.1291,-7.0711,0.0,-6.9125,-6.8274,-6.7384,-6.6533,-6.6263,-6.6254,-6.6367,-6.6431,-6.6504,-6.6563,-6.6658,-6.6727,-6.6795,-6.679,-6.6772,-6.6772,-6.6772,-6.6772,-6.6772,-6.8291,-6.9264,-6.9382,-7.1014,-7.1987,-7.1987,-7.1987,-7.1987,-7.1987,-7.1987,-7.2378,-7.3158,-7.4056,-7.4876,-7.566,-7.6633,-7.7101,-7.7101,-7.7101,-7.7101,-7.7101,-7.7101,-7.7101,-7.7101,-7.7101,-7.7101,-7.7101,-7.7101,-7.7101,-7.7101,-7.7101,-7.7101,-7.7101,0.0,0.0,-6.4672,-6.4672,-6.4672,-6.4672,-6.4672,-6.5313,-6.5804,-6.5804,-6.7234,-6.8862,-7.0537,-7.0869,-7.1196,-7.1636,-7.1719,-7.1982,-7.262,-7.2658,-7.2996,-7.3672,-7.3709,-7.3709,-7.3709,-7.3709,-7.3709,-7.3709,-7.3709,-7.3709,-7.3709,-7.3709,-7.3709,-7.3709,-7.3709,-7.3822,-7.3972,-7.3972,-7.3859,-7.3709,-7.3709,-7.3409,-7.2883,-7.2733,-7.1944,-7.093,-7.0592,-7.0142,-6.9632,-6.9294,-6.9662,-7.0238,-7.0369,-7.0755,-7.1236,-7.128,-7.1291,-7.1291,-7.1291,-7.1291,-7.1291,-7.1291,-7.1175,0.0,-6.9938,-6.9125,-6.8313,-6.7423,-6.6688,-6.6254,-6.6367,-6.6411,-6.6422,-6.65,-6.6591,-6.6658,-6.6724,-6.6738,-6.6704,-6.6704,-6.6704,-6.6704,-6.6704,-6.7655,-6.8553,-6.9256,-7.0993,-7.1987,-7.1987,-7.1987,-7.1987,-7.1987,-7.1987,-7.2065,-7.226,-7.3744,-7.4603,-7.4759,-7.636,-7.7101,-7.7101,-7.7101,-7.7101,-7.7101,-7.7101,-7.7101,-7.7101,-7.7101,-7.7101,-7.7101,-7.7101,-7.7101,-7.7101,-7.7101,-7.7101,-7.7101,-6.4672,-6.4672,-6.4672,-6.4672,-6.4672,-6.474,-6.491,-6.5445,-6.607,-6.6865,-6.864,-7.032,-7.1541,-7.1872,-7.2248,-7.2898,-7.2958,-7.3108,-7.3521,-7.3559,-7.3747,-7.4197,-7.4197,-7.4197,-7.4197,-7.4197,-7.4197,-7.4197,-7.4197,-7.4197,-7.4197,-7.4197,-7.4197,-7.4197,-7.4197,-7.4197,-7.4197,-7.4197,-7.4197,-7.4197,-7.4197,-7.3934,-7.3484,-7.3071,-7.2132,-7.1043,-7.063,-6.9954,-6.93,-6.9872,-7.0081,-7.0103,-7.0448,-7.0769,-7.1091,-7.1258,-7.1291,-7.1291,-7.1291,-7.1291,-7.1291,-7.1291,-7.1291,0.0,0.0,-6.9396,-6.8545,-6.7694,-6.6804,-6.6254,-6.6367,-6.6385,-6.6411,-6.6493,-6.6535,-6.6567,-6.659,-6.6677,-6.6717,-6.6717,-6.6717,-6.6717,-6.6717,-6.748,-6.855,-6.9844,-7.1233,-7.1987,-7.1987,-7.1987,-7.1987,-7.1987,-7.1987,-7.1987,-7.1987,-7.3666,-7.4486,-7.4525,-7.6281,-7.7101,-7.7101,-7.7101,-7.7101,-7.7101,-7.7101,-7.7101,-7.7101,-7.7101,-7.7101,-7.7101,-7.7101,-7.7101,-7.7101,-7.7101,-7.7101,-7.7101,-6.4672,-6.4672,-6.4672,-6.4672,-6.4672,-6.4809,-6.5145,-6.5649,-6.6684,-6.8546,-7.0186,-7.1578,-7.2546,-7.2984,-7.3446,-7.416,-7.4197,-7.4197,-7.4197,-7.4197,-7.4197,-7.4197,-7.4197,-7.4197,-7.4197,-7.4197,-7.4197,-7.4197,-7.4197,-7.4197,-7.4197,-7.4197,-7.4197,-7.4197,-7.4197,-7.4197,-7.4197,-7.4197,-7.4197,-7.4197,-7.4197,-7.4197,-7.4122,-7.3409,-7.2545,-7.1569,-7.0592,-6.9804,-6.9359,-7.0337,-7.0327,-6.9999,-7.0539,-7.0769,-7.0953,-7.1236,-7.1291,-7.1291,-7.1291,-7.1291,-7.1291,-7.1291,-7.1291,-7.1098,0.0,0.0,0.0,-6.8119,-6.7152,-6.6486,-6.66,-6.6502,-6.6373,-6.626,-6.6392,-6.6431,-6.6275,-6.6507,-6.6642,-6.6642,-6.6642,-6.6642,-6.6642,-6.7475,-6.8644,-7.0234,-7.1199,-7.1802,-7.1987,-7.1987,-7.1987,-7.1987,-7.1987,-7.1987,-7.1987,-7.351,-7.4369,-7.4525,-7.6086,-7.6945,-7.7101,-7.7101,-7.7101,-7.7101,-7.7101,-7.7101,-7.7101,-7.7101,-7.7101,-7.7101,-7.7101,-7.7101,-7.7101,-7.7101,-7.7101,-7.7101,-6.4672,-6.4672,-6.4672,-6.4672,-6.4672,-6.4809,-6.5145,-6.6111,-6.7873,-7.0901,-7.1495,-7.2206,-7.3794,-7.4024,-7.4085,-7.4197,-7.4197,-7.4197,-7.4197,-7.4197,-7.4197,-7.4197,-7.4197,-7.4197,-7.4197,-7.4197,-7.4197,-7.4197,-7.4197,-7.4197,-7.4197,-7.4197,-7.4197,-7.4197,-7.4197,-7.4197,-7.4197,-7.4197,-7.4197,-7.4197,-7.4197,-7.4197,-7.4197,-7.4085,-7.3071,-7.1494,-6.9895,-6.9257,-6.9241,-6.9359,-6.9796,-7.0271,-7.0337,-7.0755,-7.1258,-7.128,-7.1291,-7.1291,-7.1291,-7.1291,-7.1291,-7.1291,-7.1291,-7.1253,-7.1175,0.0,-6.9821,-6.9744,0.0,-6.7376,-6.7444,0.0,0.0,-6.5444,-6.6003,-6.6237,-6.5452,-6.6033,-6.6521,-6.6521,-6.6521,-6.6521,-6.6521,-6.7342,-6.8327,-6.9375,-7.0273,-7.1125,-7.1951,-7.1987,-7.1987,-7.1987,-7.1987,-7.1987,-7.1987,-7.2963,-7.3783,-7.4525,-7.5462,-7.636,-7.7101,-7.7101,-7.7101,-7.7101,-7.7101,-7.7101,-7.7101,-7.7101,-7.7101,-7.7101,-7.7101,-7.7101,-7.7101,-7.7101,-7.7101,-7.7101,-6.4672,-6.4672,-6.4672,-6.4672,0.0,0.0,0.0,0.0,-6.9989,-7.1806,-7.2696,-7.3428,-7.4113,-7.4197,-7.4197,-7.4197,-7.4197,-7.4197,-7.4197,-7.4197,-7.4197,-7.4197,-7.4197,-7.4197,-7.4197,-7.4197,-7.4197,-7.4197,-7.4197,-7.4197,-7.4197,-7.4197,-7.4197,-7.4197,-7.4197,-7.4197,-7.4197,-7.4197,-7.4197,-7.4197,-7.4197,-7.4197,-7.4197,-7.4197,-7.3183,-7.1471,-6.9782,-6.9181,-6.9225,-6.946,-6.9759,-7.0068,-7.0478,-7.0769,-7.1067,-7.1247,-7.1291,-7.1291,-7.1291,-7.1291,-7.1291,-7.1291,-7.1291,-7.1291,-7.1291,-7.0634,-6.9976,-6.9976,0.0,0.0,0.0,0.0,0.0,0.0,-6.6586,-6.6353,-6.6003,-6.6275,-6.6508,-6.6508,-6.6508,-6.6508,-6.6508,-6.7352,-6.8275,-6.9162,-7.0072,-7.0975,-7.1907,-7.1965,-7.1987,-7.1987,-7.1987,-7.1987,-7.1987,-7.2846,-7.3705,-7.4525,-7.5384,-7.6242,-7.7101,-7.7101,-7.7101,-7.7101,-7.7101,-7.7101,-7.7101,-7.7101,-7.7101,-7.7101,-7.7101,-7.7101,-7.7101,-7.7101,-7.7101,-7.7101,-6.4672,-6.4672,-6.4672,-6.4672,-6.4882,0.0,-6.7145,-6.9552,-7.1544,-7.2496,-7.3415,-7.408,-7.4174,-7.4197,-7.4197,-7.4197,-7.4197,-7.4197,-7.4197,-7.4197,-7.4197,-7.4197,-7.4197,-7.4197,-7.4197,-7.4197,-7.4197,-7.4197,-7.4197,-7.4197,-7.4197,-7.4197,-7.4197,-7.4197,-7.4197,-7.4197,-7.4197,-7.4197,-7.4197,-7.4197,-7.4197,-7.4197,-7.416,-7.3709,-7.277,-7.1471,-6.9782,-6.9181,-6.9268,-6.9681,-6.9853,-7.0015,-7.0613,-7.0875,-7.0979,-7.1247,-7.1291,-7.1291,-7.1291,-7.1291,-7.1291,-7.1291,-7.1291,-7.1291,-7.1291,-7.0789,-7.0374,-7.0384,-6.9768,0.0,0.0,0.0,-6.8014,-6.7822,0.0,-6.713,-6.6897,-6.7052,-6.7052,-6.6547,-6.6508,-6.6508,-6.6508,-6.7314,-6.826,-6.9138,-7.0052,-7.0976,-7.1872,-7.1978,-7.1963,-7.1987,-7.1963,-7.1963,-7.1987,-7.2612,-7.3471,-7.4525,-7.5149,-7.6047,-7.7101,-7.7101,-7.7101,-7.7101,-7.7101,-7.7101,-7.7101,-7.7101,-7.7101,-7.7101,-7.7101,-7.7101,-7.7101,-7.7101,-7.7101,-7.7101,-6.4672,-6.4672,-6.4672,-6.4672,-6.5338,-6.6773,-6.9461,-7.08,-7.1985,-7.3278,-7.3503,-7.3691,-7.4151,-7.4197,-7.4197,-7.4197,-7.4197,-7.4197,-7.4197,-7.4197,-7.4197,-7.4197,-7.4197,-7.4197,-7.4197,-7.4197,-7.4197,-7.4197,-7.4197,-7.4197,-7.4197,-7.4197,-7.4197,-7.4197,-7.4197,-7.4197,-7.4197,-7.4197,-7.4197,-7.4197,-7.4197,-7.4197,-7.4009,-7.2395,-7.1757,-7.1471,-6.9782,-6.9181,-6.9268,-6.9681,-7.0035,-7.0353,-7.0686,-7.1004,-7.128,-7.1291,-7.1291,-7.1291,-7.1291,-7.1291,-7.1291,-7.1291,-7.1291,-7.1291,-7.1291,-7.1291,-7.1274,-7.1327,-7.0679,-7.0099,-7.0231,-6.955,-6.8713,-6.7946,-6.849,0.0,0.0,-6.849,-6.8412,-6.6703,-6.6508,-6.6508,-6.6508,-6.7293,-6.8202,-6.9135,-7.0001,-7.0931,-7.1956,-7.1947,-7.1949,-7.199,-7.1947,-7.1948,-7.1987,-7.2026,-7.2885,-7.4486,-7.4525,-7.5423,-7.7101,-7.7101,-7.7101,-7.7101,-7.7101,-7.7101,-7.7101,-7.7101,-7.7101,-7.7101,-7.7101,-7.7101,-7.7101,-7.7101,-7.7101,-7.7101,-6.5373,-6.5478,-6.5652,-6.6089,-6.6401,-6.7565,-7.0616,-7.1812,-7.2727,-7.3838,-7.3971,-7.4019,-7.4174,-7.4197,-7.4197,-7.4197,-7.4197,-7.4197,-7.4197,-7.4197,-7.4197,-7.4197,-7.4197,-7.4197,-7.4197,-7.4197,-7.4197,-7.4197,-7.4197,-7.4197,-7.4197,-7.4197,-7.4197,-7.4197,-7.4197,-7.4197,-7.4197,-7.4197,-7.4197,-7.4197,-7.4197,-7.4197,-7.4009,-7.2357,-7.1719,-7.1471,-6.9782,-6.9181,-6.931,-6.9907,-7.005,-7.0103,-7.0902,-7.1067,-7.1004,-7.1247,-7.1291,-7.1291,-7.1291,-7.1291,-7.1291,-7.1291,-7.1291,-7.1291,-7.1291,-7.1291,-7.1313,-7.1405,-7.1213,-7.1058,-7.1123,-7.0468,-6.9756,-6.95,-6.9267,-6.8995,0.0,-6.8917,-6.8878,-6.8296,-6.8218,-6.8218,-6.8218,-6.849,-6.9002,-6.9844,-7.0235,-7.0848,-7.1753,-7.1809,-7.187,-7.1949,-7.1913,-7.1949,-7.1987,-7.1987,-7.2846,-7.4486,-7.4486,-7.5423,-7.7101,-7.7101,-7.7101,-7.7101,-7.7101,-7.7101,-7.7101,-7.7101,-7.7101,-7.7101,-7.7101,-7.7101,-7.7101,-7.7101,-7.7101,-7.7101,-6.5794,-6.611,-6.6426,-6.6835,-6.7349,-6.8602,-7.1256,-7.2291,-7.313,-7.4104,-7.4197,-7.4197,-7.4197,-7.4197,-7.4197,-7.4197,-7.4197,-7.4197,-7.4197,-7.4197,-7.4197,-7.4197,-7.4197,-7.4197,-7.4197,-7.4197,-7.4197,-7.4197,-7.4197,-7.4197,-7.4197,-7.4197,-7.4197,-7.4197,-7.4197,-7.4197,-7.4197,-7.4197,-7.4197,-7.4197,-7.4197,-7.4009,-7.3596,-7.2245,-7.1719,-7.1471,-6.9782,-6.9181,-6.9294,-7.0068,-7.0154,-7.012,-7.1004,-7.1151,-7.1004,-7.1247,-7.1291,-7.1291,-7.1291,-7.1291,-7.1291,-7.1291,-7.1291,-7.1291,-7.1291,-7.1313,-7.1334,-7.1435,-7.1465,-7.1513,-7.1577,-7.1137,-7.0765,-7.0782,0.0,-7.0005,0.0,-7.0005,-7.0005,-7.0005,-6.9461,-6.9111,-6.9111,-6.9344,-6.9757,-7.0283,-7.0641,-7.1136,-7.1716,-7.1741,-7.1789,-7.1869,-7.187,-7.1914,-7.1975,-7.1997,-7.2846,-7.4486,-7.4486,-7.5423,-7.7101,-7.7101,-7.7101,-7.7101,-7.7101,-7.7101,-7.7101,-7.7101,-7.7101,-7.7101,-7.7101,-7.7101,-7.7101,-7.7101,-7.7101,-7.7101,-6.6005,-6.6637,-6.7164,-6.7164,-6.8359,-6.9908,-7.1569,-7.2426,-7.3156,-7.4104,-7.4197,-7.4197,-7.4197,-7.4197,-7.4197,-7.4197,-7.4197,-7.4197,-7.4197,-7.4197,-7.4197,-7.4197,-7.4197,-7.4197,-7.4197,-7.4197,-7.4197,-7.4197,-7.4197,-7.4197,-7.4197,-7.4197,-7.4197,-7.4197,-7.4197,-7.4197,-7.4197,-7.4197,-7.4197,-7.4197,-7.416,-7.3634,-7.2808,-7.1982,-7.1644,-7.1456,-6.9782,-6.9181,-6.9332,-7.0033,-7.0304,-7.0394,-7.1091,-7.128,-7.1291,-7.1291,-7.1291,-7.1291,-7.1291,-7.1291,-7.1291,-7.1291,-7.1291,-7.1291,-7.1302,-7.1334,-7.1435,-7.1485,-7.1494,-7.1523,-7.1581,-7.1603,-7.1586,0.0,0.0,-7.1598,-7.1598,-7.1598,-7.1598,-7.1598,-7.0199,-6.9228,-6.9228,-6.9927,-7.0377,-7.0436,-7.1227,-7.1736,-7.178,-7.175,-7.1741,-7.1786,-7.1789,-7.1813,-7.1914,-7.1975,-7.2849,-7.4486,-7.4486,-7.5423,-7.7101,-7.7101,-7.7101,-7.7101,-7.7101,-7.7101,-7.7101,-7.7101,-7.7101,-7.7101,-7.7101,-7.7101,-7.7101,-7.7101,-7.7101,-7.7101,-6.748,-6.8646,-6.9527,-6.9527,-7.0666,-7.1801,-7.2418,-7.3104,-7.3703,-7.4151,-7.4197,-7.4197,-7.4197,-7.4197,-7.4197,-7.4197,-7.4197,-7.4197,-7.4197,-7.4197,-7.4197,-7.4197,-7.4197,-7.4197,-7.4197,-7.4197,-7.4197,-7.4197,-7.4197,-7.4197,-7.4197,-7.4197,-7.4197,-7.4197,-7.4197,-7.4197,-7.4197,-7.4197,-7.4197,-7.416,-7.3484,-7.3108,-7.2733,-7.1343,-7.0818,-7.0668,-6.9594,-6.9181,-6.9268,-6.9759,-7.0085,-7.0385,-7.0821,-7.1104,-7.1291,-7.1291,-7.1291,-7.1291,-7.1291,-7.1291,-7.1291,-7.1291,-7.1291,-7.1302,-7.1345,-7.1405,-7.1445,-7.1571,-7.158,-7.1568,-7.1589,-7.1589,-7.1589,-7.1598,-7.1598,-7.1598,-7.1598,-7.1598,-7.1598,-7.1598,-7.1209,-7.0976,-7.0976,-7.1131,-7.1264,-7.1272,-7.1505,-7.1644,-7.164,-7.1644,-7.1654,-7.1741,-7.1741,-7.1774,-7.1914,-7.1913,-7.2801,-7.4486,-7.4486,-7.5423,-7.7101,-7.7101,-7.7101,-7.7101,-7.7101,-7.7101,-7.7101,-7.7101,-7.7101,-7.7101,-7.7101,-7.7101,-7.7101,-7.7101,-7.7101,-7.7179,-6.8112,-6.9389,-7.0339,-6.9991,-7.1386,-7.2556,-7.2743,-7.2852,-7.3235,-7.4104,-7.4197,-7.4197,-7.4197,-7.4197,-7.4197,-7.4197,-7.4197,-7.4197,-7.4197,-7.4197,-7.4197,-7.4197,-7.4197,-7.4197,-7.4197,-7.4197,-7.4197,-7.4197,-7.4197,-7.4197,-7.4197,-7.4197,-7.4197,-7.4197,-7.4197,-7.4197,-7.4197,-7.4197,-7.4197,-7.4122,-7.3258,-7.2695,0.0,-7.0968,-7.0255,-6.9879,-6.9369,-6.9181,-6.9268,-6.9681,-6.9997,-7.0369,-7.0686,-7.1016,-7.1291,-7.1291,-7.1291,-7.1291,-7.1291,-7.1291,-7.1291,-7.1291,-7.1291,-7.1313,-7.1366,-7.1435,-7.1475,-7.1589,-7.1598,-7.1616,-7.1589,-7.1581,-7.1611,-7.1598,-7.1598,-7.1598,-7.1598,-7.1598,-7.1598,-7.1598,-7.1598,-7.1598,-7.1598,-7.1598,-7.1598,-7.1598,-7.1598,-7.1598,-7.1598,-7.1598,-7.1606,-7.1654,-7.1671,-7.1737,-7.1866,-7.1874,-7.2768,-7.4486,-7.4486,-7.5423,-7.7101,-7.7101,-7.7101,-7.7101,-7.7101,-7.7101,-7.7101,-7.7101,-7.7101,-7.7101,-7.7101,-7.7101,-7.7101,-7.7101,-7.7101,-7.7218,-6.8357,-6.953,-7.0373,-6.9742,-7.1286,-7.266,-7.2916,-7.2455,-7.2586,-7.4019,-7.4197,-7.4197,-7.4197,-7.4197,-7.4197,-7.4197,-7.4197,-7.4197,-7.4197,-7.4197,-7.4197,-7.4197,-7.4197,-7.4197,-7.4197,-7.4197,-7.4197,-7.4197,-7.4197,-7.4197,-7.4197,0.0,0.0,-7.4197,-7.4197,-7.4197,-7.4197,-7.4197,-7.4122,-7.3972,-7.3108,-7.2245,-7.1456,-7.063,-6.9879,-6.9181,-6.9181,-6.9181,-6.9246,-6.9602,-6.9961,-7.0369,-7.0643,-7.0991,-7.1291,-7.1291,-7.1291,-7.1291,-7.1291,-7.1291,-7.1291,-7.1291,-7.1302,-7.1324,-7.1415,-7.1465,-7.1513,-7.1607,-7.1616,-7.1586,-7.1589,-7.1603,-7.1586,-7.1589,-7.1598,-7.1598,-7.1598,-7.1598,-7.1598,-7.1598,-7.1598,0.0,-7.1598,-7.1598,-7.1598,-7.1598,-7.1598,-7.1598,-7.1598,-7.1598,-7.1598,-7.1598,-7.1673,-7.1746,-7.178,-7.1869,-7.2769,-7.4496,-7.4488,-7.5423,-7.7101,-7.7101,-7.7101,-7.7101,-7.7101,-7.7101,-7.7101,-7.7101,-7.7101,-7.7101,-7.7101,-7.7101,-7.7101,-7.7101,-7.7179,-7.7375,-6.9165,-7.03,-7.1195,-7.1067,-7.1908,-7.2834,-7.3515,-7.3616,-7.3764,-7.4151,-7.4197,-7.4197,-7.4197,-7.4197,-7.4197,-7.4197,-7.4197,-7.4197,-7.4197,-7.4197,-7.4197,-7.4197,-7.4197,-7.4197,-7.4197,-7.4197,-7.4197,-7.4197,-7.4197,-7.4197,-7.4197,-7.4197,-7.4197,-7.4197,-7.4197,-7.4197,-7.4197,-7.4197,-7.3784,-7.3071,-7.2245,-7.1419,-7.063,-6.9766,-6.9332,-6.9181,-6.9181,-6.9181,-6.9203,-6.9289,-6.9778,-7.032,-7.0385,-7.0796,-7.1291,-7.1291,-7.1291,-7.1291,-7.1291,-7.1291,-7.1291,-7.1291,-7.1324,-7.1415,-7.1465,-7.1513,-7.1607,-7.162,-7.1589,-7.1589,-7.1598,-7.1589,-7.1589,-7.1598,-7.1598,-7.1598,-7.1598,-7.1598,-7.1598,-7.1598,-7.1598,-7.1598,-7.1598,-7.1598,-7.1598,-7.1598,-7.1598,-7.1598,-7.1598,-7.1598,-7.1598,-7.1598,-7.1673,-7.1711,-7.1731,-7.1859,-7.2773,-7.449,-7.4506,-7.5423,-7.7101,-7.7101,-7.7101,-7.7101,-7.7101,-7.7101,-7.7101,-7.7101,-7.7101,-7.7101,-7.7101,-7.7101,-7.7101,-7.7101,-7.757,-7.8311,-6.9412,-7.02,-7.0872,-7.0872,-7.1872,-7.2834,-7.322,-7.3777,-7.4127,-7.4174,-7.4197,-7.4197,-7.4197,-7.4197,-7.4197,-7.4197,-7.4197,-7.4197,-7.4197,-7.4197,-7.4197,-7.4197,-7.4197,-7.4197,-7.4197,-7.4197,-7.4197,-7.4197,-7.4197,-7.4197,-7.4197,-7.4197,-7.4197,-7.4197,-7.4197,-7.4197,-7.416,-7.3709,-7.3296,-7.2808,-7.1569,-7.0855,-7.0405,-6.9519,-6.9181,-6.9181,-6.9181,-6.9181,-6.9181,-6.9181,-6.9701,-7.032,-7.032,-7.0755,-7.1291,-7.1291,-7.1291,-7.1291,-7.1291,-7.1291,-7.1291,-7.1291,-7.1334,-7.1425,-7.1485,-7.1571,-7.1616,-7.1589,-7.1598,-7.1598,-7.1598,-7.1598,-7.1598,-7.1598,-7.1598,-7.1598,-7.1598,-7.1598,-7.1598,-7.1598,-7.1598,-7.1598,-7.1598,-7.1598,-7.1598,-7.1598,-7.1598,-7.1598,-7.1598,-7.1598,-7.1598,-7.1598,-7.1673,-7.1726,-7.1741,-7.1864,-7.2772,-7.4518,-7.4499,-7.5423,-7.7101,-7.7101,-7.7101,-7.7101,-7.7101,-7.7101,-7.7101,-7.7101,-7.7101,-7.7101,-7.7101,-7.7101,-7.7101,-7.7101,-7.7642,-7.853,-6.9412,-7.0026,-7.0609,-7.0609,-7.1932,-7.2997,-7.2997,-7.3691,-7.4197,-7.4197,-7.4197,-7.4197,-7.4197,-7.4197,-7.4197,-7.4197,-7.4197,-7.4197,-7.4197,-7.4197,-7.4197,-7.4197,-7.4197,-7.4197,-7.4197,-7.4197,-7.4197,-7.4197,-7.4197,-7.4122,-7.3934,-7.4122,-7.4197,-7.4197,-7.4197,-7.4197,-7.416,-7.3258,-7.2808,-7.2507,-7.1081,-7.0405,-7.0142,-6.9444,-6.9181,-6.9181,-6.9181,-6.9181,-6.9181,-6.9181,-6.9701,-7.032,-7.032,-7.0755,-7.1291,-7.1291,-7.1291,-7.1291,-7.1291,-7.1291,-7.1291,-7.1291,-7.1345,-7.1445,-7.1485,-7.1541,-7.1594,-7.1589,-7.1598,-7.1598,-7.1598,-7.1598,-7.1598,-7.1598,-7.1598,-7.1598,-7.1598,-7.1598,-7.1598,-7.1598,-7.1598,-7.1598,-7.1598,-7.1598,-7.1598,-7.1598,-7.1598,-7.1598,-7.1598,-7.1598,-7.1598,-7.1598,-7.1659,-7.1725,-7.1771,-7.1872,-7.2805,-7.4501,-7.4491,-7.5423,-7.7101,-7.7101,-7.7101,-7.7101,-7.7101,-7.7101,-7.7101,-7.7101,-7.7101,-7.7101,-7.7101,-7.7101,-7.7101,-7.7101,-7.7752,-7.8788,-6.9412,-7.0406,-7.1323,-7.1323,-7.2641,-7.3703,-7.3703,-7.4009,-7.4197,-7.4197,-7.4197,-7.4197,-7.4197,-7.4197,-7.4197,-7.4197,-7.4197,-7.4197,-7.4197,-7.4197,-7.4197,-7.4197,-7.4197,-7.4197,-7.4197,-7.4197,-7.4197,-7.4197,-7.4197,-7.3822,-7.3033,-7.3822,-7.4197,-7.4197,-7.4197,-7.4197,-7.416,-7.3258,-7.247,-7.1757,-7.0855,-7.0029,-6.9294,-6.9219,-6.9181,-6.9181,-6.9181,-6.9181,-6.9181,-6.9181,-6.9701,-7.032,-7.032,-7.0755,-7.1291,-7.1291,-7.1291,-7.1291,-7.1291,-7.1291,-7.1291,-7.1291,-7.1415,-7.1485,-7.1494,-7.1568,-7.1598,-7.1598,-7.1598,-7.1598,-7.1598,-7.1598,-7.1598,-7.1598,-7.1598,-7.1598,-7.1598,-7.1598,-7.1598,-7.1598,-7.1598,-7.1598,-7.1598,-7.1598,-7.1598,-7.1598,-7.1598,-7.1598,-7.1598,-7.1598,-7.1598,-7.1598,-7.1702,-7.1757,-7.1716,-7.1914,-7.2834,-7.4491,-7.4508,-7.5423,-7.7101,-7.7101,-7.7101,-7.7101,-7.7101,-7.7101,-7.7101,-7.7101,-7.7101,-7.7101,-7.7101,-7.7101,-7.7101,-7.7101,-7.8143,-7.9572,-6.992,-7.0406,-7.1035,-7.1848,-7.2669,-7.3361,-7.3765,-7.4033,-7.4197,-7.4197,-7.4197,-7.4197,-7.4197,-7.4197,-7.4197,-7.4197,-7.4197,-7.4197,-7.4197,-7.4197,-7.4197,-7.4197,-7.4197,-7.4197,-7.4197,-7.4197,-7.4197,-7.4197,-7.4197,-7.4009,-7.3709,-7.4047,-7.4197,-7.4197,-7.4197,-7.3897,-7.3371,-7.2545,-7.1719,-7.093,-7.0067,-6.9504,-6.9181,-6.9181,-6.9181,-6.9181,-6.9181,-6.9181,-6.9225,-6.946,-6.9871,-7.032,-7.032,-7.0755,-7.1291,-7.1291,-7.1291,-7.1291,-7.1291,-7.1291,-7.1302,-7.1334,-7.1435,-7.1504,-7.1571,-7.1594,-7.1598,-7.1598,-7.1598,-7.1598,-7.1598,-7.1598,-7.1598,-7.1598,-7.1598,-7.1598,-7.1598,-7.1598,-7.1598,-7.1598,-7.1598,-7.1598,-7.1598,-7.1598,-7.1598,-7.1598,-7.1598,-7.1598,-7.1598,-7.1598,-7.1598,-7.1598,-7.175,-7.178,-7.1749,-7.1912,-7.2856,-7.4513,-7.4496,-7.5423,-7.7101,-7.7101,-7.7101,-7.7101,-7.7101,-7.7101,-7.7101,-7.7101,-7.7101,-7.7101,-7.7101,-7.7101,-7.7176,-7.7674,-7.8632,-7.9704,-6.9991,-7.0406,-7.097,-7.1938,-7.2641,-7.3193,-7.3703,-7.4009,-7.4151,-7.4174,-7.4197,-7.4197,-7.4197,-7.4197,-7.4197,-7.4197,-7.4197,-7.4197,-7.4197,-7.4197,-7.4197,-7.4197,-7.4197,-7.4197,-7.4197,-7.4197,-7.4197,-7.4197,-7.4197,-7.4085,-7.3822,-7.3822,-7.3972,-7.4197,-7.3934,-7.3484,-7.2845,-7.1794,-7.1006,-7.0405,-6.9541,-6.9181,-6.9181,-6.9181,-6.9181,-6.9181,-6.9181,-6.9181,-6.9246,-6.9521,-6.9907,-7.0337,-7.0432,-7.0823,-7.1291,-7.1291,-7.1291,-7.1291,-7.1291,-7.1291,-7.1264,-7.1046,-7.1068,-7.1155,-7.1201,-7.1215,-7.1287,-7.1559,-7.1598,-7.1598,-7.1598,-7.1598,-7.1598,-7.1598,-7.1598,-7.1598,-7.1598,-7.1598,-7.1598,-7.1598,-7.1598,-7.1598,-7.1598,-7.1598,-7.1598,-7.1598,-7.1598,-7.1598,-7.1598,-7.1598,-7.1622,-7.1629,-7.1725,-7.18,-7.1813,-7.1945,-7.2846,-7.4486,-7.4486,-7.5423,-7.7101,-7.7101,-7.7101,-7.7101,-7.7101,-7.7101,-7.7101,-7.7101,-7.7101,-7.7101,-7.7101,-7.7101,-7.7215,-7.8093,-7.8893,-7.973,-6.9412,-7.0474,-7.1386,-7.1417,-7.2613,-7.3665,-7.379,-7.3937,-7.4056,-7.4174,-7.4197,-7.4197,-7.4197,-7.4197,-7.4197,-7.4197,-7.4197,-7.4197,-7.4197,-7.4197,-7.4197,-7.4197,-7.4197,-7.4197,-7.4197,-7.4197,-7.4197,-7.4197,-7.4197,-7.3747,-7.2921,-7.2921,-7.3371,-7.416,-7.3296,-7.2921,-7.2808,-7.1193,-7.0517,-7.0405,-6.9541,-6.9181,-6.9181,-6.9181,-6.9181,-6.9181,-6.9181,-6.9181,-6.9181,-6.9203,-6.9663,-7.0369,-7.0686,-7.1042,-7.1291,-7.1291,-7.1291,-7.1291,-7.1291,-7.1291,-7.1109,-7.031,-7.0176,-7.0233,-7.0317,-7.0322,-7.0549,-7.1403,-7.1598,-7.1598,-7.1598,-7.1598,-7.1598,-7.1598,-7.1598,-7.1598,-7.1598,-7.1598,-7.1598,-7.1598,-7.1598,-7.1598,-7.1598,-7.1598,-7.1598,-7.1598,-7.1598,-7.1598,-7.1598,-7.1598,-7.1637,-7.1694,-7.1757,-7.1815,-7.1914,-7.1973,-7.2846,-7.4486,-7.4486,-7.5423,-7.7101,-7.7101,-7.7101,-7.7101,-7.7101,-7.7101,-7.7101,-7.7101,-7.7101,-7.7101,-7.7101,-7.7101,-7.7215,-7.8093,-7.8893,-7.9734,-6.9991,-7.0773,-7.1542,-7.1998,-7.2926,-7.3665,-7.379,-7.3937,-7.4056,-7.4174,-7.4197,-7.4197,-7.4197,-7.4197,-7.4197,-7.4197,-7.4197,-7.4197,-7.4197,-7.4197,-7.4197,-7.4197,-7.4197,-7.4197,-7.4197,-7.4197,-7.4197,-7.4197,-7.4197,-7.4085,-7.3784,-7.3784,-7.3934,-7.416,-7.3296,-7.2583,-7.2019,-7.093,-7.0142,-6.9616,-6.9294,-6.9181,-6.9181,-6.9181,-6.9181,-6.9181,-6.9181,-6.9181,-6.9289,-6.9778,-7.012,-7.0416,-7.0966,-7.1197,-7.1291,-7.1291,-7.1291,-7.1175,-7.0556,-7.0402,-7.023,-6.9469,-6.9304,-6.9341,-6.9459,-6.9919,-7.0393,-7.0665,-7.117,-7.1598,-7.1598,-7.1598,-7.1598,-7.1598,-7.1598,-7.1598,-7.1598,-7.1598,-7.1598,-7.1598,-7.1598,-7.1598,-7.1598,-7.1598,-7.1598,-7.1598,-7.1598,-7.1598,-7.1598,-7.1598,-7.1622,-7.1637,-7.1725,-7.18,-7.1815,-7.1945,-7.2846,-7.4486,-7.4486,-7.5423,-7.7101,-7.7101,-7.7101,-7.7101,-7.7101,-7.7101,-7.7101,-7.7101,-7.7101,-7.7101,-7.7101,-7.7095,-7.7277,-7.8698,-7.9378,-7.9783,-7.0339,-7.1131,-7.1908,-7.2328,-7.3007,-7.3589,-7.3715,-7.3839,-7.3985,-7.4104,-7.4174,-7.4197,-7.4197,-7.4197,-7.4197,-7.4197,-7.4197,-7.4197,-7.4197,-7.4197,-7.4197,-7.4197,-7.4197,-7.4197,-7.4197,-7.4197,-7.4197,-7.4197,-7.4197,-7.4197,-7.4197,-7.4197,-7.4047,-7.3672,-7.2845,-7.2019,-7.1193,-7.0367,-6.9691,-6.9181,-6.9181,-6.9181,-6.9181,-6.9181,-6.9181,-6.9181,-6.9181,-6.9181,-6.931,-6.9889,-7.0205,-7.0416,-7.0941,-7.1186,-7.1291,-7.1291,-7.1059,-7.0672,-7.0131,-6.9783,-6.9389,-6.8597,-6.8431,-6.8458,-6.8582,-6.9267,-6.9927,-7.0238,-7.0743,-7.1209,-7.152,-7.1598,-7.1598,-7.1598,-7.1598,-7.1598,-7.1598,-7.1598,-7.1598,-7.1598,-7.1598,-7.1598,-7.1598,-7.1598,-7.1598,-7.1598,-7.1598,-7.1598,-7.1598,-7.1598,-7.1591,-7.1651,-7.1729,-7.1802,-7.1858,-7.1943,-7.2846,-7.4525,-7.5149,-7.6047,-7.7101,-7.7101,-7.7101,-7.7101,-7.7101,-7.7101,-7.7101,-7.7101,-7.7101,-7.7101,-7.7101,-7.7092,-7.7305,-7.8963,-7.9598,-7.9845,-7.0371,-7.148,-7.2414,-7.2414,-7.2926,-7.3424,-7.3589,-7.3715,-7.3864,-7.3985,-7.4127,-7.4197,-7.4197,-7.4197,-7.4197,-7.4197,-7.4197,-7.4197,-7.4197,-7.4197,-7.4197,-7.4197,-7.4197,-7.4197,-7.4197,-7.4197,-7.4197,-7.4197,-7.4197,-7.4197,-7.4197,-7.416,-7.3672,-7.2845,-7.2019,-7.1193,-7.0442,-6.9557,-6.9181,-6.9181,-6.9181,-6.9181,-6.9181,-6.9181,-6.9181,-6.9181,-6.9181,-6.9181,-6.9268,-6.97,-7.0033,-7.0369,-7.0714,-7.1067,-7.1291,-7.1291,-7.0672,-6.9976,-6.9938,-6.9319,-6.8537,-6.7706,-6.751,-6.7575,-6.7697,-6.8373,-6.9228,-7.0044,-7.0277,-7.0588,-7.1442,-7.1598,-7.1598,-7.1598,-7.1598,-7.1598,-7.1598,-7.1598,-7.1598,-7.1598,-7.1598,-7.1598,-7.1598,-7.1598,-7.1598,-7.1598,-7.1598,-7.1598,-7.1598,-7.1598,-7.1629,-7.1683,-7.1749,-7.1811,-7.1875,-7.1977,-7.2851,-7.4525,-7.6281,-7.7101,-7.7101,-7.7101,-7.7101,-7.7101,-7.7101,-7.7101,-7.7101,-7.7101,-7.7101,-7.7101,-7.7101,-7.7089,-7.7301,-7.8958,-7.9598,-7.984,-7.0371,-7.148,-7.2414,-7.2414,-7.2926,-7.3424,-7.3589,-7.3715,-7.3864,-7.3985,-7.4127,-7.4197,-7.4197,-7.4197,-7.4197,-7.4197,-7.4197,-7.4197,-7.4197,-7.4197,-7.4197,-7.4197,-7.4197,-7.4197,-7.4197,-7.4197,-7.4197,-7.4197,-7.4197,-7.4197,-7.4197,-7.3521,-7.3108,-7.2845,-7.1419,-7.0668,-7.0442,-6.9557,-6.9181,-6.9181,-6.9181,-6.9181,-6.9181,-6.9181,-6.9181,-6.9181,-6.9181,-6.9181,-6.931,-6.9961,-7.0238,-7.0416,-7.0991,-7.1247,-7.1291,-7.1291,-7.0672,-6.986,-6.9241,-6.8499,-6.7697,-6.691,-6.67,-6.6757,-6.6812,-6.748,-6.8334,-6.9228,-6.9888,-7.0588,-7.1442,-7.1598,-7.1598,-7.1598,-7.1598,-7.1598,-7.1598,-7.1598,-7.1598,-7.1598,-7.1598,-7.1598,-7.1598,-7.1598,-7.1598,-7.1598,-7.1598,-7.1598,-7.1598,-7.1598,-7.1622,-7.1622,-7.1683,-7.1745,-7.1809,-7.1874,-7.2801,-7.4525,-7.6281,-7.7101,-7.7101,-7.7101,-7.7101,-7.7101,-7.7101,-7.7101,-7.7101,-7.7101,-7.7101,-7.7101,-7.7101,-7.7082,-7.7246,-7.8954,-7.9588,-7.9772,-7.0839,-7.1938,-7.2844,-7.2844,-7.3151,-7.3398,-7.3513,-7.369,-7.3839,-7.3912,-7.408,-7.4197,-7.4197,-7.4197,-7.4197,-7.4197,-7.4197,-7.4197,-7.4197,-7.4197,-7.4197,-7.4197,-7.4197,-7.4197,-7.4197,-7.4197,-7.4197,-7.4197,-7.4197,-7.4197,-7.4197,-7.3296,-7.2695,-7.232,-7.1043,-7.0292,-6.9879,-6.9407,-6.9181,-6.9181,-6.9181,-6.9181,-6.9181,-6.9181,-6.9181,-6.9181,-6.9181,-6.9181,-6.9294,-7.0068,-7.032,-7.0432,-7.1104,-7.1291,-7.1214,-7.0827,-7.0092,-6.928,-6.8429,-6.7619,-6.6903,-6.651,-6.6461,-6.6508,-6.6508,-6.6858,-6.7557,-6.8839,-6.9461,-7.0121,-7.1365,-7.1598,-7.1598,-7.1598,-7.1598,-7.1598,-7.1598,-7.1598,-7.1598,-7.1598,-7.1598,-7.1598,-7.1598,-7.1598,-7.1598,-7.1598,-7.1598,-7.1598,-7.1598,-7.1598,-7.1598,-7.1598,-7.1689,-7.1753,-7.1792,-7.2656,-7.3574,-7.4525,-7.6281,-7.7101,-7.7101,-7.7101,-7.7101,-7.7101,-7.7101,-7.7101,-7.7101,-7.7101,-7.7101,-7.7101,-7.7101,-7.7043,-7.7199,-7.8954,-7.9544,-7.9766,-7.1417,-7.2471,-7.3398,-7.3398,-7.3398,-7.3398,-7.3398,-7.364,-7.3815,-7.3815,-7.4033,-7.4197,-7.4197,-7.4197,-7.4197,-7.4197,-7.4197,-7.4197,-7.4197,-7.4197,-7.4197,-7.4197,-7.4197,-7.4197,-7.4197,-7.4197,-7.4197,-7.4197,-7.4197,-7.4197,-7.4197,-7.3183,-7.2357,-7.1681,-7.0705,-6.9879,-6.9181,-6.9181,-6.9181,-6.9181,-6.9181,-6.9181,-6.9181,-6.9181,-6.9181,-6.9181,-6.9181,-6.9181,-6.9294,-7.0068,-7.032,-7.0432,-7.1104,-7.1214,-7.0943,-7.0054,-6.9241,-6.8429,-6.7704,-6.6942,-6.6349,-6.6389,-6.6439,-6.6508,-6.6508,-6.6508,-6.6975,-6.8567,-6.8995,-6.9578,-7.1131,-7.152,-7.1598,-7.1598,-7.1598,-7.1598,-7.1598,-7.1598,-7.1598,-7.1598,-7.1598,-7.1598,-7.1598,-7.1598,-7.1598,-7.1598,-7.1598,-7.1598,-7.1598,-7.1598,-7.1598,-7.1598,-7.1721,-7.1774,-7.1792,-7.3588,-7.4486,-7.4525,-7.6281,-7.7101,-7.7101,-7.7101,-7.7101,-7.7101,-7.7101,-7.7101,-7.7101,-7.7101,-7.7101,-7.7101,-7.7101,-7.716,-7.7394,-7.8993,-7.9622,-7.9922,-7.1417,-7.2471,-7.3398,-7.3398,-7.3398,-7.3398,-7.3398,-7.364,-7.3815,-7.3815,-7.4033,-7.4197,-7.4197,-7.4197,-7.4197,-7.4197,-7.4197,-7.4197,-7.4197,-7.4197,-7.4197,-7.4197,-7.4197,-7.4197,-7.4197,-7.4197,-7.4197,-7.4197,-7.4197,-7.4197,-7.416,-7.262,-7.1832,-7.1644,-7.0082,-6.9332,-6.9181,-6.9181,-6.9181,-6.9181,-6.9181,-6.9181,-6.9181,-6.9181,-6.9181,-6.9181,-6.9181,-6.9181,-6.9294,-7.0068,-7.032,-7.0432,-7.1104,-7.0789,-7.0054,-6.9241,-6.839,-6.7666,-6.759,-6.7017,-6.6398,-6.6485,-6.6501,-6.6508,-6.6508,-6.6508,-6.678,-6.779,-6.8606,-6.9383,-7.0316,-7.1093,-7.1598,-7.1598,-7.1598,-7.1598,-7.1598,-7.1598,-7.1598,-7.1598,-7.1598,-7.1598,-7.1598,-7.1598,-7.1598,-7.1598,-7.1598,-7.1598,-7.1598,-7.1598,-7.1598,-7.1598,-7.1614,-7.1677,-7.1792,-7.3588,-7.4486,-7.4525,-7.6281,-7.7101,-7.7101,-7.7101,-7.7101,-7.7101,-7.7101,-7.7101,-7.7101,-7.7101,-7.7101,-7.7101,-7.7101,-7.7508,-7.8213,-7.9227,-8.0012,-8.074,-7.1323,-7.2212,-7.299,-7.3346,-7.3398,-7.3398,-7.3398,-7.364,-7.3815,-7.3815,-7.4033,-7.4197,-7.4197,-7.4197,-7.4197,-7.4197,-7.4197,-7.4197,-7.4197,-7.4197,-7.4197,-7.4197,-7.4197,-7.4197,-7.4197,-7.4197,-7.4197,-7.4197,-7.4197,-7.3972,-7.3484,-7.2282,-7.1494,-7.1006,-6.9766,-6.9181,-6.9181,-6.9181,-6.9181,-6.9181,-6.9181,-6.9181,-6.9181,-6.9181,-6.9181,-6.9181,-6.9181,-6.9181,-6.9294,-7.0068,-7.032,-7.0432,-7.1104,-7.0711,-6.9821,-6.9048,-6.7869,-6.6864,-6.6951,-6.6665,-6.6414,-6.6493,-6.6508,-6.6508,-6.6508,-6.6508,-6.6742,-6.7635,-6.849,-6.9344,-7.016,-7.1015,-7.1598,-7.1598,-7.1598,-7.1598,-7.1598,-7.1598,-7.1598,-7.1598,-7.1598,-7.1598,-7.1598,-7.1598,-7.1598,-7.1598,-7.1598,-7.1598,-7.1598,-7.1598,-7.1598,-7.1598,-7.1686,-7.1764,-7.1914,-7.3611,-7.4486,-7.4525,-7.6281,-7.7101,-7.7101,-7.7101,-7.7101,-7.7101,-7.7101,-7.7101,-7.7101,-7.7101,-7.7101,-7.7101,-7.7092,-7.7578,-7.8408,-7.9286,-8.0113,-8.0935,-7.1511,-7.2146,-7.2789,-7.332,-7.3398,-7.3398,-7.3398,-7.364,-7.3815,-7.3815,-7.4033,-7.4197,-7.4197,-7.4197,-7.4197,-7.4197,-7.4197,-7.4197,-7.4197,-7.4197,-7.4197,-7.4197,-7.4197,-7.4197,-7.4197,-7.4197,-7.4197,-7.4197,-7.4197,-7.3747,-7.2883,-7.2094,-7.1268,-7.0442,-6.9616,-6.9181,-6.9181,-6.9181,-6.9181,-6.9181,-6.9181,-6.9181,-6.9181,-6.9181,-6.9181,-6.9181,-6.9181,-6.9181,-6.9294,-7.0068,-7.032,-7.0432,-7.1104,-7.0556,-6.9589,-6.897,-6.7629,-6.6331,-6.6385,-6.6428,-6.6431,-6.6501,-6.6508,-6.6508,-6.6508,-6.6508,-6.6703,-6.7363,-6.8334,-6.9306,-6.9927,-7.0898,-7.1598,-7.1598,-7.1598,-7.1598,-7.1598,-7.1598,-7.1598,-7.1598,-7.1598,-7.1598,-7.1598,-7.1598,-7.1598,-7.1598,-7.1598,-7.1598,-7.1598,-7.1598,-7.1599,-7.1633,-7.1733,-7.1866,-7.1967,-7.3632,-7.4486,-7.4525,-7.6281,-7.7101,-7.7101,-7.7101,-7.7101,-7.7101,-7.7101,-7.7101,-7.7101,-7.7101,-7.7101,-7.7098,-7.7085,-7.7731,-7.8676,-7.9359,-8.0224,-8.1208,-7.2175,-7.2871,-7.3346,-7.3372,-7.3398,-7.3398,-7.3398,-7.364,-7.3815,-7.3815,-7.4033,-7.4197,-7.4197,-7.4197,-7.4197,-7.4197,-7.4197,-7.4197,-7.4197,-7.4197,-7.4197,-7.4197,-7.4197,-7.4197,-7.4197,-7.4197,-7.4197,-7.4197,-7.4197,-7.3747,-7.2883,-7.2094,-7.1268,-7.0442,-6.9616,-6.9181,-6.9181,-6.9181,-6.9181,-6.9181,-6.9181,-6.9181,-6.9181,-6.9181,-6.9181,-6.9181,-6.9181,-6.9181,-6.9294,-7.0068,-7.032,-7.0432,-7.1104,-7.0208,-6.8893,-6.8816,-6.7648,-6.6385,-6.6389,-6.6431,-6.6501,-6.6508,-6.6508,-6.6508,-6.6508,-6.6508,-6.6508,-6.6586,-6.7946,-6.9111,-6.9189,-7.051,-7.1598,-7.1598,-7.1598,-7.1598,-7.1598,-7.1598,-7.1598,-7.1598,-7.1598,-7.1598,-7.1598,-7.1598,-7.1598,-7.1598,-7.1598,-7.1598,-7.1598,-7.1598,-7.1654,-7.1774,-7.1786,-7.1817,-7.1914,-7.3611,-7.4486,-7.4525,-7.6281,-7.7101,-7.7101,-7.7101,-7.7101,-7.7101,-7.7101,-7.7101,-7.7101,-7.7101,-7.7101,-7.7101,-7.7098,-7.8093,-7.95,-7.9574,-8.0636,-8.2026,-7.2212,-7.2621,-7.2899,-7.332,-7.3398,-7.3424,-7.3501,-7.369,-7.3839,-7.3937,-7.408,-7.4197,-7.4197,-7.4197,-7.4197,-7.4197,-7.4197,-7.4197,-7.4197,-7.4197,-7.4197,-7.4197,-7.4197,-7.4197,-7.4197,-7.4197,-7.4197,-7.4197,-7.4197,-7.3521,-7.217,-7.1869,-7.1006,-6.9691,-6.9332,-6.9181,-6.9181,-6.9181,-6.9181,-6.9181,-6.9181,-6.9181,-6.9181,-6.9181,-6.9181,-6.9181,-6.9181,-6.9181,-6.9294,-7.0068,-7.032,-7.0317,-7.0447,-6.9705,-6.8594,-6.7619,-6.6892,-6.6394,-6.6469,-6.6493,-6.6508,-6.6508,-6.6508,-6.6508,-6.6508,-6.6508,-6.6508,-6.6508,-6.7907,-6.9111,-6.9111,-7.0471,-7.1598,-7.1598,-7.1598,-7.1598,-7.1598,-7.1598,-7.1598,-7.1598,-7.1598,-7.1598,-7.1598,-7.1598,-7.1598,-7.1598,-7.1598,-7.1598,-7.1598,-7.1598,-7.1667,-7.1789,-7.1792,-7.1865,-7.1977,-7.3637,-7.4486,-7.4525,-7.6281,-7.7101,-7.7101,-7.7101,-7.7101,-7.7101,-7.7101,-7.7101,-7.7101,-7.7101,-7.7101,-7.7098,-7.7039,-7.8074,-7.9574,-7.9539,-8.0641,-8.2104,-7.25,-7.2733,-7.2844,-7.332,-7.3398,-7.3424,-7.3589,-7.3715,-7.3864,-7.3985,-7.4127,-7.4197,-7.4197,-7.4197,-7.4197,-7.4197,-7.4197,-7.4197,-7.4197,-7.4197,-7.4197,-7.4197,-7.4197,-7.4197,-7.4197,-7.4197,-7.4197,-7.4197,-7.4197,-7.3334,-7.1719,-7.1719,-7.0796,-6.9181,-6.9181,-6.9181,-6.9181,-6.9181,-6.9181,-6.9181,-6.9181,-6.9181,-6.9181,-6.9181,-6.9181,-6.9181,-6.9181,-6.9289,-6.9481,-7.0103,-7.0385,-7.0416,-7.0085,-6.9241,-6.814,-6.6794,-6.6385,-6.6385,-6.6485,-6.6501,-6.6454,-6.6501,-6.6508,-6.6508,-6.6508,-6.6508,-6.6508,-6.6508,-6.7907,-6.9111,-6.9111,-7.0471,-7.1598,-7.1598,-7.1598,-7.1598,-7.1598,-7.1598,-7.1598,-7.1598,-7.1598,-7.1598,-7.1598,-7.1598,-7.1598,-7.1598,-7.1598,-7.1598,-7.1598,-7.1598,-7.1667,-7.1789,-7.1792,-7.1987,-7.2417,-7.3783,-7.4486,-7.4525,-7.6281,-7.7101,-7.7101,-7.7101,-7.7101,-7.7101,-7.7101,-7.7101,-7.7101,-7.7101,-7.7101,-7.7098,-7.7067,-7.8061,-7.9574,-7.9561,-8.0629,-8.2104,-7.3268,-7.3398,-7.3398,-7.3398,-7.3398,-7.3424,-7.3589,-7.3715,-7.3864,-7.3985,-7.4127,-7.4197,-7.4197,-7.4197,-7.4197,-7.4197,-7.4197,-7.4197,-7.4197,-7.4197,-7.4197,-7.4197,-7.4197,-7.4197,-7.4197,-7.4197,-7.4197,-7.4197,-7.4197,-7.3334,-7.1719,-7.1719,-7.0796,-6.9181,-6.9181,-6.9181,-6.9181,-6.9181,-6.9181,-6.9181,-6.9181,-6.9181,-6.9181,-6.9181,-6.9181,-6.9181,-6.9181,-6.944,-6.9834,-7.0188,-7.0524,-7.0721,-7.0142,-6.8854,-6.7338,-6.6597,-6.6338,-6.634,-6.6477,-6.6439,-6.6414,-6.6493,-6.6508,-6.6508,-6.6508,-6.6508,-6.6508,-6.6508,-6.7907,-6.9111,-6.9111,-7.0471,-7.1598,-7.1598,-7.1598,-7.1598,-7.1598,-7.1598,-7.1598,-7.1598,-7.1598,-7.1598,-7.1598,-7.1598,-7.1598,-7.1598,-7.1598,-7.1598,-7.1598,-7.1598,-7.1667,-7.1789,-7.1792,-7.226,-7.3275,-7.4095,-7.4486,-7.4525,-7.6281,-7.7101,-7.7101,-7.7101,-7.7101,-7.7101,-7.7101,-7.7101,-7.7101,-7.7101,-7.7101,-7.7098,-7.7082,-7.8113,-7.9613,-7.9588,-8.0647,-8.2104,-7.3268,-7.3398,-7.3398,-7.3398,-7.3398,-7.345,-7.3715,-7.379,-7.3888,-7.4104,-7.4174,-7.4197,-7.4197,-7.4197,-7.4197,-7.4197,-7.4197,-7.4197,-7.4197,-7.4197,-7.4197,-7.4197,-7.4197,-7.4197,-7.4197,-7.4197,-7.4197,-7.4197,-7.4197,-7.3334,-7.1719,-7.1719,-7.0796,-6.9181,-6.9181,-6.9181,-6.9181,-6.9181,-6.9181,-6.9181,-6.9181,-6.9181,-6.9181,-6.9181,-6.9181,-6.9181,-6.9181,-6.944,-6.9834,-7.0188,-7.0103,-6.972,-6.8629,-6.7561,-6.6603,-6.6454,-6.6385,-6.6376,-6.6406,-6.6414,-6.6414,-6.6493,-6.6508,-6.6508,-6.6508,-6.6508,-6.6508,-6.6508,-6.7907,-6.9111,-6.9111,-7.0471,-7.1598,-7.1598,-7.1598,-7.1598,-7.1598,-7.1598,-7.1598,-7.1598,-7.1598,-7.1598,-7.1598,-7.1598,-7.1598,-7.1598,-7.1598,-7.1598,-7.1598,-7.1598,-7.1667,-7.1789,-7.1792,-7.226,-7.3275,-7.4095,-7.4798,-7.5423,-7.6555,-7.7101,-7.7101,-7.7101,-7.7101,-7.7101,-7.7101,-7.7101,-7.7101,-7.7101,-7.7101,-7.7098,-7.7067,-7.8061,-7.9574,-7.9561,-8.0629,-8.2052,-7.332,-7.3398,-7.3398,-7.3398,-7.3424,-7.3527,-7.3765,-7.3864,-7.3961,-7.4174,-7.4197,-7.4197,-7.4197,-7.4197,-7.4197,-7.4197,-7.4197,-7.4197,-7.4197,-7.4197,-7.4197,-7.4197,-7.4197,-7.4197,-7.4197,-7.4197,-7.4197,-7.4197,-7.4197,-7.3334,-7.1719,-7.1719,-7.0796,-6.9181,-6.9181,-6.9181,-6.9181,-6.9181,-6.9181,-6.9181,-6.9181,-6.9181,-6.9181,-6.9181,-6.9181,-6.9181,-6.9181,-6.944,-6.9834,-7.0188,-6.9808,-6.901,-6.7947,-6.699,-6.6293,-6.6358,-6.6358,-6.634,-6.6403,-6.6614,-6.6894,-6.6974,-6.6998,-6.7014,-6.7014,-6.7285,-6.7519,-6.7519,-6.8606,-6.9578,-6.9578,-7.0665,-7.1598,-7.1598,-7.1598,-7.1598,-7.1598,-7.1598,-7.1598,-7.1598,-7.1598,-7.1598,-7.1598,-7.1598,-7.1598,-7.1598,-7.1598,-7.1598,-7.1598,-7.1598,-7.1667,-7.1789,-7.1792,-7.2456,-7.3744,-7.4251,-7.4954,-7.5816,-7.6672,-7.7101,-7.7101,-7.7101,-7.7101,-7.7101,-7.7101,-7.7101,-7.7101,-7.7101,-7.7101,-7.7137,-7.7411,-7.8369,-7.9647,-7.9901,-8.0896,-8.2046,-7.3398,-7.3398,-7.3398,-7.3398,-7.3501,-7.3665,-7.379,-7.3937,-7.4056,-7.4174,-7.4197,-7.4197,-7.4197,-7.4197,-7.4197,-7.4197,-7.4197,-7.4197,-7.4197,-7.4197,-7.4197,-7.4197,-7.4197,-7.4197,-7.4197,-7.4197,-7.4197,-7.4197,-7.4197,-7.3334,-7.1719,-7.1719,-7.0796,-6.9181,-6.9181,-6.9181,-6.9181,-6.9181,-6.9181,-6.9181,-6.9181,-6.9181,-6.9181,-6.9181,-6.9181,-6.9181,-6.9181,-6.944,-6.9853,-7.0031,-6.9525,-6.8671,-6.7755,-6.6893,-6.6215,-6.6349,-6.6312,-6.6254,-6.6466,-6.7035,-6.7626,-6.7795,-6.7914,-6.7946,-6.7868,-6.8451,-6.9026,-6.9103,-6.9694,-7.0199,-7.0277,-7.1015,-7.1598,-7.1598,-7.1598,-7.1598,-7.1598,-7.1598,-7.1598,-7.1598,-7.1598,-7.1598,-7.1598,-7.1598,-7.1598,-7.1598,-7.1598,-7.1598,-7.1598,-7.1598,-7.166,-7.178,-7.1789,-7.2689,-7.4494,-7.4488,-7.4993,-7.5933,-7.6711,-7.7101,-7.7101,-7.7101,-7.7101,-7.7101,-7.7101,-7.7101,-7.7101,-7.7101,-7.7101,-7.7176,-7.7996,-7.8837,-7.9686,-8.0485,-8.1364,-8.2046,-7.3398,-7.3398,-7.3424,-7.3564,-7.3589,-7.369,-7.3937,-7.3985,-7.4056,-7.4174,-7.4197,-7.4197,-7.4197,-7.4197,-7.4197,-7.4197,-7.4197,-7.4197,-7.4197,-7.4197,-7.4197,-7.4197,-7.4197,-7.4197,-7.4197,-7.4197,-7.4197,-7.4197,-7.4197,-7.3334,-7.1719,-7.1719,-7.0796,-6.9181,-6.9181,-6.9181,-6.9181,-6.9181,-6.9181,-6.9181,-6.9181,-6.9181,-6.9181,-6.9181,-6.9181,-6.9181,-6.9181,-6.944,-6.97,-6.8946,-6.8757,-6.8555,-6.7058,-6.6458,-6.6293,-6.6312,-6.6303,-6.6448,-6.7164,-6.7473,-6.7781,-6.8524,-6.9079,-6.922,-6.8327,-6.8249,-6.8521,-6.8987,-6.9259,-6.9492,-6.9919,-7.086,-7.1598,-7.1598,-7.1598,-7.1598,-7.1598,-7.1598,-7.1598,-7.1598,-7.1598,-7.1598,-7.1598,-7.1598,-7.1598,-7.1598,-7.1598,-7.1598,-7.1598,-7.1598,-7.1651,-7.1731,-7.1764,-7.268,-7.4489,-7.4506,-7.5266,-7.6828,-7.7023,-7.7101,-7.7101,-7.7101,-7.7101,-7.7101,-7.7101,-7.7101,-7.7101,-7.7101,-7.7101,-7.7176,-7.7996,-7.8837,-7.9686,-8.0485,-8.1364,-8.2033,-7.3398,-7.3398,-7.3424,-7.3589,-7.3665,-7.379,-7.3985,-7.4056,-7.4127,-7.4174,-7.4197,-7.4197,-7.4197,-7.4197,-7.4197,-7.4197,-7.4197,-7.4197,-7.4197,-7.4197,-7.4197,-7.4197,-7.4197,-7.4197,-7.4197,-7.4197,-7.4197,-7.4197,-7.4197,-7.3334,-7.1719,-7.1719,-7.0796,-6.9181,-6.9181,-6.9181,-6.9181,-6.9181,-6.9181,-6.9181,-6.9181,-6.9181,-6.9181,-6.9181,-6.9181,-6.9181,-6.9181,-6.9544,-6.9819,-6.848,-6.8347,-6.8506,-6.6796,-6.6264,-6.6341,-6.6728,-6.6883,-6.7077,-6.7928,-6.8491,-6.8935,-6.9245,-7.0016,-7.0432,-6.9259,-6.9414,-6.9919,-7.0238,-7.0277,-7.0385,-7.0665,-7.1209,-7.1598,-7.1598,-7.1598,-7.1598,-7.1598,-7.1598,-7.1598,-7.1598,-7.1598,-7.1598,-7.1598,-7.1598,-7.1598,-7.1598,-7.1598,-7.1598,-7.1598,-7.1598,-7.1637,-7.17,-7.1757,-7.2676,-7.4492,-7.451,-7.5384,-7.7101,-7.7101,-7.7101,-7.7101,-7.7101,-7.7101,-7.7101,-7.7101,-7.7101,-7.7101,-7.7101,-7.7101,-7.7215,-7.8425,-7.9188,-7.9764,-8.0959,-8.1547,-8.167,-7.3424,-7.3424,-7.3476,-7.3628,-7.3765,-7.3888,-7.4033,-7.4127,-7.4197,-7.4197,-7.4197,-7.4197,-7.4197,-7.4197,-7.4197,-7.4197,-7.4197,-7.4197,-7.4197,-7.4197,-7.4197,-7.4197,-7.4197,-7.4197,-7.4197,-7.4197,-7.4197,-7.4197,-7.4197,-7.3334,-7.1719,-7.1719,-7.0796,-6.9181,-6.9181,-6.9181,-6.9181,-6.9181,-6.9181,-6.9181,-6.9181,-6.9181,-6.9181,-6.9181,-6.9181,-6.9181,-6.9181,-6.9682,-7.0037,-6.8438,-6.8293,-6.8506,-6.692,-6.6417,-6.6572,-6.7307,-6.7617,-6.7926,-6.8777,-6.9546,-7.0079,-6.9992,-7.0786,-7.1348,-7.0416,-7.0929,-7.1598,-7.1598,-7.1598,-7.1598,-7.1598,-7.1598,-7.1598,-7.1598,-7.1598,-7.1598,-7.1598,-7.1598,-7.1598,-7.1598,-7.1598,-7.1598,-7.1598,-7.1598,-7.1598,-7.1598,-7.1598,-7.1598,-7.1598,-7.1598,-7.1622,-7.1665,-7.1905,-7.2828,-7.4452,-7.463,-7.5501,-7.7101,-7.7101,-7.7101,-7.7101,-7.7101,-7.7101,-7.7101,-7.7101,-7.7101,-7.7101,-7.7101,-7.7101,-7.7254,-7.8932,-7.9617,-7.9803,-8.1442,-8.1717,-8.1272,-7.3527,-7.3552,-7.3628,-7.3912,-7.3985,-7.4033,-7.4151,-7.4174,-7.4197,-7.4197,-7.4197,-7.4197,-7.4197,-7.4197,-7.4197,-7.4197,-7.4197,-7.4197,-7.4197,-7.4197,-7.4197,-7.4197,-7.4197,-7.4197,-7.4197,-7.4197,-7.4197,-7.4197,-7.4197,-7.3334,-7.1719,-7.1719,-7.0796,-6.9181,-6.9181,-6.9181,-6.9181,-6.9181,-6.9181,-6.9181,-6.9181,-6.9181,-6.9181,-6.9181,-6.9181,-6.9181,-6.9181,-6.9682,-7.0151,-6.918,-6.8792,-6.8622,-6.7655,-6.7307,-6.7346,-6.7462,-6.8042,-6.8816,-6.9628,-6.9797,-6.9992,-7.095,-7.1388,-7.1561,-7.1413,-7.1495,-7.1598,-7.1598,-7.1598,-7.1598,-7.1598,-7.1598,-7.1598,-7.1598,-7.1598,-7.1598,-7.1598,-7.1598,-7.1598,-7.1598,-7.1598,-7.1598,-7.1598,-7.1598,-7.1598,-7.1598,-7.1598,-7.1598,-7.1598,-7.1598,-7.1614,-7.1599,-7.2461,-7.3401,-7.4386,-7.5227,-7.6125,-7.7101,-7.7101,-7.7101,-7.7101,-7.7101,-7.7101,-7.7101,-7.7101,-7.7101,-7.7101,-7.7101,-7.7101,-7.7254,-7.8932,-7.9617,-7.9754,-8.1205,-8.1551,-8.1272,-7.3552,-7.3615,-7.3653,-7.3923,-7.4009,-7.4056,-7.4174,-7.4197,-7.4197,-7.4197,-7.4197,-7.4197,-7.4197,-7.4197,-7.4197,-7.4197,-7.4197,-7.4197,-7.4197,-7.4197,-7.4197,-7.4197,-7.4197,-7.4197,-7.4197,-7.4197,-7.4197,-7.4197,-7.4197,-7.3334,-7.1719,-7.1719,-7.0796,-6.9181,-6.9181,-6.9181,-6.9181,-6.9181,-6.9181,-6.9181,-6.9181,-6.9181,-6.9181,-6.9181,-6.9181,-6.9181,-6.9181,-6.9682,-7.0151,-6.9295,-6.9229,-6.9319,-6.8506,-6.8236,-6.8313,-6.8777,-6.9048,-6.9473,-7.044,-7.0676,-7.0708,-7.1218,-7.1474,-7.1572,-7.1446,-7.1502,-7.1603,-7.1598,-7.1598,-7.1598,-7.1598,-7.1598,-7.1598,-7.1598,-7.1598,-7.1598,-7.1598,-7.1598,-7.1598,-7.1598,-7.1598,-7.1598,-7.1598,-7.1598,-7.1598,-7.1598,-7.1598,-7.1598,-7.1598,-7.1598,-7.1598,-7.1598,-7.2569,-7.3512,-7.4374,-7.5346,-7.6242,-7.7101,-7.7101,-7.7101,-7.7101,-7.7101,-7.7101,-7.7101,-7.7101,-7.7101,-7.7101,-7.7101,-7.7095,-7.7277,-7.8967,-8.0062,-8.0832,-8.131,-8.1323,-8.1027]},{"header":{"parameterUnit":"m.s-1","parameterCategory":1,"la1":30.6,"la2":28.766,"lo1":-90.7593,"lo2":-88.6598,"dy":0.0162,"dx":0.0183,"nx":116,"ny":114,"refTime":"2023-11-17T06:00:00:Z","depth":0,"parameterNumber":3,"parameterNumberName":"V-component_of_WINDS"},"data":[0.0,0.0,0.0,0.0,0.0,0.0,0.0,0.0,0.0,0.0,0.0,0.0,0.0,0.0,0.0,0.0,0.0,0.0,0.0,0.0,0.0,0.0,0.0,0.0,0.0,0.0,0.0,0.0,0.0,0.0,0.0,0.0,0.0,0.0,0.0,0.0,0.0,0.0,0.0,0.0,0.0,0.0,0.0,0.0,0.0,0.0,0.0,0.0,0.0,0.0,0.0,0.0,0.0,0.0,0.0,0.0,0.0,0.0,0.0,0.0,0.0,0.0,0.0,0.0,0.0,0.0,0.0,0.0,0.0,0.0,0.0,0.0,0.0,0.0,0.0,0.0,0.0,0.0,0.0,0.0,0.0,0.0,0.0,0.0,0.0,0.0,0.0,0.0,0.0,0.0,0.0,0.0,0.0,0.0,0.0,0.0,0.0,0.0,0.0,0.0,0.0,0.0,0.0,0.0,0.0,0.0,0.0,0.0,0.0,0.0,0.0,0.0,0.0,0.0,0.0,0.0,0.0,0.0,0.0,0.0,0.0,0.0,0.0,0.0,0.0,0.0,0.0,0.0,0.0,0.0,0.0,0.0,0.0,0.0,0.0,0.0,0.0,0.0,0.0,0.0,0.0,0.0,0.0,0.0,0.0,0.0,0.0,0.0,0.0,0.0,0.0,0.0,0.0,0.0,0.0,0.0,0.0,0.0,0.0,0.0,0.0,0.0,0.0,0.0,0.0,0.0,0.0,0.0,0.0,0.0,0.0,0.0,0.0,0.0,0.0,0.0,0.0,0.0,0.0,0.0,0.0,0.0,0.0,0.0,0.0,0.0,0.0,0.0,0.0,0.0,0.0,0.0,0.0,0.0,0.0,0.0,0.0,0.0,0.0,0.0,0.0,0.0,0.0,0.0,0.0,0.0,0.0,0.0,0.0,0.0,0.0,0.0,0.0,0.0,0.0,0.0,0.0,0.0,0.0,0.0,0.0,0.0,0.0,0.0,0.0,0.0,0.0,0.0,0.0,0.0,0.0,0.0,0.0,0.0,0.0,0.0,0.0,0.0,0.0,0.0,0.0,0.0,0.0,0.0,0.0,0.0,0.0,0.0,0.0,0.0,0.0,0.0,0.0,0.0,0.0,0.0,0.0,0.0,0.0,0.0,0.0,0.0,0.0,0.0,0.0,0.0,0.0,0.0,0.0,0.0,0.0,0.0,0.0,0.0,0.0,0.0,0.0,0.0,0.0,0.0,0.0,0.0,0.0,0.0,0.0,0.0,0.0,0.0,0.0,0.0,0.0,0.0,0.0,0.0,0.0,0.0,0.0,0.0,0.0,0.0,0.0,0.0,0.0,0.0,0.0,0.0,0.0,0.0,0.0,0.0,0.0,0.0,0.0,0.0,0.0,0.0,0.0,0.0,0.0,0.0,0.0,0.0,0.0,0.0,0.0,0.0,0.0,0.0,0.0,0.0,0.0,0.0,0.0,0.0,0.0,0.0,0.0,0.0,0.0,0.0,0.0,0.0,0.0,0.0,0.0,0.0,0.0,0.0,0.0,0.0,0.0,0.0,0.0,0.0,0.0,0.0,0.0,0.0,0.0,0.0,0.0,0.0,0.0,0.0,0.0,0.0,0.0,0.0,0.0,0.0,0.0,0.0,0.0,0.0,0.0,0.0,0.0,0.0,0.0,0.0,0.0,0.0,0.0,0.0,0.0,0.0,0.0,0.0,0.0,0.0,0.0,0.0,0.0,0.0,0.0,0.0,0.0,0.0,0.0,0.0,0.0,0.0,0.0,0.0,0.0,0.0,0.0,0.0,0.0,0.0,0.0,0.0,0.0,0.0,0.0,0.0,0.0,0.0,0.0,0.0,0.0,0.0,0.0,0.0,0.0,0.0,0.0,0.0,0.0,0.0,0.0,0.0,0.0,0.0,0.0,0.0,0.0,0.0,0.0,0.0,0.0,0.0,0.0,0.0,0.0,0.0,0.0,0.0,0.0,0.0,0.0,0.0,0.0,0.0,0.0,0.0,0.0,0.0,0.0,0.0,0.0,0.0,0.0,0.0,0.0,0.0,0.0,0.0,0.0,0.0,0.0,0.0,0.0,0.0,0.0,0.0,0.0,0.0,0.0,0.0,0.0,0.0,0.0,0.0,0.0,0.0,0.0,0.0,0.0,0.0,0.0,0.0,0.0,0.0,0.0,0.0,0.0,0.0,0.0,0.0,0.0,0.0,0.0,0.0,0.0,0.0,0.0,0.0,0.0,0.0,0.0,0.0,0.0,0.0,0.0,0.0,0.0,0.0,0.0,0.0,0.0,0.0,0.0,0.0,0.0,0.0,0.0,0.0,0.0,0.0,0.0,0.0,0.0,0.0,0.0,0.0,0.0,0.0,0.0,0.0,0.0,0.0,0.0,0.0,0.0,0.0,0.0,0.0,0.0,0.0,0.0,0.0,0.0,0.0,0.0,0.0,0.0,0.0,0.0,0.0,0.0,0.0,0.0,0.0,0.0,0.0,0.0,0.0,0.0,0.0,0.0,0.0,0.0,0.0,0.0,0.0,0.0,0.0,0.0,0.0,0.0,0.0,0.0,0.0,0.0,0.0,0.0,0.0,0.0,0.0,0.0,0.0,0.0,0.0,0.0,0.0,0.0,0.0,0.0,0.0,0.0,0.0,0.0,0.0,0.0,0.0,0.0,0.0,0.0,0.0,0.0,0.0,0.0,0.0,0.0,0.0,0.0,0.0,0.0,0.0,0.0,0.0,0.0,0.0,0.0,0.0,0.0,0.0,0.0,0.0,0.0,0.0,0.0,0.0,0.0,0.0,0.0,0.0,0.0,0.0,0.0,0.0,0.0,0.0,0.0,0.0,0.0,0.0,0.0,0.0,0.0,0.0,0.0,0.0,0.0,0.0,0.0,0.0,0.0,0.0,0.0,0.0,0.0,0.0,0.0,0.0,0.0,0.0,0.0,0.0,0.0,0.0,0.0,0.0,0.0,0.0,0.0,0.0,0.0,0.0,0.0,0.0,0.0,0.0,0.0,0.0,0.0,0.0,0.0,0.0,0.0,0.0,0.0,0.0,0.0,0.0,0.0,0.0,0.0,0.0,0.0,0.0,0.0,0.0,0.0,0.0,0.0,0.0,0.0,0.0,0.0,0.0,0.0,0.0,0.0,0.0,0.0,0.0,0.0,0.0,0.0,0.0,0.0,0.0,0.0,0.0,0.0,0.0,0.0,0.0,0.0,0.0,0.0,0.0,0.0,0.0,0.0,0.0,0.0,0.0,0.0,0.0,0.0,0.0,0.0,0.0,0.0,0.0,0.0,0.0,0.0,0.0,0.0,0.0,0.0,0.0,0.0,0.0,0.0,0.0,0.0,0.0,0.0,0.0,0.0,0.0,0.0,0.0,0.0,0.0,0.0,0.0,0.0,0.0,0.0,0.0,0.0,0.0,0.0,0.0,0.0,0.0,0.0,0.0,0.0,0.0,0.0,0.0,0.0,0.0,0.0,0.0,0.0,0.0,0.0,0.0,0.0,0.0,0.0,0.0,0.0,0.0,0.0,0.0,0.0,0.0,0.0,0.0,0.0,0.0,0.0,0.0,0.0,0.0,0.0,0.0,0.0,0.0,0.0,0.0,0.0,0.0,0.0,0.0,0.0,0.0,0.0,0.0,0.0,0.0,0.0,0.0,0.0,0.0,0.0,0.0,0.0,0.0,0.0,0.0,0.0,0.0,0.0,0.0,0.0,0.0,0.0,0.0,0.0,0.0,0.0,0.0,0.0,0.0,0.0,0.0,0.0,0.0,0.0,0.0,0.0,0.0,0.0,0.0,0.0,0.0,0.0,0.0,0.0,0.0,0.0,0.0,0.0,0.0,0.0,0.0,0.0,0.0,0.0,0.0,0.0,0.0,0.0,0.0,0.0,0.0,0.0,0.0,0.0,0.0,0.0,0.0,0.0,0.0,0.0,0.0,0.0,0.0,0.0,0.0,0.0,0.0,0.0,0.0,0.0,0.0,0.0,0.0,0.0,0.0,0.0,0.0,0.0,0.0,0.0,0.0,0.0,0.0,0.0,0.0,0.0,0.0,0.0,0.0,0.0,0.0,0.0,0.0,0.0,0.0,0.0,0.0,0.0,0.0,0.0,0.0,0.0,0.0,0.0,0.0,0.0,0.0,0.0,0.0,0.0,0.0,0.0,0.0,0.0,0.0,0.0,0.0,0.0,0.0,0.0,0.0,0.0,0.0,0.0,0.0,0.0,0.0,0.0,0.0,0.0,0.0,0.0,0.0,0.0,0.0,0.0,0.0,0.0,0.0,0.0,0.0,0.0,0.0,0.0,0.0,0.0,0.0,0.0,0.0,0.0,0.0,0.0,0.0,0.0,0.0,0.0,0.0,0.0,0.0,0.0,0.0,0.0,0.0,0.0,0.0,0.0,0.0,0.0,0.0,0.0,0.0,0.0,0.0,0.0,0.0,0.0,0.0,0.0,0.0,0.0,0.0,0.0,0.0,0.0,0.0,0.0,0.0,0.0,0.0,0.0,0.0,0.0,0.0,0.0,0.0,0.0,0.0,0.0,0.0,0.0,0.0,0.0,0.0,0.0,0.0,0.0,0.0,0.0,0.0,0.0,0.0,0.0,0.0,0.0,0.0,0.0,0.0,0.0,0.0,0.0,0.0,0.0,0.0,0.0,0.0,0.0,0.0,0.0,0.0,0.0,0.0,0.0,0.0,0.0,0.0,0.0,0.0,0.0,0.0,0.0,0.0,0.0,0.0,0.0,0.0,0.0,0.0,0.0,0.0,0.0,0.0,0.0,0.0,0.0,0.0,0.0,0.0,0.0,0.0,0.0,0.0,0.0,0.0,0.0,0.0,0.0,0.0,0.0,0.0,0.0,0.0,0.0,0.0,0.0,0.0,0.0,0.0,0.0,0.0,0.0,0.0,0.0,0.0,0.0,0.0,0.0,0.0,0.0,0.0,0.0,0.0,0.0,0.0,0.0,0.0,0.0,0.0,0.0,0.0,0.0,0.0,0.0,0.0,0.0,0.0,0.0,0.0,0.0,0.0,0.0,0.0,0.0,0.0,0.0,0.0,0.0,0.0,0.0,0.0,0.0,0.0,0.0,0.0,0.0,0.0,0.0,0.0,0.0,0.0,0.0,0.0,0.0,0.0,0.0,0.0,0.0,0.0,0.0,0.0,0.0,0.0,0.0,0.0,0.0,0.0,0.0,0.0,0.0,0.0,0.0,0.0,0.0,0.0,0.0,0.0,0.0,0.0,0.0,0.0,0.0,0.0,0.0,0.0,0.0,0.0,0.0,0.0,0.0,0.0,0.0,0.0,0.0,0.0,0.0,0.0,0.0,0.0,0.0,0.0,0.0,0.0,0.0,0.0,0.0,0.0,0.0,0.0,0.0,0.0,0.0,0.0,0.0,0.0,0.0,0.0,0.0,0.0,0.0,0.0,0.0,0.0,0.0,0.0,0.0,0.0,0.0,0.0,0.0,0.0,0.0,0.0,0.0,0.0,0.0,0.0,0.0,0.0,0.0,0.0,0.0,0.0,0.0,0.0,0.0,0.0,0.0,0.0,0.0,0.0,0.0,0.0,0.0,0.0,0.0,0.0,0.0,0.0,0.0,0.0,0.0,0.0,0.0,0.0,0.0,0.0,0.0,0.0,0.0,0.0,0.0,0.0,0.0,0.0,0.0,0.0,0.0,0.0,0.0,0.0,0.0,0.0,0.0,0.0,0.0,0.0,0.0,0.0,0.0,0.0,0.0,0.0,0.0,0.0,0.0,0.0,0.0,0.0,0.0,0.0,0.0,0.0,0.0,0.0,0.0,0.0,0.0,0.0,0.0,0.0,0.0,0.0,0.0,0.0,0.0,0.0,0.0,0.0,0.0,0.0,0.0,0.0,0.0,0.0,0.0,0.0,0.0,0.0,0.0,0.0,0.0,0.0,0.0,0.0,0.0,0.0,0.0,0.0,0.0,0.0,0.0,0.0,0.0,0.0,0.0,0.0,0.0,0.0,0.0,0.0,0.0,0.0,0.0,0.0,0.0,0.0,0.0,0.0,0.0,0.0,0.0,0.0,0.0,0.0,0.0,0.0,0.2692,0.2692,0.0,0.0,0.0,0.0,0.0,0.0,0.0,0.0,0.0,0.0,0.0,0.0,0.0,0.0,0.0,0.0,0.0,0.0,0.0,0.0,0.0,0.0,0.0,0.0,0.0,0.0,0.0,0.0,0.0,0.0,0.0,0.0,0.0,0.0,0.0,0.0,0.0,0.0,-0.9102,-0.7545,-0.4951,-0.305,-0.145,-0.0153,0.0,0.0,0.0,0.0,0.0,0.0,0.0,0.0,0.0,0.0,0.0,0.0,0.0,0.0,0.0,0.0,0.0,0.0,0.0,0.0,0.0,0.0,0.0,0.0,0.0,0.0,0.0,0.0,0.0,0.0,0.0,0.0,0.0,0.0,0.0,0.0,0.0,0.0,0.0,0.0,0.0,0.0,0.0,0.0,0.0,0.0,0.0,0.0,0.0,0.0,0.0,0.0,0.0,0.0,0.0,0.0,0.0,0.0,0.0,0.0,0.0,0.0,0.0,0.0,0.0,0.0,0.0,0.0,0.0,0.0,0.2692,0.2692,0.0,0.0,0.0,0.0,0.0,0.0,0.0,0.0,0.0,0.0,0.0,0.0,0.0,0.0,0.0,0.0,0.0,0.0,0.0,0.0,0.0,0.0,0.0,-1.2196,-1.1414,-1.0037,-0.996,-0.996,0.0,0.0,0.0,0.0,0.0,0.0,0.0,-0.9715,-0.9516,-0.9135,-0.8436,-0.6312,-0.2776,0.0744,0.2384,0.2408,0.2408,0.0,0.0,0.0,0.0,0.0,0.0,0.0,0.0,0.0,0.0,0.0,0.0,0.0,0.0,0.0,0.0,0.0,0.0,0.0,0.0,0.0,0.0,0.0,0.0,0.0,0.0,0.0,0.0,0.0,0.0,0.0,0.0,0.0,0.0,0.0,0.0,0.0,0.0,0.0,0.0,0.0,0.0,0.0,0.0,0.0,0.0,0.0,0.0,0.0,0.0,0.0,0.0,0.0,0.0,0.0,0.0,0.0,0.0,0.0,0.0,0.0,0.0,0.0,0.2692,0.2692,0.2692,0.2692,0.2692,0.2692,0.2692,0.2692,0.2692,0.2692,0.0,0.0,0.0,0.0,0.0,0.0,0.0,0.0,0.0,0.0,0.0,0.0,0.0,0.0,0.0,0.0,0.0,0.0,0.0,0.0,0.0,-1.0975,-1.0016,-0.979,-0.9715,-0.9715,-0.9715,0.0,0.0,0.0,0.0,0.0,-0.9693,-0.9677,-0.9516,-0.9135,-0.5599,-0.3399,-0.2341,0.0804,0.2341,0.2345,0.2345,0.2342,0.2338,0.0,0.0,0.0,0.0,0.0,0.0,0.0,0.0,0.0,0.0,0.0,0.0,0.0,0.0,0.0,0.0,0.0,0.0,0.0,0.0,0.0,0.0,0.0,0.0,0.0,0.0,0.0,0.0,0.0,0.0,0.0,0.0,0.0,0.0,0.0,0.0,0.0,0.0,0.0,0.0,0.0,0.2343,0.2375,0.0,0.0,0.0,0.0,0.0,0.0,0.0,0.0,0.0,0.0,0.0,0.0,0.0,0.2587,0.2563,0.2565,0.2662,0.2692,0.2692,0.2692,0.2692,0.2692,0.2692,0.2692,0.2692,0.0,0.2692,0.2692,0.0,0.0,0.0,0.0,0.0,0.0,0.0,0.0,0.0,0.0,0.0,0.0,0.0,0.0,0.0,0.0,0.0,0.0,0.0,0.0,0.0,-1.0144,-0.9671,-0.9671,-0.9671,-0.9671,-0.9671,-0.9671,0.0,0.0,0.0,-0.9568,-0.9568,-0.9282,-0.8877,-0.8283,-0.4486,-0.2562,-0.2256,0.0874,0.2333,0.2333,0.2333,0.2333,0.2333,0.2333,0.0,0.0,0.0,0.0,0.0,0.0,0.0,0.0,0.0,0.0,0.0,0.0,0.0,0.0,0.0,0.0,0.0,0.0,0.0,0.0,0.0,0.0,0.0,0.0,0.0,0.0,0.0,0.0,0.0,0.0,0.0,0.0,0.0,0.0,0.0,0.0,0.0,0.0,0.0,0.2333,0.235,0.2398,0.2416,0.2442,0.0,0.0,0.0,0.0,0.0,0.0,0.0,0.0,0.0,0.2534,0.2534,0.2562,0.262,0.2622,0.2645,0.2692,0.2692,0.2692,0.2692,0.2692,0.2692,0.2692,0.2692,0.2692,0.2692,0.2692,0.2692,0.2692,0.0,0.0,0.0,0.0,0.2692,0.2692,0.0,0.0,0.0,0.0,0.0,0.0,0.0,0.0,0.0,0.0,0.0,0.0,-0.9916,-0.9595,-0.9574,-0.9574,-0.9574,-0.9574,-0.9574,-0.9574,-0.9574,-0.9574,-0.9487,-0.9438,-0.9438,-0.8842,-0.8222,-0.7566,-0.4073,-0.233,-0.2256,0.0874,0.2333,0.2333,0.2333,0.2333,0.2333,0.2333,0.2333,0.2333,0.0,0.0,0.0,0.0,0.0,0.0,0.0,0.0,0.0,0.0,0.0,0.0,0.0,0.0,0.0,0.0,0.0,0.0,0.0,0.0,0.0,0.0,0.0,0.0,0.0,0.0,0.0,0.0,0.0,0.0,0.0,0.0,0.0,0.0,0.0,0.0,0.0,0.2333,0.2356,0.2416,0.2424,0.2447,0.0,0.0,0.0,0.0,0.0,0.0,0.2514,0.2514,0.2514,0.2514,0.2514,0.2542,0.2601,0.2601,0.2632,0.2692,0.2692,0.2692,0.2692,0.2692,0.2692,0.2692,0.2692,0.2692,0.2692,0.2692,0.2692,0.2692,0.2692,0.2692,0.2692,0.2692,0.2692,0.2692,0.0,0.0,0.0,0.0,0.0,0.0,0.0,0.0,0.0,0.0,0.0,-1.1317,-0.9713,-0.9394,-0.9323,-0.9323,-0.9323,-0.9323,-0.9323,-0.9323,-0.9323,-0.9323,-0.9318,-0.9313,-0.9313,-0.8517,-0.7933,-0.7566,-0.4073,-0.233,-0.2256,0.0874,0.2333,0.2333,0.2333,0.2333,0.2333,0.2333,0.2333,0.2333,0.2333,0.0,0.0,0.0,0.0,0.0,0.0,0.0,0.0,0.0,0.0,0.0,0.0,0.0,0.0,0.0,0.0,0.0,0.0,0.0,0.0,0.0,0.0,0.0,0.0,0.0,0.0,0.0,0.0,0.0,0.0,0.0,0.0,0.0,0.0,0.0,0.0,0.0,0.0,0.2416,0.2424,0.0,0.0,0.0,0.0,0.2514,0.2514,0.2514,0.2514,0.2514,0.2514,0.2514,0.2514,0.2542,0.2601,0.2601,0.2632,0.2692,0.2692,0.2692,0.2692,0.2692,0.2692,0.2692,0.2692,0.2692,0.2692,0.2692,0.2692,0.2692,0.2692,0.2692,0.2692,0.2692,0.2692,0.2692,0.0,0.0,0.0,0.0,0.0,0.0,0.0,0.0,-1.7399,-1.4627,-1.3649,-1.2179,-0.9658,-0.9329,-0.9302,-0.9302,-0.9302,-0.9302,-0.9302,-0.9302,-0.9302,-0.9302,-0.9302,-0.909,-0.8512,-0.8005,-0.7566,-0.7204,-0.3928,-0.2319,-0.23,0.0864,0.2296,0.2206,0.2206,0.2206,0.2207,0.2297,0.2294,0.2206,0.2206,0.2206,0.0,0.0,0.0,0.0,0.0,0.0,0.0,0.0,0.0,0.0,0.0,0.0,0.0,0.0,0.0,0.0,0.0,0.0,0.0,0.0,0.0,0.0,0.0,0.0,0.0,0.0,0.0,0.0,0.0,0.0,0.0,0.0,0.0,0.0,0.0,0.0,0.0,0.2416,0.2424,0.0,0.2508,0.2514,0.2514,0.2514,0.2514,0.2514,0.2514,0.2514,0.2514,0.2514,0.2514,0.2542,0.2601,0.2601,0.2632,0.2692,0.2692,0.2692,0.2692,0.2692,0.2692,0.2692,0.2692,0.2692,0.2692,0.2692,0.2692,0.2692,0.2692,0.2692,0.2692,0.2692,0.2692,0.2692,0.0,0.0,0.0,0.0,0.0,0.0,0.0,0.0,-1.7927,-1.4516,-1.3953,-1.2738,-0.9663,-0.9302,-0.9302,-0.9302,-0.9302,-0.9302,-0.9302,-0.9302,-0.9285,-0.9247,-0.9104,-0.876,-0.8078,-0.7751,-0.7378,-0.6945,-0.4318,-0.2789,-0.2268,0.0355,0.1768,0.2175,0.2175,0.217,0.2232,0.2252,0.2255,0.2175,0.2175,0.2175,0.2175,0.0,0.0,0.0,0.0,0.0,0.0,0.0,0.0,0.0,0.0,0.0,0.0,0.0,0.0,0.0,0.0,0.0,0.0,0.0,0.0,0.0,0.0,0.0,0.0,0.0,0.0,0.0,0.0,0.0,0.0,0.0,0.0,0.0,0.0,0.2333,0.2352,0.2402,0.2417,0.2443,0.2493,0.2508,0.2514,0.2514,0.2514,0.2514,0.2514,0.2514,0.2514,0.2514,0.2514,0.2537,0.2587,0.2597,0.2627,0.2677,0.2687,0.2692,0.2692,0.2692,0.2692,0.2692,0.2692,0.2692,0.2692,0.2692,0.2692,0.2692,0.2692,0.2692,0.2692,0.2692,0.2692,0.2692,0.0,0.0,0.0,0.0,0.0,0.0,0.0,-1.9082,-1.7876,-1.4357,-1.388,-1.2738,-0.9663,-0.9302,-0.9302,-0.9302,-0.9302,-0.9302,-0.9296,-0.9296,-0.9247,-0.9062,-0.8703,-0.8321,-0.8068,-0.7616,-0.7207,-0.6918,-0.521,-0.3636,-0.2237,-0.063,0.084,0.2102,0.2173,0.2226,0.2199,0.2199,0.2215,0.2173,0.2173,0.2173,0.2173,0.0,0.0,0.0,0.0,0.0,0.0,0.0,0.0,0.0,0.0,0.0,0.0,0.0,0.0,0.0,0.0,0.0,0.0,0.0,0.0,0.0,0.0,0.0,0.0,0.0,0.0,0.0,0.0,0.0,0.0,0.0,0.0,0.0,0.2333,0.2333,0.2343,0.2375,0.2405,0.2435,0.2466,0.2496,0.2514,0.2514,0.2514,0.2514,0.2514,0.2514,0.2514,0.2514,0.2514,0.2529,0.2559,0.2587,0.2617,0.2565,0.2677,0.2692,0.2692,0.2692,0.2692,0.2692,0.2692,0.2692,0.2692,0.2692,0.2692,0.2692,0.2692,0.2692,0.2692,0.2692,0.2692,0.2692,0.0,0.0,0.0,0.0,0.0,0.0,-1.9146,-1.9082,-1.7876,-1.4357,-1.388,-1.2738,-0.9663,-0.9302,-0.9302,-0.9302,-0.9302,-0.9269,-0.9188,-0.9182,-0.8986,-0.8578,-0.8303,-0.7969,-0.7504,-0.7125,-0.6832,-0.6762,-0.5188,-0.4175,-0.3721,-0.1172,0.0206,0.068,0.1702,0.2174,0.2168,0.2168,0.2172,0.218,0.218,0.218,0.218,0.0,0.0,0.0,0.0,0.0,0.0,0.0,0.0,0.0,0.0,0.0,0.0,0.0,0.0,0.0,0.0,0.0,0.0,0.0,0.0,0.0,0.0,0.0,0.0,0.0,0.0,0.0,0.0,0.0,0.0,0.0,0.1604,0.2333,0.2333,0.2333,0.2343,0.2375,0.2405,0.2435,0.2466,0.2496,0.2514,0.2514,0.2514,0.2514,0.2514,0.2514,0.2514,0.2514,0.2514,0.2529,0.2559,0.2587,0.2617,0.2565,0.2677,0.2692,0.2692,0.2692,0.2692,0.2692,0.2692,0.2692,0.2692,0.2692,0.2692,0.2692,0.2692,0.2692,0.2692,0.2692,0.2692,0.2692,0.0,0.0,0.0,0.0,0.0,0.0,-1.9219,-1.9082,-1.7876,-1.4357,-1.388,-1.2738,-0.9663,-0.9302,-0.9302,-0.9302,-0.9258,-0.9204,-0.9139,-0.9041,-0.8852,-0.8529,-0.8084,-0.7715,-0.7283,-0.6896,-0.6668,-0.6668,-0.5729,-0.4931,-0.4349,-0.2584,-0.1489,-0.0806,0.0605,0.1278,0.1346,0.1952,0.2223,0.2223,0.2223,0.2223,0.2223,0.2223,0.2223,0.2223,0.2223,0.2223,0.2092,0.1504,0.0,0.0,0.0,0.0,0.0,0.0,0.0,0.0,0.0,0.0,0.0,0.0,0.0,0.0,0.0,0.0,0.0,0.0,0.0,0.0,0.0,0.0,0.0,0.0,0.175,0.2333,0.2333,0.2333,0.2339,0.2357,0.2397,0.2431,0.2448,0.2489,0.2514,0.2514,0.2514,0.2514,0.2514,0.2514,0.2514,0.2514,0.2514,0.2522,0.2541,0.257,0.2598,0.2628,0.2658,0.268,0.2692,0.2692,0.2692,0.2692,0.2692,0.2692,0.2692,0.2692,0.2692,0.2692,0.0,0.0,0.0,0.0,0.2692,0.2692,0.0,0.0,0.0,0.0,0.0,0.0,-1.9219,-1.9082,-1.7876,-1.4357,-1.388,-1.2738,-0.9663,-0.9302,-0.9302,-0.9302,-0.9198,-0.9122,-0.9095,-0.8905,-0.8735,-0.8494,-0.7976,-0.758,-0.7248,-0.6821,-0.6574,-0.6574,-0.656,-0.5848,-0.4568,-0.4367,-0.3627,-0.2281,-0.0672,0.0,0.0067,0.1547,0.2223,0.2223,0.2223,0.2223,0.2223,0.2223,0.2223,0.2155,0.2019,0.1952,0.1754,0.0273,0.0,0.0,0.0,0.0,0.0,0.0,0.0,0.0,0.0,0.0,0.0,0.0,0.0,0.0,0.0,0.0,0.0,0.0,0.0,0.0,0.0,0.0,0.0,0.0,0.2187,0.2333,0.2333,0.2333,0.2334,0.2337,0.2388,0.2425,0.2428,0.248,0.2514,0.2514,0.2514,0.2514,0.2514,0.2514,0.0,0.0,0.0,0.2514,0.2514,0.2544,0.2574,0.2602,0.2632,0.2662,0.2692,0.2692,0.2692,0.2692,0.2692,0.2692,0.2692,0.2692,0.2692,0.2692,0.2692,0.2692,0.2692,0.2692,0.2692,0.2692,0.0,0.0,0.0,0.0,0.0,0.0,0.0,-1.9082,-1.7876,-1.4357,-1.388,-1.2738,-0.9663,-0.9302,-0.9302,-0.9302,-0.9198,-0.9052,-0.8851,-0.8889,-0.8507,-0.7757,-0.7723,-0.7374,-0.6644,-0.6555,-0.6547,-0.6547,-0.6531,-0.6384,-0.6049,-0.4839,-0.4166,-0.3761,-0.1142,0.0,0.0067,0.1547,0.2223,0.2223,0.2223,0.2223,0.2223,0.2223,0.2223,0.2019,0.0874,0.0403,0.0202,-0.1213,-0.1695,-0.1982,-0.3501,-0.3944,0.0,0.0,0.0,0.0,0.0,0.0,0.0,0.0,0.0,0.0,0.0,0.0,0.0,0.0,0.0,0.0,0.0,0.0,0.0,0.0364,0.1458,0.2333,0.2333,0.2333,0.2342,0.2367,0.2402,0.2433,0.2458,0.2493,0.2514,0.2514,0.2514,0.2514,0.2514,0.2514,0.2514,0.2514,0.2514,0.2514,0.2514,0.2544,0.2574,0.2602,0.2632,0.0,0.2692,0.2692,0.2692,0.2692,0.2692,0.2692,0.2692,0.2692,0.2692,0.2692,0.2692,0.2692,0.2692,0.2692,0.2692,0.2692,0.0,0.0,0.0,0.0,0.0,0.0,0.0,-1.9227,-1.8104,-1.5426,-1.4378,-1.3024,-1.0731,-0.9735,-0.928,-0.9226,-0.9057,-0.8899,-0.878,-0.8769,-0.847,-0.7878,-0.767,-0.7305,-0.6786,-0.6585,-0.6522,-0.6522,-0.6522,-0.6522,-0.6455,-0.5778,-0.5376,-0.5309,-0.3157,-0.215,-0.2016,0.0202,0.1076,0.1144,0.1885,0.175,0.1211,0.1952,0.175,0.1009,0.0269,-0.047,-0.1276,-0.2685,-0.3171,-0.3469,-0.5037,-0.5543,-0.5681,0.0,0.0,0.0,0.0,0.0,0.0,0.0,0.0,0.0,0.0,0.0,0.0,0.0,0.0,-0.4221,-0.2621,0.0,0.0219,0.102,0.1822,0.2333,0.2333,0.2333,0.2343,0.2375,0.2405,0.2435,0.2466,0.2496,0.2514,0.2514,0.2514,0.2514,0.2514,0.2514,0.2514,0.2514,0.2514,0.2514,0.2514,0.2529,0.2559,0.2602,0.2617,0.2647,0.2692,0.2692,0.2692,0.2692,0.2692,0.2692,0.2692,0.2692,0.2692,0.2692,0.2692,0.2692,0.2692,0.2692,0.2692,0.2692,0.0,0.0,0.0,0.0,0.0,0.0,0.0,-1.9362,-1.8393,-1.6429,-1.5088,-1.3737,-1.223,-1.0946,-1.003,-0.953,-0.9331,-0.912,-0.8804,-0.8666,-0.852,-0.8194,-0.7771,-0.7393,-0.7121,-0.6719,-0.6518,-0.6585,-0.6518,-0.6522,-0.6522,-0.6522,-0.6522,-0.6451,-0.4973,-0.43,-0.4099,-0.1544,-0.0403,-0.0336,0.0874,0.0672,-0.0269,0.0941,0.0605,-0.047,-0.0739,-0.1544,-0.2752,-0.4233,-0.4705,-0.4928,-0.6302,-0.666,-0.6631,-0.6705,-0.6676,0.0,0.0,0.0,0.0,0.0,0.0,0.0,0.0,-0.6766,-0.6406,-0.4849,-0.4318,-0.3339,-0.051,0.0219,0.0874,0.2114,0.2333,0.2333,0.2333,0.2333,0.2346,0.2383,0.2409,0.2438,0.2474,0.25,0.2514,0.2514,0.2514,0.2514,0.2514,0.2514,0.2514,0.2514,0.2514,0.2514,0.2514,0.2514,0.2544,0.2601,0.2601,0.2634,0.2692,0.2692,0.2692,0.2692,0.2692,0.2692,0.2692,0.2692,0.2692,0.2692,0.2692,0.2692,0.2692,0.2692,0.2692,0.2692,0.0,0.0,0.0,0.0,0.0,0.0,0.0,0.0,-1.8393,-1.6429,-1.6018,-1.5372,-1.3808,-1.3523,-1.2753,-1.113,-1.0862,-1.0191,-0.8689,-0.8698,-0.8574,-0.8148,-0.7732,-0.7459,-0.7459,-0.6857,-0.6652,-0.692,-0.6652,-0.6522,-0.6522,-0.6522,-0.6522,-0.6451,-0.4973,-0.43,-0.4166,-0.2551,-0.1879,-0.1879,-0.1679,-0.1746,-0.1879,-0.1679,-0.1746,-0.2014,-0.3358,-0.3897,-0.43,-0.5778,-0.625,-0.627,-0.6506,-0.6656,-0.6713,-0.6725,-0.6721,-0.6692,-0.6598,-0.6525,-0.6606,-0.6883,-0.6813,-0.6675,0.0,-0.6676,-0.6266,-0.484,-0.3428,-0.1938,-0.0291,0.1093,0.2114,0.226,0.2333,0.2333,0.2333,0.2333,0.2354,0.2412,0.2421,0.2446,0.2503,0.2512,0.2514,0.2514,0.2514,0.2514,0.2514,0.2514,0.2514,0.2514,0.2514,0.2514,0.2514,0.2514,0.2544,0.2601,0.2601,0.2634,0.2692,0.2692,0.2692,0.2692,0.2692,0.2692,0.2692,0.2692,0.2692,0.2692,0.2692,0.2692,0.2692,0.2692,0.2692,0.2692,0.0,0.0,0.0,0.0,0.0,0.0,0.0,0.0,0.0,-1.7887,-1.6803,-1.5947,-1.5301,-1.4348,-1.306,-1.1372,-1.1132,-1.0386,-0.8728,-0.8633,-0.8571,-0.839,-0.8056,-0.7727,-0.7526,-0.7054,-0.6786,-0.6719,-0.6589,-0.6522,-0.6522,-0.6522,-0.6522,-0.6455,-0.5848,-0.5577,-0.551,-0.4029,-0.3358,-0.3291,-0.2417,-0.2618,-0.3358,-0.3358,-0.3895,-0.4635,-0.4367,-0.4839,0.0,-0.6317,-0.6522,-0.6535,-0.6562,-0.6789,-0.7004,-0.6795,-0.7042,-0.7402,-0.7314,-0.7374,-0.7395,-0.7067,-0.7085,-0.7053,-0.6644,-0.6582,-0.6241,-0.4669,-0.3248,-0.1716,-0.0216,0.1305,0.2333,0.2333,0.2333,0.2333,0.2333,0.2348,0.2375,0.2418,0.2439,0.2466,0.251,0.2514,0.2514,0.2514,0.2514,0.2514,0.2514,0.2514,0.2514,0.2514,0.2514,0.2514,0.2514,0.2514,0.2536,0.2578,0.2594,0.2624,0.2667,0.2684,0.2692,0.2692,0.2692,0.2692,0.2692,0.2692,0.2692,0.2692,0.2692,0.2692,0.2692,0.2692,0.2692,0.2692,0.0,0.0,0.0,0.0,0.0,0.0,0.0,0.0,0.0,0.0,-1.7643,-1.6795,-1.6795,-1.5691,-1.4233,-1.2536,-1.2293,-1.139,-0.9322,-0.9183,-0.8984,-0.859,-0.8256,-0.7989,-0.766,-0.7254,-0.6853,-0.6652,-0.6518,-0.6522,-0.6522,-0.6522,-0.6522,-0.6522,-0.6522,-0.6522,-0.6451,-0.5376,-0.4906,-0.4836,-0.3761,-0.3962,-0.4906,-0.4906,-0.5577,-0.6388,-0.5309,-0.5577,-0.6522,-0.6522,-0.6522,-0.6531,-0.6664,-0.6958,-0.7239,-0.7035,-0.7449,-0.7917,-0.7897,-0.7971,-0.7932,-0.7449,-0.7344,-0.7254,-0.6719,-0.6572,-0.6149,-0.4592,-0.3492,-0.2203,-0.0285,0.0939,0.1822,0.226,0.2333,0.2333,0.2333,0.2358,0.239,0.242,0.245,0.2481,0.2511,0.2514,0.2514,0.2514,0.2514,0.2514,0.2514,0.2514,0.2514,0.2514,0.2514,0.2514,0.2514,0.2514,0.253,0.256,0.2589,0.2617,0.2565,0.2679,0.2692,0.2692,0.2692,0.2692,0.2692,0.2692,0.2692,0.2692,0.2692,0.2692,0.2692,0.2692,0.2692,0.2692,0.0,0.0,0.0,0.0,0.0,0.0,0.0,0.0,0.0,0.0,0.0,0.0,0.0,-1.809,-1.7296,-1.5623,-1.527,-1.386,-1.0843,-1.0638,-1.0041,-0.8656,-0.8256,-0.8123,-0.8056,-0.7388,-0.6982,-0.6982,-0.6652,-0.6522,-0.6522,-0.6522,-0.6522,-0.6522,-0.6522,-0.6522,-0.6522,-0.6451,-0.6451,-0.6451,-0.6384,-0.6384,-0.6451,-0.6451,-0.6455,-0.6522,-0.6451,-0.6455,-0.6522,-0.6522,-0.6522,-0.6589,-0.6853,-0.7057,-0.7205,-0.7542,-0.7755,-0.7905,-0.8243,-0.8025,-0.781,-0.8088,-0.7598,-0.6987,-0.6982,-0.6723,-0.6076,-0.4584,-0.4298,-0.3441,-0.0427,0.0072,0.0583,0.2041,0.2333,0.2333,0.2333,0.2358,0.239,0.242,0.245,0.2481,0.2511,0.2514,0.2514,0.2514,0.2514,0.2514,0.2514,0.2514,0.2514,0.2514,0.2514,0.2514,0.2514,0.2514,0.253,0.256,0.2589,0.2617,0.2565,0.2679,0.2692,0.2692,0.2692,0.2692,0.2692,0.2692,0.2692,0.2692,0.2692,0.2692,0.2692,0.2692,0.2692,0.2692,0.0,0.0,0.0,0.0,0.0,0.0,0.0,0.0,0.0,0.0,0.0,0.0,0.0,0.0,0.0,0.0,-1.5613,-1.4185,-1.1189,-1.0825,-1.0041,-0.8656,-0.8523,-0.8323,-0.8123,-0.7593,-0.7254,-0.6982,-0.6652,-0.6522,-0.6522,-0.6522,-0.6522,-0.6522,-0.6522,-0.6522,-0.6522,-0.6522,-0.6522,-0.6522,-0.6522,-0.6522,-0.6522,-0.6522,-0.6522,-0.6518,0.0,-0.6719,-0.6522,-0.6522,-0.6522,-0.6589,-0.692,-0.7256,-0.762,-0.8316,-0.8413,-0.8344,-0.8622,-0.8639,-0.8459,-0.8245,-0.794,-0.7655,-0.7388,-0.7054,-0.6661,-0.6215,-0.513,-0.4021,-0.309,-0.1282,0.0216,0.0728,0.1604,0.2333,0.2333,0.2376,0.2412,0.2423,0.2469,0.2503,0.2514,0.2514,0.2514,0.2514,0.2514,0.2514,0.2514,0.2514,0.2514,0.2514,0.2514,0.2514,0.2514,0.2514,0.2519,0.253,0.2578,0.2628,0.2677,0.2688,0.2692,0.2692,0.2692,0.2692,0.2692,0.2692,0.2692,0.2692,0.2692,0.2692,0.2692,0.2692,0.2692,0.2692,0.0,0.0,0.0,0.0,0.0,0.0,0.0,0.0,0.0,0.0,0.0,0.0,0.0,0.0,0.0,0.0,0.0,-1.5306,-1.274,-1.2375,-1.1358,-0.9449,-0.9383,-0.8984,-0.8123,-0.7861,-0.7526,-0.7187,-0.6987,-0.6786,-0.6652,-0.6652,-0.6585,-0.6522,-0.6522,-0.6522,-0.6522,-0.6522,-0.6522,-0.6522,-0.6522,-0.6589,-0.6652,-0.6652,-0.6719,0.0,-0.7121,-0.7054,-0.6857,-0.6857,-0.6857,-0.6924,-0.7254,-0.7699,-0.8121,-0.8697,-0.8793,-0.8711,-0.9003,-0.8976,-0.8917,-0.8523,-0.8272,-0.804,-0.7804,-0.7321,-0.6982,-0.6982,-0.5979,-0.4959,-0.4466,-0.2404,-0.0717,-0.08,0.0947,0.2114,0.1531,0.2012,0.2424,0.2424,0.2477,0.2514,0.2514,0.2514,0.2514,0.2514,0.2514,0.2514,0.2514,0.2514,0.2514,0.2514,0.2514,0.2514,0.2514,0.2514,0.2525,0.2547,0.2594,0.2643,0.2692,0.2692,0.2692,0.2692,0.2692,0.2692,0.2692,0.2692,0.2692,0.2692,0.2692,0.2692,0.2692,0.2692,0.2692,0.2692,0.0,0.0,0.0,0.0,0.0,0.0,0.0,0.0,0.0,0.0,0.0,0.0,0.0,0.0,0.0,0.0,0.0,0.0,-1.5443,-1.5035,-1.3669,-1.0902,-1.077,-0.9908,-0.8256,-0.8123,-0.7927,-0.7526,-0.7526,-0.7321,-0.7054,-0.7054,-0.6853,-0.6518,-0.6518,-0.6522,-0.6522,-0.6522,-0.6522,-0.6522,-0.6522,-0.6719,-0.6982,-0.7054,-0.7254,-0.7526,-0.7526,-0.7526,-0.7526,-0.7526,-0.7526,-0.7593,-0.7999,-0.8333,-0.8644,-0.8814,-0.8884,-0.8938,-0.9237,-0.9215,-0.9035,-0.8922,-0.8591,-0.8199,-0.8159,-0.7593,-0.7054,-0.7054,-0.6796,-0.6203,-0.4745,-0.3252,-0.2223,-0.2324,0.0291,0.1822,0.0291,0.1416,0.2424,0.2424,0.2477,0.2514,0.2514,0.2514,0.2514,0.2514,0.2514,0.2514,0.2514,0.2514,0.2514,0.2514,0.2514,0.2514,0.2514,0.2515,0.2545,0.2602,0.2632,0.2662,0.2692,0.2692,0.2692,0.2692,0.2692,0.2692,0.2692,0.2692,0.2692,0.2692,0.2692,0.2692,0.2692,0.2692,0.2692,0.2692,0.0,0.0,0.0,0.0,0.0,0.0,0.0,0.0,0.0,0.0,0.0,0.0,0.0,0.0,0.0,0.0,0.0,0.0,-1.5605,-1.5319,-1.4337,-1.2347,-1.1226,-1.0505,-1.0041,-0.8784,-0.8056,-0.7927,-0.766,-0.7459,-0.7393,-0.7393,-0.7187,-0.6853,-0.6853,-0.6719,-0.6522,-0.6522,-0.6522,-0.6522,-0.6786,-0.692,-0.7054,-0.7254,-0.7459,-0.7526,-0.7861,-0.7927,-0.7922,-0.7593,-0.7727,-0.8009,-0.8158,-0.8455,-0.8753,-0.8836,-0.8944,-0.903,-0.916,-0.9155,-0.9128,-0.9025,-0.8857,-0.8627,-0.8595,-0.8184,-0.7722,-0.7459,-0.7134,-0.6821,-0.6217,-0.3961,-0.2223,-0.2324,0.0291,0.2187,0.175,0.2086,0.2424,0.2424,0.2477,0.2514,0.2514,0.2514,0.2514,0.2514,0.2514,0.2514,0.2514,0.2514,0.2514,0.2514,0.2514,0.2514,0.2514,0.2537,0.2566,0.2602,0.2632,0.2662,0.2692,0.2692,0.2692,0.2692,0.2692,0.2692,0.2692,0.2692,0.2692,0.2692,0.2692,0.2692,0.2692,0.2692,0.2692,0.2692,0.0,0.0,0.0,0.0,0.0,0.0,0.0,0.0,0.0,0.0,0.0,0.0,0.0,0.0,0.0,0.0,0.0,0.0,0.0,-1.6352,-1.546,-1.3792,-1.2931,-1.1952,-1.0704,-0.9709,-0.8917,-0.8323,-0.8123,-0.7927,-0.7794,-0.7794,-0.7522,-0.6982,-0.7187,-0.692,-0.6522,-0.679,-0.6857,0.0,0.0,-0.7321,-0.7522,-0.7727,-0.7861,-0.7989,-0.8256,-0.8323,-0.8256,-0.8056,-0.8123,-0.8344,-0.846,-0.8633,-0.8807,-0.8981,-0.9008,-0.9144,-0.9193,-0.9209,-0.9198,-0.915,-0.8992,-0.8834,-0.8785,-0.8407,-0.8056,-0.7794,-0.7405,-0.7095,-0.6987,-0.4385,-0.2438,-0.3195,-0.0146,0.2045,0.1395,0.1944,0.2428,0.2442,0.2485,0.2514,0.2514,0.2514,0.2514,0.2514,0.2514,0.2514,0.2514,0.2514,0.2514,0.2514,0.2514,0.2514,0.2514,0.2556,0.2586,0.2602,0.2646,0.2676,0.2692,0.2692,0.2692,0.2692,0.2692,0.2692,0.2692,0.2692,0.2692,0.2692,0.2692,0.2692,0.2692,0.2692,0.2692,0.2692,0.0,0.0,0.0,0.0,0.0,0.0,0.0,0.0,0.0,0.0,0.0,0.0,0.0,0.0,0.0,0.0,0.0,0.0,0.0,0.0,-1.6775,-1.5286,-1.4987,-1.3792,-1.1292,-1.0902,-1.0107,-0.8851,-0.8717,-0.8456,-0.8189,-0.8189,-0.7789,-0.7187,-0.7459,-0.7259,-0.6656,-0.7259,-0.7321,-0.7121,-0.7459,-0.7794,-0.8123,0.0,-0.8323,-0.859,-0.859,-0.859,-0.859,-0.8606,-0.8611,-0.8633,-0.8758,-0.8807,-0.8861,-0.909,-0.9155,-0.9177,-0.9275,-0.9302,-0.928,-0.9182,-0.8981,-0.8852,-0.8818,-0.8485,-0.8128,-0.8143,-0.7626,-0.725,-0.7283,-0.4681,-0.2945,-0.4213,-0.0801,0.161,0.0444,0.1501,0.2435,0.2465,0.2496,0.2514,0.2514,0.2514,0.2514,0.2514,0.2514,0.2514,0.2514,0.2514,0.2514,0.2514,0.2514,0.2517,0.2521,0.2574,0.2604,0.2608,0.2665,0.2692,0.2692,0.2692,0.2692,0.2692,0.2692,0.2692,0.2692,0.2692,0.2692,0.2692,0.2692,0.2692,0.2692,0.2692,0.2692,0.2692,0.0,0.0,0.0,0.0,0.0,0.0,0.0,0.0,0.0,0.0,-1.8631,-1.8433,0.0,0.0,0.0,0.0,0.0,0.0,0.0,0.0,0.0,-1.6984,-1.5662,-1.4651,-1.4184,-1.1886,-1.0571,-1.0373,-0.9183,-0.859,-0.8523,-0.8523,-0.8323,-0.7922,-0.7989,-0.7722,-0.7326,-0.7459,-0.7459,-0.7459,-0.7861,-0.8056,-0.8123,-0.839,0.0,0.0,-0.859,-0.859,-0.86,-0.8704,-0.8736,-0.8758,-0.8883,-0.8992,-0.9101,-0.9237,-0.9275,-0.928,-0.9296,-0.9302,-0.9302,-0.928,-0.9111,-0.8879,-0.8857,-0.8679,-0.8416,-0.8246,-0.7942,-0.7632,-0.7455,-0.5679,-0.3919,-0.291,-0.0947,0.0805,0.1853,0.2253,0.2435,0.2465,0.2496,0.2514,0.2514,0.2514,0.2514,0.2514,0.2514,0.2514,0.2514,0.2514,0.2514,0.2514,0.2514,0.2526,0.2552,0.2585,0.2615,0.2639,0.2675,0.2692,0.2692,0.2692,0.2692,0.2692,0.2692,0.2692,0.2692,0.2692,0.2692,0.2692,0.2692,0.2692,0.2692,0.2692,0.2692,0.2692,0.0,0.0,0.0,0.0,0.0,0.0,0.0,0.0,-1.9362,-1.9155,-1.8663,-1.8433,-1.8433,-1.8433,0.0,0.0,0.0,0.0,0.0,0.0,0.0,0.0,0.0,0.0,-1.4912,-1.3595,-1.2545,-1.1813,0.0,-1.0763,-1.0763,-1.0763,-1.0631,-1.0233,-0.9709,-0.9111,-0.8579,-0.8256,-0.7989,-0.7861,-0.8189,-0.839,-0.839,0.0,0.0,0.0,-0.859,-0.8628,-0.8693,-0.8753,-0.8856,-0.897,-0.903,-0.9014,-0.9155,-0.9269,-0.9302,-0.9302,-0.9302,-0.9302,-0.9302,-0.9302,-0.9177,-0.896,-0.8895,-0.8812,-0.8698,-0.8554,-0.8104,-0.7813,-0.7759,-0.6123,-0.4199,-0.2594,-0.104,0.0523,0.2194,0.2438,0.2458,0.2489,0.2506,0.2514,0.2514,0.2514,0.2514,0.2514,0.2514,0.2514,0.2514,0.2514,0.2514,0.2514,0.2514,0.2529,0.2559,0.2587,0.2617,0.2565,0.2677,0.2692,0.2692,0.2692,0.2692,0.2692,0.2692,0.2692,0.2692,0.2692,0.2692,0.2692,0.2692,0.2692,0.2692,0.2692,0.2692,0.2692,0.0,0.0,0.0,0.0,0.0,0.0,0.0,-2.0298,-1.9558,-1.9079,-1.8631,-1.8433,-1.8433,-1.8433,-1.8433,0.0,0.0,0.0,0.0,0.0,0.0,0.0,0.0,0.0,0.0,0.0,0.0,-1.3259,-1.2931,0.0,0.0,0.0,0.0,0.0,-1.1556,-1.0822,-1.0227,-0.9377,-0.8917,0.0,0.0,-0.859,0.0,0.0,0.0,0.0,0.0,-0.8687,-0.878,-0.8829,-0.8976,-0.9139,-0.916,-0.9171,-0.9188,-0.9275,-0.9302,-0.9302,-0.9302,-0.9302,-0.9302,-0.9302,-0.922,-0.903,-0.8911,-0.8878,-0.8807,-0.8807,-0.8298,-0.7889,-0.8078,-0.6275,-0.4257,-0.2639,-0.1058,0.0532,0.2234,0.2469,0.248,0.2511,0.2514,0.2514,0.2514,0.2514,0.2514,0.2514,0.2514,0.2514,0.2514,0.2514,0.2514,0.2514,0.2514,0.2532,0.2568,0.259,0.262,0.2657,0.2682,0.2692,0.2692,0.2692,0.2692,0.2692,0.2692,0.2692,0.2692,0.2692,0.2692,0.2692,0.2692,0.2692,0.2692,0.2692,0.2692,0.2692,0.0,0.0,0.0,0.0,0.0,0.0,0.0,-2.0185,-1.9503,-1.8914,-1.8595,-1.8433,-1.8433,-1.8433,-1.8433,0.0,0.0,0.0,0.0,0.0,0.0,0.0,0.0,0.0,0.0,0.0,0.0,-1.4716,-1.3456,0.0,0.0,0.0,0.0,0.0,0.0,-1.2602,-1.2405,-1.1094,0.0,0.0,0.0,0.0,0.0,0.0,0.0,0.0,0.0,-0.8758,-0.8802,-0.9024,-0.9117,-0.9155,-0.9258,-0.9291,-0.9291,-0.9302,-0.9302,-0.9302,-0.9302,-0.9302,-0.9302,-0.9302,-0.922,-0.903,-0.8911,-0.8874,-0.8863,-0.8863,-0.848,-0.8082,-0.8269,-0.6355,-0.4226,-0.2644,-0.0982,0.0684,0.2311,0.2469,0.248,0.2511,0.2514,0.2514,0.2514,0.2514,0.2514,0.2514,0.2514,0.2514,0.2514,0.2514,0.2514,0.2514,0.2514,0.2541,0.2597,0.26,0.2631,0.2688,0.2691,0.2692,0.2692,0.2692,0.2692,0.2692,0.2692,0.2692,0.2692,0.2692,0.2692,0.2692,0.2692,0.2692,0.2692,0.2692,0.2692,0.2692,0.0,0.0,0.0,0.0,0.0,0.0,-2.0854,-2.032,-1.9782,-1.8882,-1.8584,-1.8433,-1.8433,-1.8433,-1.8433,0.0,0.0,0.0,0.0,0.0,0.0,0.0,0.0,0.0,0.0,0.0,-1.6148,-1.6148,-1.5619,0.0,0.0,0.0,0.0,0.0,0.0,-1.4054,-1.3923,-1.1688,0.0,0.0,0.0,0.0,0.0,0.0,0.0,0.0,0.0,0.0,-0.9003,-0.9101,-0.9182,-0.9242,-0.9291,-0.9302,-0.9302,-0.9302,-0.9302,-0.9302,-0.9302,-0.9302,-0.9302,-0.9302,-0.9269,-0.9204,-0.9019,-0.8992,-0.9008,-0.915,-0.8811,-0.844,-0.845,-0.7465,-0.5746,-0.2932,-0.1931,-0.0542,0.2104,0.2496,0.25,0.2512,0.2514,0.2514,0.2514,0.2514,0.2514,0.2514,0.2514,0.2514,0.2514,0.2514,0.2514,0.2514,0.2532,0.2562,0.2601,0.262,0.265,0.2692,0.2692,0.2692,0.2692,0.2692,0.2692,0.2692,0.2692,0.2692,0.2692,0.2692,0.2692,0.2692,0.2692,0.2692,0.2692,0.2692,0.2692,0.2692,0.0,0.0,0.0,0.0,0.0,-2.1915,-2.0761,-2.0409,-1.9892,-1.8795,-1.8541,-1.8433,-1.8433,-1.8433,-1.8433,-1.8433,0.0,0.0,0.0,0.0,0.0,0.0,0.0,0.0,0.0,0.0,-1.7001,-1.7001,-1.7001,-1.7001,0.0,0.0,-1.7001,-1.6936,0.0,0.0,0.0,0.0,0.0,0.0,0.0,0.0,0.0,0.0,0.0,0.0,0.0,0.0,0.0,0.0,0.0,-0.9302,-0.9302,-0.9302,-0.9302,-0.9302,-0.9302,-0.9302,-0.9302,-0.9302,-0.9302,-0.9302,-0.9302,-0.9275,-0.916,-0.9188,-0.9253,-0.9296,-0.9024,-0.88,-0.8655,-0.7872,-0.6206,-0.3052,-0.2115,-0.0784,0.212,0.2514,0.2514,0.2514,0.2514,0.2514,0.2514,0.2514,0.2514,0.2514,0.2514,0.2514,0.2514,0.2514,0.2514,0.2514,0.2544,0.2574,0.2601,0.2631,0.2662,0.2692,0.2692,0.2692,0.2692,0.2692,0.2692,0.2692,0.2692,0.2692,0.2692,0.2692,0.2692,0.2692,0.2692,0.2692,0.2692,0.2692,0.2692,0.2692,0.0,0.0,0.0,0.0,0.0,0.0,0.0,-2.0306,-1.9836,-1.8568,-1.8363,-1.8433,-1.8433,-1.8433,-1.8433,-1.8433,0.0,0.0,0.0,0.0,0.0,0.0,0.0,0.0,0.0,0.0,-1.7001,-1.7001,-1.7001,-1.7001,-1.7001,-1.7001,-1.7001,-1.7001,0.0,0.0,0.0,0.0,0.0,0.0,0.0,0.0,-0.8879,0.0,0.0,0.0,0.0,0.0,0.0,0.0,0.0,0.0,0.0,-0.9302,-0.9302,-0.9302,-0.9302,-0.9302,-0.9302,-0.9302,-0.9302,-0.9302,-0.9302,-0.9275,-0.916,-0.9313,-0.9449,-0.9329,-0.9212,-0.9071,-0.8693,-0.6988,-0.493,-0.282,-0.1098,0.0549,0.2278,0.2514,0.2514,0.2514,0.2514,0.2514,0.2514,0.2514,0.2514,0.2514,0.2514,0.2514,0.2514,0.2514,0.2514,0.2514,0.2544,0.2574,0.2601,0.2631,0.2662,0.2692,0.2692,0.2692,0.2692,0.2692,0.2692,0.2692,0.2692,0.2692,0.2692,0.2692,0.2692,0.2692,0.2692,0.2692,0.2692,0.2692,0.2692,0.2692,0.0,0.0,0.0,0.0,0.0,0.0,0.0,-2.0439,-1.998,-1.8909,-1.8573,-1.8433,-1.8433,-1.8433,-1.8433,-1.8433,0.0,0.0,0.0,0.0,0.0,0.0,0.0,0.0,0.0,0.0,-1.7001,-1.7001,-1.7001,-1.7001,-1.7001,-1.7001,-1.7001,-1.7001,-1.7001,-1.7098,0.0,0.0,0.0,0.0,0.0,-1.2106,-1.2208,0.0,0.0,0.0,0.0,0.0,0.0,0.0,0.0,0.0,0.0,0.0,0.0,-0.9302,-0.9302,-0.9302,-0.9302,-0.9302,-0.9302,-0.9302,-0.9302,-0.9296,-0.9258,-0.9372,-0.9497,-0.9546,-0.9629,-0.9407,-0.8871,-0.7267,-0.5324,-0.2899,-0.1098,0.0549,0.2278,0.2514,0.2514,0.2514,0.2514,0.2514,0.2514,0.2514,0.2514,0.2514,0.2514,0.2514,0.2514,0.2514,0.2523,0.2545,0.2574,0.2602,0.2632,0.2662,0.2683,0.2692,0.2692,0.2692,0.2692,0.2692,0.2692,0.2692,0.2692,0.2692,0.2692,0.2692,0.2692,0.2692,0.2692,0.2692,0.2692,0.2692,0.2692,0.2692,0.0,0.0,0.0,0.0,0.0,0.0,0.0,-2.037,-1.9795,-1.8898,-1.8573,-1.8433,-1.8433,-1.8433,-1.8433,-1.8433,0.0,0.0,0.0,0.0,0.0,0.0,0.0,0.0,-1.7152,-1.7055,-1.7001,-1.7001,-1.7001,-1.7001,-1.7001,-1.7001,-1.7055,-1.7141,-1.7141,-1.7281,0.0,0.0,0.0,0.0,-1.3861,-1.3682,-1.3779,0.0,0.0,0.0,0.0,0.0,0.0,0.0,0.0,0.0,0.0,0.0,0.0,0.0,-0.9302,-0.9302,-0.9302,-0.9302,-0.9302,-0.9302,-0.9302,-0.9318,-0.9362,-0.9465,-0.959,-0.9709,-0.9824,-0.9464,-0.8136,-0.6971,-0.5245,-0.2037,-0.0706,0.0549,0.2278,0.2514,0.2514,0.2514,0.2514,0.2514,0.2514,0.2514,0.2514,0.2514,0.2514,0.2514,0.2514,0.2514,0.2533,0.2574,0.2593,0.2616,0.2563,0.2677,0.2692,0.2692,0.2692,0.2692,0.2692,0.2692,0.2692,0.2692,0.2692,0.2692,0.0,0.2692,0.2692,0.2692,0.2692,0.2692,0.2692,0.2692,0.2692,0.2692,0.0,0.0,0.0,0.0,0.0,0.0,0.0,0.0,0.0,-1.8536,-1.8433,-1.8433,-1.8433,-1.8433,-1.8433,-1.8433,0.0,0.0,0.0,0.0,0.0,0.0,0.0,0.0,-1.7389,-1.713,-1.7001,-1.7001,-1.7001,-1.7001,-1.7001,-1.7023,-1.7152,-1.7378,-1.74,-1.7529,-1.763,-1.6461,-1.5996,-1.5867,-1.4735,-1.4236,0.0,0.0,0.0,0.0,0.0,0.0,0.0,0.0,0.0,0.0,0.0,0.0,0.0,0.0,0.0,0.0,0.0,-0.9302,-0.9302,-0.9302,-0.9302,-0.9334,-0.9459,-0.9579,0.0,-0.9813,-0.9932,-0.9314,-0.6967,-0.6264,-0.4855,-0.0862,0.0,0.0706,0.2278,0.2514,0.2514,0.2514,0.2514,0.2514,0.2514,0.2514,0.2514,0.2514,0.2514,0.2514,0.2514,0.2514,0.2541,0.26,0.2601,0.2617,0.2567,0.2679,0.2692,0.2692,0.2692,0.2692,0.2692,0.2692,0.2692,0.2692,0.2692,0.2692,0.2692,0.2692,0.2692,0.2692,0.2692,0.2692,0.2692,0.2692,0.2692,0.2692,0.0,0.0,0.0,0.0,0.0,0.0,0.0,0.0,0.0,0.0,-1.8573,-1.8433,-1.8433,-1.8433,-1.8433,0.0,0.0,0.0,0.0,0.0,0.0,0.0,0.0,0.0,-1.7389,-1.713,-1.7001,-1.7001,-1.7001,-1.7001,-1.7001,-1.7195,-1.7324,-1.7389,-1.7561,-1.7776,-1.8024,-1.7833,-1.7778,-1.7788,-1.7489,-1.7369,0.0,0.0,0.0,0.0,-1.523,-1.4378,0.0,0.0,0.0,0.0,0.0,0.0,0.0,0.0,-0.9302,-0.9302,-0.9302,0.0,-0.9302,-0.9302,-0.9302,-0.9334,0.0,-0.9579,-0.9704,-0.9813,-0.9932,-0.9708,-0.8852,-0.6336,-0.3912,-0.2583,0.0,0.2042,0.2435,0.2514,0.2514,0.2514,0.2514,0.2514,0.2514,0.2514,0.2514,0.2514,0.2514,0.2514,0.2514,0.2514,0.2541,0.26,0.2601,0.2627,0.2682,0.2688,0.2692,0.2692,0.2692,0.2692,0.2692,0.2692,0.2692,0.2692,0.2692,0.2692,0.2692,0.2692,0.2692,0.2692,0.2692,0.2692,0.2692,0.2692,0.2692,0.2692,0.0,0.0,0.0,0.0,0.0,0.0,0.0,0.0,0.0,0.0,0.0,0.0,0.0,0.0,0.0,0.0,0.0,0.0,0.0,0.0,0.0,0.0,0.0,-1.783,-1.7712,-1.7356,-1.7173,-1.7173,-1.7066,-1.7066,-1.7184,-1.7313,-1.7496,-1.7712,-1.7949,-1.8067,-1.811,-1.8336,-1.8433,-1.8433,-1.8433,0.0,0.0,0.0,0.0,0.0,-1.6442,-1.5664,0.0,-1.2373,-1.1586,-1.1299,0.0,0.0,0.0,0.0,-0.9302,-0.9302,-0.9302,-0.9302,-0.9302,-0.9302,-0.9302,-0.9351,-0.953,-0.9622,-0.9715,-0.9889,-0.9976,-0.9392,-0.7439,-0.5298,-0.311,-0.1096,0.101,0.2477,0.2492,0.2506,0.2514,0.2514,0.2514,0.2514,0.2514,0.2514,0.2514,0.2514,0.2514,0.2514,0.2514,0.2514,0.2541,0.26,0.2601,0.2631,0.2691,0.2692,0.2692,0.2692,0.2692,0.2692,0.2692,0.2692,0.2692,0.2692,0.2692,0.2692,0.2692,0.2692,0.2692,0.2692,0.2692,0.2692,0.2692,0.2692,0.2692,0.2692,0.0,0.0,0.0,0.0,0.0,0.0,0.0,0.0,0.0,0.0,0.0,0.0,0.0,0.0,0.0,0.0,0.0,0.0,0.0,0.0,0.0,0.0,0.0,-1.8099,-1.8099,-1.7658,-1.7432,-1.7432,-1.7217,-1.7217,-1.7432,-1.7475,-1.7723,-1.8153,-1.8347,-1.8326,-1.8164,-1.8358,-1.8433,-1.8433,-1.8433,0.0,0.0,0.0,0.0,0.0,0.0,0.0,0.0,-1.2945,-1.1801,-1.1299,-0.9801,0.0,0.0,0.0,0.0,0.0,-0.9302,-0.9302,-0.9302,-0.9302,-0.9302,-0.9362,-0.959,-0.9655,-0.9731,-0.9949,-1.0008,-0.892,-0.5387,-0.4263,-0.2629,0.0938,0.2005,0.2446,0.2472,0.2497,0.2514,0.2514,0.2514,0.2514,0.2514,0.2514,0.2514,0.2514,0.2514,0.2514,0.2514,0.2514,0.2541,0.26,0.2601,0.2631,0.2691,0.2692,0.2692,0.2692,0.2692,0.2692,0.2692,0.2692,0.2692,0.2692,0.2692,0.2692,0.2692,0.2692,0.2692,0.2692,0.2692,0.2692,0.2692,0.2692,0.2692,0.2692,0.0,0.0,0.0,0.0,0.0,0.0,0.0,0.0,0.0,0.0,0.0,0.0,0.0,0.0,0.0,0.0,0.0,0.0,0.0,0.0,0.0,-1.8433,-1.8218,-1.8099,-1.8099,-1.7809,-1.7669,-1.7669,-1.7626,-1.7626,-1.7669,-1.7884,-1.8132,-1.8379,-1.8422,-1.8412,-1.8379,-1.8422,-1.8433,-1.8433,-1.8433,0.0,0.0,0.0,0.0,0.0,0.0,0.0,0.0,-1.4164,-1.2659,-1.1299,-0.9801,0.0,0.0,0.0,0.0,0.0,-0.9302,-0.9302,-0.9302,-0.9302,-0.9302,-0.934,-0.9481,-0.9595,-0.9709,-0.984,-0.9949,-0.9284,-0.6949,-0.5039,-0.3034,-0.0695,0.1243,0.2502,0.2507,0.2511,0.2514,0.2514,0.2514,0.2514,0.2514,0.2514,0.2514,0.2514,0.2514,0.2514,0.2514,0.2514,0.2541,0.26,0.2601,0.2631,0.2691,0.2692,0.2692,0.2692,0.2692,0.2692,0.2692,0.2692,0.2692,0.2692,0.2692,0.2692,0.2692,0.2692,0.2692,0.2692,0.2692,0.2692,0.2692,0.2692,0.2692,0.2692,0.0,0.0,0.0,0.0,0.0,0.0,0.0,0.0,0.0,0.0,0.0,0.0,0.0,0.0,0.0,0.0,0.0,0.0,0.0,0.0,0.0,-1.8433,-1.8336,-1.8282,-1.8282,-1.8046,-1.7916,-1.7916,-1.7787,-1.7787,-1.7927,-1.8164,-1.8272,-1.8261,-1.8379,-1.8369,-1.8261,-1.8379,-1.8433,-1.8433,0.0,0.0,0.0,0.0,0.0,0.0,0.0,0.0,0.0,0.0,-1.2873,-1.1299,-0.9801,0.0,0.0,0.0,0.0,0.0,-0.9302,-0.9302,-0.9302,-0.9302,-0.9302,-0.9334,-0.9459,-0.953,-0.9606,-0.972,-0.9791,-0.8964,-0.6018,-0.4484,-0.273,0.0453,0.1843,0.2489,0.2489,0.2504,0.2514,0.2514,0.2514,0.2514,0.2514,0.2514,0.2514,0.2514,0.2514,0.2514,0.2514,0.253,0.2557,0.26,0.2617,0.2647,0.2692,0.2692,0.2692,0.2692,0.2692,0.2692,0.2692,0.2692,0.2692,0.2692,0.2692,0.2692,0.2692,0.2692,0.2692,0.2692,0.2692,0.2692,0.2692,0.2692,0.2692,0.2692,0.0,0.0,0.0,0.0,0.0,0.0,0.0,0.0,0.0,0.0,0.0,0.0,0.0,0.0,0.0,0.0,0.0,0.0,0.0,0.0,-1.8433,-1.8433,-1.8433,-1.8433,-1.8433,-1.8261,-1.8175,-1.8175,-1.7981,-1.7981,-1.8175,-1.8358,-1.8336,-1.8186,-1.8358,-1.8336,-1.8186,-1.8358,-1.8433,-1.8433,0.0,0.0,0.0,0.0,0.0,0.0,0.0,0.0,0.0,0.0,0.0,0.0,0.0,0.0,0.0,-0.9313,-0.9302,-0.9302,-0.9302,-0.9302,-0.9302,-0.9302,-0.9302,-0.9329,-0.9421,-0.9465,-0.944,-0.9159,-0.9045,-0.792,-0.4211,-0.2833,-0.1262,0.1946,0.2439,0.2472,0.2478,0.25,0.2514,0.2514,0.2514,0.2514,0.2514,0.2514,0.2514,0.2514,0.2514,0.2514,0.2514,0.2536,0.2566,0.2601,0.2624,0.2654,0.2692,0.2692,0.2692,0.2692,0.2692,0.2692,0.2692,0.2692,0.2692,0.2692,0.2692,0.2692,0.2692,0.2692,0.2692,0.2692,0.2692,0.2692,0.2692,0.2692,0.2692,0.2692,0.0,0.0,0.0,0.0,0.0,0.0,0.0,0.0,0.0,0.0,0.0,0.0,0.0,0.0,0.0,0.0,0.0,0.0,0.0,0.0,-1.8433,-1.8433,-1.8433,-1.8433,-1.8433,-1.8422,-1.8412,-1.8412,-1.839,-1.839,-1.8412,-1.8352,-1.8352,-1.8412,-1.8352,-1.8352,-1.8412,-1.8363,-1.8433,-1.8433,-1.8433,0.0,0.0,0.0,0.0,0.0,0.0,0.0,0.0,0.0,0.0,0.0,0.0,0.0,-0.9454,-0.934,-0.9302,-0.9302,-0.9302,-0.9302,-0.9302,-0.9302,-0.9302,-0.9307,-0.9313,-0.9405,-0.9118,-0.7642,-0.7186,-0.5862,-0.2157,0.0371,0.2096,0.2453,0.2466,0.2478,0.2507,0.2512,0.2514,0.2514,0.2514,0.2514,0.2514,0.2514,0.2514,0.2514,0.2514,0.2514,0.2514,0.2517,0.2544,0.26,0.2604,0.2632,0.2691,0.2692,0.2692,0.2692,0.2692,0.2692,0.2692,0.2692,0.2692,0.2692,0.2692,0.2692,0.2692,0.2692,0.2692,0.2692,0.2692,0.2692,0.2692,0.2692,0.2692,0.2692,0.0,0.0,0.0,0.0,0.0,0.0,0.0,0.0,0.0,0.0,0.0,0.0,0.0,0.0,0.0,0.0,0.0,0.0,0.0,-1.8433,-1.8433,-1.8433,-1.8433,-1.8433,-1.8433,-1.8433,-1.8433,-1.8433,-1.8433,-1.8433,-1.8433,-1.8433,-1.8433,-1.8433,-1.8433,-1.8433,-1.8433,-1.8433,-1.8433,-1.8374,-1.8595,-1.8649,0.0,0.0,0.0,0.0,0.0,0.0,0.0,0.0,-1.4777,-1.2108,-1.2053,-1.0928,-0.9579,-0.9454,-0.9416,-0.94,-0.9323,-0.9302,-0.9302,-0.9302,-0.9302,-0.9302,-0.9302,-0.934,-0.9227,-0.8639,-0.7495,-0.5372,-0.154,0.088,0.2364,0.2406,0.2428,0.2451,0.2482,0.2503,0.2514,0.2514,0.2514,0.2514,0.2514,0.2514,0.2514,0.2514,0.2514,0.2514,0.2514,0.2532,0.256,0.26,0.262,0.265,0.2692,0.2692,0.2692,0.2692,0.2692,0.2692,0.2692,0.2692,0.2692,0.2692,0.2692,0.2692,0.2692,0.2692,0.2692,0.2692,0.2692,0.2692,0.2692,0.2692,0.2692,0.2692,0.0,0.0,0.0,0.0,0.0,0.0,0.0,0.0,0.0,0.0,0.0,0.0,0.0,0.0,0.0,0.0,0.0,0.0,-1.8433,-1.8433,-1.8433,-1.8433,-1.8433,-1.8433,-1.8433,-1.8433,-1.8433,-1.8433,-1.8433,-1.8433,-1.8433,-1.8433,-1.8433,-1.8433,-1.8433,-1.8433,-1.8433,-1.8433,-1.8476,-1.8562,-1.8724,-1.8832,0.0,0.0,0.0,0.0,0.0,0.0,0.0,0.0,-1.569,-1.2996,-1.2945,-1.144,-0.9699,-0.9579,-0.9519,-0.947,-0.9383,-0.9334,-0.9302,-0.9302,-0.9302,-0.9302,-0.9302,-0.9302,-0.9157,-0.8646,-0.654,-0.3705,-0.0291,0.1384,0.2343,0.2373,0.2403,0.2433,0.2465,0.2495,0.2514,0.2514,0.2514,0.2514,0.2514,0.2514,0.2514,0.2514,0.2514,0.2514,0.2514,0.2534,0.2563,0.2601,0.2622,0.2652,0.2692,0.2692,0.2692,0.2692,0.2692,0.2692,0.2692,0.2692,0.2692,0.2692,0.2692,0.2692,0.2692,0.2692,0.2692,0.2692,0.2692,0.2692,0.2692,0.2692,0.2692,0.2692,0.0,0.0,0.0,0.0,0.0,0.0,0.0,0.0,0.0,0.0,0.0,0.0,0.0,0.0,0.0,0.0,0.0,0.0,-1.8433,-1.8433,-1.8433,-1.8433,-1.8433,-1.8433,-1.8433,-1.8433,-1.8433,-1.8433,-1.8433,-1.8433,-1.8433,-1.8433,-1.8433,-1.8433,-1.8433,-1.8433,-1.8433,-1.8363,-1.8573,-1.8789,-1.8789,-1.8939,-1.9103,0.0,0.0,0.0,0.0,0.0,0.0,0.0,-1.7702,-1.4911,-1.4808,-1.2485,-0.9818,-0.9704,-0.9584,-0.9492,-0.9487,-0.94,-0.9307,-0.9302,-0.9302,-0.9302,-0.9302,-0.9302,-0.8868,-0.7268,-0.3925,-0.0509,0.1894,0.2333,0.2342,0.2373,0.2403,0.2433,0.2463,0.2495,0.2514,0.2514,0.2514,0.2514,0.2514,0.2514,0.2514,0.2514,0.2514,0.2514,0.2514,0.2514,0.2541,0.26,0.2601,0.2631,0.2691,0.2692,0.2692,0.2692,0.2692,0.2692,0.2692,0.2692,0.2692,0.2692,0.2692,0.2692,0.2692,0.2692,0.2692,0.2692,0.2692,0.2692,0.2692,0.2692,0.2692,0.2692,0.0,0.0,0.0,0.0,0.0,0.0,0.0,0.0,0.0,0.0,0.0,0.0,0.0,0.0,0.0,0.0,0.0,0.0,-1.8433,-1.8433,-1.8433,-1.8433,-1.8433,-1.8433,-1.8433,-1.8433,-1.8433,-1.8433,-1.8433,-1.8433,-1.8433,-1.8433,-1.8433,-1.8433,-1.8433,-1.8433,-1.8374,-1.8605,-1.8724,-1.881,-1.9155,-1.9327,-1.9424,0.0,0.0,0.0,0.0,0.0,0.0,0.0,0.0,0.0,-1.4879,-1.2567,-0.9943,-0.9824,-0.9764,-0.9699,-0.953,-0.9459,-0.941,-0.9323,-0.9302,-0.9302,-0.9302,-0.9302,-0.843,-0.5229,-0.2762,-0.0509,0.1894,0.2333,0.2335,0.2345,0.2372,0.2402,0.2432,0.2463,0.2491,0.2512,0.2514,0.2514,0.2514,0.2514,0.2514,0.2514,0.2514,0.2514,0.2514,0.2514,0.2541,0.26,0.2601,0.2631,0.2691,0.2692,0.2692,0.2692,0.2692,0.2692,0.2692,0.2692,0.2692,0.2692,0.2692,0.2692,0.2692,0.2692,0.2692,0.2692,0.2692,0.2692,0.2692,0.2692,0.2692,0.2692,0.0,0.0,0.0,0.0,0.0,0.0,0.0,0.0,0.0,0.0,-2.2284,-2.139,0.0,0.0,0.0,0.0,0.0,0.0,0.0,-1.8433,-1.8433,-1.8433,-1.8433,-1.8433,-1.8433,-1.8433,-1.8433,-1.8433,-1.8433,-1.8433,-1.8433,-1.8433,-1.8433,-1.8433,-1.8433,-1.8487,-1.8584,-1.8724,-1.8896,-1.909,-1.9381,-1.9553,-1.965,0.0,0.0,0.0,0.0,0.0,0.0,0.0,0.0,0.0,-1.5863,-1.3637,-1.1005,-1.0922,-1.0332,-0.9807,-0.9666,-0.9557,-0.947,-0.9394,-0.934,-0.9302,-0.9302,-0.9302,-0.8208,-0.4283,-0.276,-0.1236,0.1749,0.2333,0.2333,0.2333,0.2358,0.2388,0.242,0.245,0.248,0.2511,0.2514,0.2514,0.2514,0.2514,0.2514,0.2514,0.2514,0.2514,0.2514,0.2514,0.2541,0.26,0.2601,0.2631,0.2691,0.2692,0.2692,0.2692,0.2692,0.2692,0.2692,0.2692,0.2692,0.2692,0.2692,0.2692,0.2692,0.2692,0.2692,0.2692,0.2692,0.2692,0.2692,0.2692,0.2692,0.2692,0.0,0.0,0.0,0.0,0.0,0.0,0.0,0.0,0.0,0.0,-2.3119,-2.2147,0.0,0.0,0.0,0.0,0.0,0.0,0.0,0.0,-1.8433,-1.8433,-1.8433,-1.8433,-1.8433,-1.8433,-1.8433,-1.8433,-1.8433,-1.8433,-1.8433,-1.8433,-1.8433,-1.8433,-1.8455,-1.8584,-1.8789,-1.8832,-1.9101,-1.9499,-1.9521,-1.9661,-1.9919,-1.9919,0.0,0.0,0.0,0.0,0.0,0.0,0.0,0.0,-1.7245,-1.502,-1.2488,-1.2333,-1.1087,-0.9851,-0.984,-0.9682,-0.9514,-0.9492,-0.9394,-0.9302,-0.9302,-0.9302,-0.8208,-0.4356,-0.3413,-0.2179,0.1603,0.226,0.2333,0.2333,0.2356,0.2384,0.2416,0.2446,0.2476,0.2507,0.2512,0.2514,0.2514,0.2514,0.2514,0.2514,0.2514,0.2514,0.2514,0.2514,0.254,0.2596,0.26,0.263,0.2688,0.2691,0.2692,0.2692,0.2692,0.2692,0.2692,0.2692,0.2692,0.2692,0.2692,0.2692,0.2692,0.2692,0.2692,0.2692,0.2692,0.2692,0.2692,0.2692,0.2692,0.2692,0.0,0.0,0.0,0.0,0.0,0.0,0.0,0.0,0.0,0.0,0.0,0.0,0.0,0.0,0.0,0.0,0.0,0.0,0.0,0.0,-1.8433,-1.8433,-1.8433,-1.8433,-1.8433,-1.8433,-1.8433,-1.8433,-1.8433,-1.8433,-1.8433,-1.8433,-1.8433,-1.8444,-1.8627,-1.8735,-1.881,-1.9187,-1.9402,-1.9521,-1.9704,-1.9876,-1.9919,-1.9919,-1.9919,0.0,0.0,0.0,0.0,0.0,0.0,0.0,-1.5863,-1.4099,-1.2256,-1.0946,-1.023,-0.996,-0.9862,-0.9802,-0.972,-0.9536,-0.9394,-0.9302,-0.9302,-0.9302,-0.828,-0.4721,-0.2762,-0.0946,0.1457,0.2114,0.2333,0.2333,0.2338,0.2353,0.2384,0.2414,0.2444,0.2476,0.25,0.2514,0.2514,0.2514,0.2514,0.2514,0.2514,0.2514,0.2514,0.2514,0.2532,0.2568,0.259,0.2619,0.2657,0.268,0.2692,0.2692,0.2692,0.2692,0.2692,0.2692,0.2692,0.2692,0.2692,0.2692,0.2692,0.2692,0.2692,0.2692,0.2692,0.2692,0.2692,0.2692,0.2692,0.2692,0.0,0.0,0.0,0.0,0.0,0.0,0.0,0.0,0.0,0.0,0.0,0.0,0.0,0.0,0.0,0.0,0.0,0.0,0.0,0.0,-1.8433,-1.8433,-1.8433,-1.8433,-1.8433,-1.8433,-1.8433,-1.8433,-1.8552,-1.8541,-1.8363,-1.8552,-1.8605,-1.8616,-1.8853,-1.9025,-1.9144,-1.9391,-1.9564,-1.9671,-1.9876,-1.9919,-1.9919,-1.9919,-1.9919,-1.9919,-1.9919,0.0,0.0,0.0,0.0,0.0,0.0,0.0,-1.2333,-1.1482,-1.0635,-1.0008,-0.9943,-0.9883,-0.978,-0.9546,-0.9394,-0.9302,-0.9302,-0.9302,-0.8574,-0.6029,-0.3778,-0.1454,0.1311,0.2041,0.2333,0.2333,0.2333,0.2343,0.2373,0.2391,0.2418,0.2463,0.2482,0.2499,0.2512,0.2514,0.2514,0.2514,0.2514,0.2514,0.2514,0.2514,0.2529,0.2559,0.2587,0.2616,0.2563,0.2677,0.2692,0.2692,0.2692,0.2692,0.2692,0.2692,0.2692,0.2692,0.2692,0.2692,0.2692,0.2692,0.2692,0.2692,0.2692,0.2692,0.2692,0.2692,0.2692,0.2692,0.0,0.0,0.0,0.0,0.0,0.0,0.0,0.0,0.0,0.0,0.0,0.0,0.0,0.0,0.0,0.0,0.0,0.0,0.0,0.0,0.0,-1.8492,-1.8492,-1.8492,-1.8492,-1.8492,-1.8492,-1.8492,-1.8756,-1.8745,-1.8562,-1.8756,-1.8842,-1.8853,-1.9101,-1.9316,-1.9499,-1.9542,-1.9671,-1.9919,-1.9919,-1.9919,-1.9919,-1.9919,-1.9919,-1.9919,-1.9919,-1.9919,-1.9919,-1.9919,0.0,0.0,0.0,0.0,-1.279,-1.2256,-1.1101,-1.0019,-1.0019,-0.9932,-0.9786,-0.9574,-0.9427,-0.9329,-0.9307,-0.9302,-0.8868,-0.734,-0.5156,-0.2542,0.0655,0.1821,0.2333,0.2333,0.2333,0.2342,0.2367,0.2375,0.2397,0.2447,0.2462,0.2478,0.2504,0.2511,0.2514,0.2514,0.2514,0.2514,0.2514,0.2514,0.2526,0.2551,0.2579,0.2609,0.2639,0.2669,0.2687,0.2692,0.2692,0.2692,0.2692,0.2692,0.2692,0.2692,0.2692,0.2692,0.2692,0.2692,0.2692,0.2692,0.2692,0.2692,0.2692,0.2692,0.2692,0.2692,0.0,0.0,0.0,0.0,0.0,0.0,0.0,0.0,0.0,0.0,-2.5746,-2.5326,0.0,0.0,0.0,0.0,0.0,0.0,0.0,0.0,0.0,-1.8985,-1.8985,-1.8985,-1.8985,-1.8985,-1.8985,-1.8985,-1.9017,-1.9017,-1.8985,-1.9017,-1.9028,-1.9039,-1.9348,-1.9467,-1.951,-1.9714,-1.9898,-1.9919,-1.9919,-1.9919,-1.9919,-1.9919,-1.9919,-1.9919,-1.9919,-1.9919,-1.9919,-1.9919,-1.9768,0.0,0.0,0.0,-1.4022,-1.1172,-1.0175,-1.0019,-1.0019,-0.9932,-0.9807,-0.9677,-0.9552,-0.9432,-0.9329,-0.9302,-0.8868,-0.734,-0.5156,-0.2978,-0.1164,0.0874,0.2333,0.2333,0.2333,0.2334,0.2338,0.2361,0.2382,0.239,0.2436,0.247,0.2474,0.2499,0.2514,0.2514,0.2514,0.2514,0.2514,0.2514,0.2517,0.2521,0.2549,0.2579,0.2608,0.2638,0.2667,0.2692,0.2692,0.2692,0.2692,0.2692,0.2692,0.2692,0.2692,0.2692,0.2692,0.2692,0.2692,0.2692,0.2692,0.2692,0.2692,0.2692,0.2692,0.2692,0.0,0.0,0.0,0.0,0.0,0.0,0.0,0.0,0.0,0.0,0.0,-2.5596,0.0,0.0,0.0,0.0,0.0,0.0,0.0,0.0,0.0,-1.9082,-1.9082,-1.9082,-1.9082,-1.9082,-1.9082,-1.9082,-1.9284,-1.9348,-1.9348,-1.9478,-1.9467,-1.9359,-1.9585,-1.9693,-1.9704,-1.9876,-1.9919,-1.9919,-1.9919,-1.9919,-1.9919,-1.9919,-1.9919,-1.9919,-1.9919,-1.9919,-1.9919,-1.9919,-1.9315,-1.8092,-1.5633,0.0,0.0,0.0,-1.0019,-1.0019,-1.0019,-0.9932,-0.9813,-0.9699,-0.9579,-0.9454,-0.9334,-0.9302,-0.9085,-0.843,-0.6608,-0.4286,-0.1673,0.0728,0.2333,0.2333,0.2333,0.2333,0.2333,0.2345,0.2358,0.2376,0.2417,0.245,0.2467,0.2496,0.2514,0.2514,0.2514,0.2514,0.2514,0.2514,0.2514,0.2514,0.2544,0.2574,0.2601,0.2631,0.2662,0.2692,0.2692,0.2692,0.2692,0.2692,0.2692,0.2692,0.2692,0.2692,0.2692,0.2692,0.2692,0.2692,0.2692,0.2692,0.2692,0.2692,0.2692,0.2692,0.0,0.0,0.0,0.0,0.0,0.0,0.0,0.0,0.0,0.0,0.0,0.0,0.0,0.0,0.0,0.0,0.0,0.0,0.0,0.0,0.0,-1.9327,-1.9327,-1.9327,-1.9327,-1.9327,-1.9327,-1.9327,-1.9499,-1.9585,-1.9596,-1.9844,-1.9758,-1.9596,-1.9844,-1.9919,-1.9919,-1.9919,-1.9919,-1.9919,-1.9919,-1.9919,-1.9919,-1.9919,-1.9919,-1.9919,-1.9919,-1.9919,-1.9919,-1.9919,-1.9077,-1.7702,-1.6092,-1.4406,0.0,0.0,0.0,-1.0019,-1.0019,-0.9954,-0.9856,-0.9742,-0.9622,-0.9503,-0.9378,-0.9329,-0.9302,-0.9302,-0.7774,-0.5449,-0.2327,0.0073,0.1749,0.2187,0.2333,0.2333,0.2333,0.2333,0.2341,0.2364,0.2394,0.2424,0.2455,0.2485,0.2506,0.2514,0.2514,0.2514,0.2514,0.2514,0.2514,0.2514,0.2536,0.2566,0.2601,0.2639,0.2671,0.2692,0.2692,0.2692,0.2692,0.2692,0.2692,0.2692,0.2692,0.2692,0.2692,0.2692,0.2692,0.2692,0.2692,0.2692,0.2692,0.2692,0.2692,0.2692,0.0,0.0,0.0,0.0,0.0,0.0,0.0,0.0,0.0,0.0,0.0,0.0,-2.5304,-2.5084,-2.463,-2.3449,0.0,0.0,0.0,0.0,0.0,-1.9887,-1.9887,0.0,-1.9887,-1.9887,-1.9887,-1.9887,-1.9898,-1.9908,-1.9908,-1.9919,-1.9919,-1.9908,-1.9919,-1.9919,-1.9919,-1.9919,-1.9919,-1.9919,-1.9919,-1.9919,-1.9919,-1.9919,-1.9919,-1.9919,-1.9919,-1.9919,-1.9919,-1.9919,-1.9844,-1.9466,-1.7788,-1.6092,-1.4483,0.0,0.0,0.0,-1.0019,-1.0014,-0.9981,-0.9856,-0.9742,-0.9628,-0.9503,-0.9389,-0.9302,-0.9302,-0.7774,-0.5812,-0.3776,-0.1744,0.0146,0.1968,0.2333,0.2333,0.2333,0.2333,0.2334,0.2335,0.2363,0.2393,0.2423,0.2454,0.2484,0.2512,0.2514,0.2514,0.2514,0.2514,0.2514,0.2514,0.2515,0.2544,0.2601,0.266,0.2691,0.2692,0.2692,0.2692,0.2692,0.2692,0.2692,0.2692,0.2692,0.2692,0.2692,0.2692,0.2692,0.2692,0.2692,0.2692,0.2692,0.2692,0.2692,0.2692,0.0,0.0,0.0,0.0,0.0,0.0,0.0,0.0,0.0,0.0,0.0,0.0,0.0,-2.4978,-2.3857,-2.3413,-2.1625,0.0,0.0,0.0,0.0,-1.9919,-1.9919,-1.9919,-1.9919,-1.9919,-1.9919,-1.9919,-1.9919,-1.9919,-1.9919,-1.9919,-1.9919,-1.9919,-1.9919,-1.9919,-1.9919,-1.9919,-1.9919,-1.9919,-1.9919,-1.9919,-1.9919,-1.9919,-1.9919,-1.9919,-1.9919,-1.9919,-1.9919,-1.9919,-1.9919,-1.939,-1.6626,-1.5403,-1.4406,-1.1714,-1.0486,-1.0019,-1.0019,-1.0019,-0.9992,-0.9867,-0.9753,-0.9639,-0.9514,-0.9394,-0.9302,-0.9302,-0.8719,-0.7263,-0.4066,-0.189,0.0073,0.1968,0.2333,0.2333,0.2333,0.2333,0.2333,0.2333,0.236,0.239,0.2421,0.2451,0.2481,0.2512,0.2514,0.2514,0.2514,0.2514,0.2514,0.2514,0.2514,0.2542,0.2601,0.2642,0.2673,0.2692,0.2692,0.2692,0.2692,0.2692,0.2692,0.2692,0.2692,0.2692,0.2692,0.2692,0.2692,0.2692,0.2692,0.2692,0.2692,0.2692,0.2692,0.2692,0.0,0.0,0.0,0.0,0.0,0.0,0.0,0.0,0.0,-2.7565,0.0,0.0,0.0,0.0,-2.3116,-2.2297,-2.1187,-2.0296,-1.9919,-1.9919,-1.9919,-1.9919,-1.9919,-1.9919,-1.9919,-1.9919,-1.9919,-1.9919,-1.9919,-1.9919,-1.9919,-1.9919,-1.9919,-1.9919,-1.9919,-1.9919,-1.9919,-1.9919,-1.9919,-1.9919,-1.9919,-1.9973,-1.9973,-1.9973,-2.0092,-2.0157,-1.9994,-1.9973,-1.9962,-1.9952,-1.9919,-1.939,-1.6626,-1.4944,-1.356,-1.0791,-1.0019,-1.0019,-1.0019,-1.0019,-1.0003,-0.9916,-0.9786,-0.965,-0.9568,-0.9421,-0.9302,-0.9302,-0.9302,-0.828,-0.4866,-0.2762,-0.0727,0.1894,0.2333,0.2333,0.2333,0.2333,0.2333,0.2333,0.235,0.2375,0.2405,0.2436,0.2466,0.2497,0.2508,0.2514,0.2514,0.2514,0.2514,0.2514,0.2523,0.2553,0.2601,0.2631,0.2662,0.2692,0.2692,0.2692,0.2692,0.2692,0.2692,0.2692,0.2692,0.2692,0.2692,0.2692,0.2692,0.2692,0.2692,0.2692,0.2692,0.2692,0.2692,0.2692,0.0,0.0,0.0,0.0,0.0,0.0,0.0,0.0,-2.901,-2.8217,0.0,0.0,0.0,0.0,0.0,-2.007,-2.0887,-2.1112,-2.0005,-1.993,-1.9941,-1.9941,0.0,0.0,-1.9941,-1.9941,-1.9941,-1.9941,-1.9941,-1.9941,-1.9941,-1.9941,-1.9941,-1.9941,-1.9941,-1.9941,-1.9941,-1.9941,-1.9941,-1.9941,-1.9941,-2.0005,-2.021,-2.021,-2.035,-2.0511,-2.0285,-2.0199,-2.0167,-2.0006,-1.9919,-1.9617,-1.7864,-1.5097,-1.2101,-1.048,-1.0019,-1.0019,0.0,0.0,0.0,-1.0019,-0.9845,-0.9671,-0.9671,-0.9481,-0.9307,-0.9307,-0.9302,-0.8574,-0.6253,-0.4576,-0.2324,0.153,0.226,0.2333,0.2333,0.2333,0.2333,0.2333,0.2333,0.2345,0.2375,0.2406,0.2436,0.2466,0.2497,0.2514,0.2514,0.2514,0.2514,0.2514,0.2542,0.2572,0.26,0.2631,0.2661,0.2691,0.2692,0.2692,0.2692,0.2692,0.2692,0.2692,0.2692,0.2692,0.2692,0.2692,0.2692,0.2692,0.2692,0.2692,0.2692,0.2692,0.2692,0.2692,0.0,0.0,0.0,0.0,0.0,0.0,-3.0551,-2.9783,-2.901,0.0,0.0,0.0,-2.6093,-2.4449,-2.2446,-2.007,-2.0221,-2.0298,-2.0102,-2.0113,-2.0188,-2.0438,-2.0438,-2.0438,-2.0438,-2.0438,-2.0438,-2.0438,-2.0438,-2.0438,-2.0438,-2.0438,-2.0438,-2.0438,-2.0438,-2.0438,-2.035,-2.0188,-2.021,-2.0438,-2.0438,-2.0307,-2.021,-2.021,-2.0145,-2.0114,-1.9973,-1.9951,-1.9941,-1.9941,-1.9919,-1.939,-1.6474,-1.3329,-1.0635,-1.0175,-1.0019,-1.0019,-1.0019,0.0,0.0,0.0,0.0,0.0,-0.9688,-0.9546,-0.941,-0.9323,-0.9302,-0.8574,-0.6253,-0.5452,-0.4288,-0.1455,0.0874,0.2333,0.2333,0.2333,0.2333,0.2333,0.2333,0.2345,0.2375,0.2406,0.2436,0.2466,0.2497,0.2514,0.2514,0.2514,0.2514,0.2514,0.2522,0.2541,0.2571,0.26,0.263,0.266,0.2682,0.2692,0.2692,0.2692,0.2692,0.2692,0.2692,0.2692,0.2692,0.2692,0.2692,0.2692,0.2692,0.2692,0.2692,0.2692,0.2692,0.2692,0.0,0.0,0.0,0.0,0.0,-3.1418,-3.0977,-2.9997,-2.9154,0.0,0.0,0.0,-2.5746,-2.3516,-2.1546,-2.0288,-2.0222,-2.021,-2.035,-2.0361,-2.0425,-2.0554,-2.0565,-2.0565,-2.0565,-2.0565,-2.0565,-2.0565,-2.0565,-2.0565,-2.0565,-2.0565,-2.0565,-2.0565,-2.0565,-2.0619,-2.0694,-2.0554,-2.0522,-2.0565,-2.0565,-2.0544,-2.049,-2.0393,-2.0328,-2.0264,-2.007,-2.0059,-2.0189,-1.9995,-1.9466,-1.8309,-1.4935,-1.2558,-1.0946,-1.0175,-1.0019,-1.0019,-1.0019,-1.0019,-1.0019,-1.0019,0.0,0.0,-0.9693,-0.9574,-0.9454,-0.9329,-0.9302,-0.8796,-0.7055,-0.6253,-0.5235,-0.3564,-0.1237,0.0583,0.1239,0.1895,0.2333,0.2333,0.2333,0.2339,0.2357,0.2398,0.2431,0.2448,0.2489,0.2514,0.2514,0.2514,0.2514,0.2514,0.2514,0.2529,0.2559,0.2587,0.2617,0.2565,0.2677,0.2692,0.2692,0.2692,0.2692,0.2692,0.2692,0.2692,0.2692,0.2692,0.2692,0.2692,0.2692,0.2692,0.2692,0.2692,0.2692,0.2692,0.0,0.0,0.0,-3.163,-3.163,-3.163,-3.163,-3.0283,-2.9298,0.0,-2.7885,-2.6041,-2.3845,-2.1689,-2.0494,-2.0622,-2.0565,-2.0576,-2.0597,-2.0597,-2.0619,-2.0719,-2.064,-2.064,-2.064,-2.064,-2.064,-2.064,-2.064,-2.064,-2.064,-2.064,-2.064,-2.064,-2.064,-2.0759,-2.0942,-2.0942,-2.0823,-2.064,-2.064,-2.0748,-2.0877,-2.0684,-2.0694,-2.077,-2.0361,-2.0328,-2.0492,-2.007,-1.8623,-1.6635,-1.3714,-1.2488,-1.1947,-1.0402,-1.0019,-1.0019,-1.0019,-1.0019,-1.0019,-1.0019,-0.9938,0.0,-0.9715,-0.9595,-0.947,-0.9351,-0.9313,-0.909,-0.8222,-0.6982,-0.5818,-0.5093,-0.3639,-0.2039,-0.0437,0.0947,0.1821,0.1821,0.1821,0.1821,0.1821,0.2012,0.2116,0.212,0.2402,0.2514,0.2514,0.2514,0.2514,0.2514,0.2514,0.2527,0.2555,0.2586,0.2615,0.2559,0.2676,0.2692,0.2692,0.2692,0.2692,0.2692,0.2692,0.2692,0.2692,0.2692,0.2692,0.2692,0.2692,0.2692,0.2692,0.2692,0.2692,0.2692,0.0,0.0,-3.163,-3.163,-3.163,-3.163,-3.163,-3.0283,-2.9298,-2.9298,-2.7335,-2.5064,-2.2834,-2.2175,-2.1512,-2.0711,-2.0565,-2.064,-2.0823,-2.0834,-2.0931,-2.1125,-2.1136,-2.1136,-2.1136,-2.1136,-2.1136,-2.1136,-2.1136,-2.1136,-2.1136,-2.1136,-2.1136,-2.1136,-2.1136,-2.1168,-2.1211,-2.1211,-2.1179,-2.1136,-2.1136,-2.105,-2.0899,-2.0856,-2.063,-2.0339,-2.0242,-2.0113,-2.0049,-1.9952,-1.7854,-1.525,-1.4637,-1.2635,-1.0408,-1.0097,-1.0019,-1.0019,-1.0019,-1.0019,-1.0019,-1.0019,-1.0003,0.0,-0.9829,-0.9715,-0.9601,-0.9476,-0.9372,-0.909,-0.8222,-0.786,-0.7421,-0.6696,-0.5241,-0.3639,-0.2111,-0.1602,-0.1383,-0.1383,-0.1383,-0.1383,-0.1383,-0.0295,0.0523,0.0529,0.1782,0.2514,0.2514,0.2514,0.2514,0.2514,0.2514,0.2517,0.2523,0.2575,0.2605,0.2611,0.2667,0.2692,0.2692,0.2692,0.2692,0.2692,0.2692,0.2692,0.2692,0.2692,0.2692,0.2692,0.2692,0.2692,0.2692,0.2692,0.2692,0.2692,-3.163,-3.163,-3.163,-3.163,-3.163,-3.1489,-3.1047,-2.9997,-2.8985,-2.8125,-2.5664,-2.3614,-2.2643,-2.1974,-2.1401,-2.0989,-2.092,-2.0963,-2.1082,-2.1093,-2.1147,-2.1276,-2.1276,-2.1276,-2.1276,-2.1276,-2.1276,-2.1276,-2.1276,-2.1276,-2.1276,-2.1276,-2.1276,-2.1276,-2.1276,-2.1276,-2.1276,-2.1276,-2.1276,-2.1276,-2.1276,-2.12,-2.1071,-2.0953,-2.0684,-2.0371,-2.0253,-2.0059,-1.979,-1.9049,-1.7636,-1.5863,-1.4253,-1.2558,-1.1101,-1.0253,-1.0019,-1.0019,-1.0019,-1.0019,-1.0019,-1.0019,-1.0019,0.0,0.0,-0.9753,-0.9633,-0.9514,-0.9389,-0.909,-0.8222,-0.8078,-0.786,-0.7135,-0.6333,-0.5531,-0.4729,-0.3276,-0.233,-0.233,-0.233,-0.233,-0.233,-0.162,-0.0823,0.0,0.1554,0.2514,0.2514,0.2514,0.2514,0.2514,0.2514,0.2514,0.2514,0.2572,0.2601,0.2602,0.2664,0.2692,0.2692,0.2692,0.2692,0.2692,0.2692,0.2692,0.2692,0.2692,0.2692,0.2692,0.2692,0.2692,0.2692,0.2692,0.2692,0.2692,-3.163,-3.163,-3.163,-3.163,-3.163,-3.1347,-3.0551,-2.9832,-2.865,-2.657,-2.4252,-2.2654,-2.2439,-2.1532,-2.106,-2.1265,-2.1276,-2.1276,-2.1276,-2.1276,-2.1276,-2.1276,-2.1276,-2.1276,-2.1276,-2.1276,-2.1276,-2.1276,-2.1276,-2.1276,-2.1276,-2.1276,-2.1276,-2.1276,-2.1276,-2.1276,-2.1276,-2.1276,-2.1276,-2.1276,-2.1276,-2.1276,-2.1254,-2.105,-2.0802,-2.0522,-2.0242,-2.0016,-1.9725,-1.8518,-1.7616,-1.6483,-1.3791,-1.2558,-1.1714,-1.0408,-1.0019,-1.0019,-1.0019,-1.0019,-1.0019,-1.0019,-1.0019,-0.9992,0.0,0.0,0.0,-0.9574,-0.9438,-0.9122,-0.8251,-0.8092,-0.7856,-0.711,-0.6978,-0.6982,-0.6966,-0.4796,-0.3201,-0.3201,-0.3201,-0.3201,-0.3201,-0.2946,-0.1947,-0.0077,0.132,0.2194,0.2514,0.2514,0.2514,0.2514,0.2514,0.2514,0.2514,0.2567,0.2597,0.2602,0.2657,0.2687,0.2692,0.2692,0.2692,0.2692,0.2692,0.2692,0.2692,0.2692,0.2692,0.2692,0.2692,0.2692,0.2692,0.2692,0.2692,0.2692,-3.163,-3.163,-3.163,-3.163,-3.163,-3.1347,-3.0551,-3.0042,-2.8549,-2.5281,-2.453,-2.3636,-2.1684,-2.1313,-2.1243,-2.1276,-2.1276,-2.1276,-2.1276,-2.1276,-2.1276,-2.1276,-2.1276,-2.1276,-2.1276,-2.1276,-2.1276,-2.1276,-2.1276,-2.1276,-2.1276,-2.1276,-2.1276,-2.1276,-2.1276,-2.1276,-2.1276,-2.1276,-2.1276,-2.1276,-2.1276,-2.1276,-2.1276,-2.1243,-2.0953,-2.05,-2.0125,-1.9941,-1.9854,-1.9725,-1.7645,-1.5097,-1.479,-1.2635,-1.0253,-1.0097,-1.0019,-1.0019,-1.0019,-1.0019,-1.0019,-1.0019,-1.0019,-1.0014,-1.0003,0.0,-0.9813,-0.9802,0.0,-0.9244,-0.843,0.0,0.0,-0.7023,-0.6937,-0.6962,-0.6951,-0.6649,-0.6478,-0.6478,-0.6478,-0.6478,-0.6478,-0.5152,-0.3133,-0.0151,0.0307,0.1009,0.2434,0.2514,0.2514,0.2514,0.2514,0.2514,0.2514,0.2548,0.2577,0.2602,0.2635,0.2667,0.2692,0.2692,0.2692,0.2692,0.2692,0.2692,0.2692,0.2692,0.2692,0.2692,0.2692,0.2692,0.2692,0.2692,0.2692,0.2692,-3.163,-3.163,-3.163,-3.163,0.0,0.0,0.0,0.0,-2.6516,-2.3852,-2.3008,-2.2362,-2.1427,-2.1276,-2.1276,-2.1276,-2.1276,-2.1276,-2.1276,-2.1276,-2.1276,-2.1276,-2.1276,-2.1276,-2.1276,-2.1276,-2.1276,-2.1276,-2.1276,-2.1276,-2.1276,-2.1276,-2.1276,-2.1276,-2.1276,-2.1276,-2.1276,-2.1276,-2.1276,-2.1276,-2.1276,-2.1276,-2.1276,-2.1276,-2.0985,-2.0578,-2.0092,-1.9919,-1.9768,-1.8774,-1.7474,-1.6015,-1.4099,-1.2558,-1.1256,-1.033,-1.0019,-1.0019,-1.0019,-1.0019,-1.0019,-1.0019,-1.0019,-1.0019,-1.0019,-0.9927,-0.9835,-0.9835,0.0,0.0,0.0,0.0,0.0,0.0,-0.6998,-0.6974,-0.6937,-0.6966,-0.699,-0.699,-0.699,-0.699,-0.699,-0.5523,-0.4101,-0.2793,-0.0917,0.0387,0.102,0.1963,0.2514,0.2514,0.2514,0.2514,0.2514,0.2544,0.2574,0.2602,0.2632,0.2662,0.2692,0.2692,0.2692,0.2692,0.2692,0.2692,0.2692,0.2692,0.2692,0.2692,0.2692,0.2692,0.2692,0.2692,0.2692,0.2692,-3.163,-3.163,-3.163,-3.163,-3.1645,0.0,-3.06,-2.7748,-2.4984,-2.3119,-2.227,-2.168,-2.1357,-2.1276,-2.1276,-2.1276,-2.1276,-2.1276,-2.1276,-2.1276,-2.1276,-2.1276,-2.1276,-2.1276,-2.1276,-2.1276,-2.1276,-2.1276,-2.1276,-2.1276,-2.1276,-2.1276,-2.1276,-2.1276,-2.1276,-2.1276,-2.1276,-2.1276,-2.1276,-2.1276,-2.1276,-2.1276,-2.1265,-2.1136,-2.0867,-2.0578,-2.0092,-1.9919,-1.9617,-1.794,-1.7093,-1.6245,-1.3406,-1.2179,-1.156,-1.033,-1.0019,-1.0019,-1.0019,-1.0019,-1.0019,-1.0019,-1.0019,-1.0019,-1.0019,-0.9949,-0.9812,-0.9735,-0.934,0.0,0.0,0.0,-0.7599,-0.7203,0.0,-0.7056,-0.7031,-0.7047,-0.7047,-0.6994,-0.699,-0.699,-0.699,-0.5963,-0.4923,-0.4077,-0.1911,-0.0232,0.0627,0.1413,0.2042,0.2514,0.2042,0.2042,0.2514,0.2536,0.2566,0.2602,0.2624,0.2656,0.2692,0.2692,0.2692,0.2692,0.2692,0.2692,0.2692,0.2692,0.2692,0.2692,0.2692,0.2692,0.2692,0.2692,0.2692,0.2692,-3.163,-3.163,-3.163,-3.163,-3.1867,-3.1403,-2.9306,-2.6912,-2.4786,-2.3368,-2.3175,-2.2705,-2.1438,-2.1276,-2.1276,-2.1276,-2.1276,-2.1276,-2.1276,-2.1276,-2.1276,-2.1276,-2.1276,-2.1276,-2.1276,-2.1276,-2.1276,-2.1276,-2.1276,-2.1276,-2.1276,-2.1276,-2.1276,-2.1276,-2.1276,-2.1276,-2.1276,-2.1276,-2.1276,-2.1276,-2.1276,-2.1276,-2.1222,-2.0759,-2.0576,-2.0578,-2.0092,-1.9919,-1.9617,-1.794,-1.633,-1.4713,-1.3021,-1.1405,-1.0097,-1.0019,-1.0019,-1.0019,-1.0019,-1.0019,-1.0019,-1.0019,-1.0019,-1.0019,-1.0019,-1.0019,-0.9858,-0.947,-0.9305,-0.8918,-0.8157,-0.7924,-0.7677,-0.7141,-0.7199,0.0,0.0,-0.7199,-0.719,-0.7011,-0.699,-0.699,-0.699,-0.6999,-0.5667,-0.249,-0.2292,-0.0929,0.2277,0.0942,0.0785,0.2435,0.0942,0.0863,0.2514,0.2515,0.2545,0.2601,0.2602,0.2634,0.2692,0.2692,0.2692,0.2692,0.2692,0.2692,0.2692,0.2692,0.2692,0.2692,0.2692,0.2692,0.2692,0.2692,0.2692,0.2692,-3.1885,-3.1936,-3.1578,-3.0467,-3.0348,-2.9466,-2.6402,-2.5518,-2.4423,-2.2223,-2.1911,-2.175,-2.1357,-2.1276,-2.1276,-2.1276,-2.1276,-2.1276,-2.1276,-2.1276,-2.1276,-2.1276,-2.1276,-2.1276,-2.1276,-2.1276,-2.1276,-2.1276,-2.1276,-2.1276,-2.1276,-2.1276,-2.1276,-2.1276,-2.1276,-2.1276,-2.1276,-2.1276,-2.1276,-2.1276,-2.1276,-2.1276,-2.1222,-2.0748,-2.0565,-2.0578,-2.0092,-1.9919,-1.9466,-1.6703,-1.6092,-1.5863,-1.2024,-1.1256,-1.1405,-1.033,-1.0019,-1.0019,-1.0019,-1.0019,-1.0019,-1.0019,-1.0019,-1.0019,-1.0019,-1.0019,-0.9864,-0.948,-0.9138,-0.8804,-0.8261,-0.7795,-0.7486,-0.7305,-0.728,-0.7252,0.0,-0.7243,-0.7239,-0.7178,-0.717,-0.717,-0.717,-0.7199,-0.6796,-0.5727,-0.468,-0.3558,-0.2506,-0.1959,-0.0862,0.0785,0.0314,0.0785,0.2514,0.2514,0.2544,0.2601,0.2601,0.2634,0.2692,0.2692,0.2692,0.2692,0.2692,0.2692,0.2692,0.2692,0.2692,0.2692,0.2692,0.2692,0.2692,0.2692,0.2692,0.2692,-3.209,-3.2244,-3.1951,-3.09,-3.0339,-2.9032,-2.6023,-2.5334,-2.4203,-2.1599,-2.1276,-2.1276,-2.1276,-2.1276,-2.1276,-2.1276,-2.1276,-2.1276,-2.1276,-2.1276,-2.1276,-2.1276,-2.1276,-2.1276,-2.1276,-2.1276,-2.1276,-2.1276,-2.1276,-2.1276,-2.1276,-2.1276,-2.1276,-2.1276,-2.1276,-2.1276,-2.1276,-2.1276,-2.1276,-2.1276,-2.1276,-2.1222,-2.1103,-2.0716,-2.0565,-2.0578,-2.0092,-1.9919,-1.938,-1.6015,-1.5633,-1.5786,-1.1405,-1.0713,-1.1405,-1.033,-1.0019,-1.0019,-1.0019,-1.0019,-1.0019,-1.0019,-1.0019,-1.0019,-1.0019,-0.9864,-0.9708,-0.9246,-0.9012,-0.8622,-0.8076,-0.7791,-0.7594,-0.7439,0.0,-0.7358,0.0,-0.7358,-0.7358,-0.7358,-0.7301,-0.7264,-0.7264,-0.7288,-0.7101,-0.6535,-0.556,-0.4663,-0.4151,-0.3681,-0.2585,-0.0941,-0.0862,-0.0078,0.157,0.22,0.2544,0.2601,0.2601,0.2634,0.2692,0.2692,0.2692,0.2692,0.2692,0.2692,0.2692,0.2692,0.2692,0.2692,0.2692,0.2692,0.2692,0.2692,0.2692,0.2692,-3.2193,-3.2411,-3.2668,-3.2668,-3.1514,-2.9854,-2.7742,-2.6004,-2.4123,-2.1599,-2.1276,-2.1276,-2.1276,-2.1276,-2.1276,-2.1276,-2.1276,-2.1276,-2.1276,-2.1276,-2.1276,-2.1276,-2.1276,-2.1276,-2.1276,-2.1276,-2.1276,-2.1276,-2.1276,-2.1276,-2.1276,-2.1276,-2.1276,-2.1276,-2.1276,-2.1276,-2.1276,-2.1276,-2.1276,-2.1276,-2.1265,-2.1114,-2.0877,-2.064,-2.0544,-2.049,-2.0092,-1.9919,-1.939,-1.6168,-1.4944,-1.4322,-1.1101,-1.0097,-1.0019,-1.0019,-1.0019,-1.0019,-1.0019,-1.0019,-1.0019,-1.0019,-1.0019,-1.0019,-0.9942,-0.9708,-0.9246,-0.8856,-0.8778,-0.8544,-0.7681,-0.7842,-0.7998,0.0,0.0,-0.7525,-0.7525,-0.7525,-0.7525,-0.7525,-0.7378,-0.7276,-0.7276,-0.735,-0.6777,-0.5157,-0.5059,-0.4466,-0.282,-0.4231,-0.4388,-0.2664,-0.2585,-0.1802,0.0,0.157,0.2464,0.2601,0.2601,0.2634,0.2692,0.2692,0.2692,0.2692,0.2692,0.2692,0.2692,0.2692,0.2692,0.2692,0.2692,0.2692,0.2692,0.2692,0.2692,0.2692,-3.2912,-3.2284,-3.1685,-3.1685,-2.9361,-2.7024,-2.5912,-2.4283,-2.2797,-2.1438,-2.1276,-2.1276,-2.1276,-2.1276,-2.1276,-2.1276,-2.1276,-2.1276,-2.1276,-2.1276,-2.1276,-2.1276,-2.1276,-2.1276,-2.1276,-2.1276,-2.1276,-2.1276,-2.1276,-2.1276,-2.1276,-2.1276,-2.1276,-2.1276,-2.1276,-2.1276,-2.1276,-2.1276,-2.1276,-2.1265,-2.1071,-2.0963,-2.0856,-2.0457,-2.0307,-2.0264,-2.0038,-1.9919,-1.9617,-1.7474,-1.5939,-1.456,-1.2488,-1.1023,-1.0019,-1.0019,-1.0019,-1.0019,-1.0019,-1.0019,-1.0019,-1.0019,-1.0019,-0.9942,-0.963,-0.948,-0.9168,-0.8471,-0.8393,-0.8154,-0.7603,-0.7603,-0.7603,-0.7525,-0.7525,-0.7525,-0.7525,-0.7525,-0.7525,-0.7525,-0.7484,-0.746,-0.746,-0.7476,-0.7333,-0.6863,-0.6885,-0.6662,-0.6268,-0.6662,-0.6111,-0.4388,-0.4388,-0.2977,0.0,0.0392,0.1271,0.2601,0.2601,0.2634,0.2692,0.2692,0.2692,0.2692,0.2692,0.2692,0.2692,0.2692,0.2692,0.2692,0.2692,0.2692,0.2692,0.2692,0.2692,0.2695,-3.322,-3.2264,-3.1501,-3.2266,-2.8842,-2.5872,-2.5225,-2.4907,-2.3884,-2.1599,-2.1276,-2.1276,-2.1276,-2.1276,-2.1276,-2.1276,-2.1276,-2.1276,-2.1276,-2.1276,-2.1276,-2.1276,-2.1276,-2.1276,-2.1276,-2.1276,-2.1276,-2.1276,-2.1276,-2.1276,-2.1276,-2.1276,-2.1276,-2.1276,-2.1276,-2.1276,-2.1276,-2.1276,-2.1276,-2.1254,-2.1007,-2.0845,0.0,-2.035,-2.0145,-2.0037,-1.9973,-1.9919,-1.9617,-1.794,-1.6321,-1.4637,-1.3021,-1.1327,-1.0019,-1.0019,-1.0019,-1.0019,-1.0019,-1.0019,-1.0019,-1.0019,-1.0019,-0.9864,-0.9475,-0.9246,-0.8934,-0.8315,-0.8237,-0.808,-0.7603,-0.7681,-0.7764,-0.7525,-0.7525,-0.7525,-0.7525,-0.7525,-0.7525,-0.7525,-0.7525,-0.7525,-0.7525,-0.7525,-0.7525,-0.7525,-0.7525,-0.7525,-0.7525,-0.7525,-0.7053,-0.6111,-0.5405,-0.376,-0.1098,-0.0392,0.0873,0.2601,0.2601,0.2634,0.2692,0.2692,0.2692,0.2692,0.2692,0.2692,0.2692,0.2692,0.2692,0.2692,0.2692,0.2692,0.2692,0.2692,0.2692,0.2697,-3.334,-3.2054,-3.1424,-3.2892,-2.8983,-2.5463,-2.484,-2.5925,-2.5437,-2.175,-2.1276,-2.1276,-2.1276,-2.1276,-2.1276,-2.1276,-2.1276,-2.1276,-2.1276,-2.1276,-2.1276,-2.1276,-2.1276,-2.1276,-2.1276,-2.1276,-2.1276,-2.1276,-2.1276,-2.1276,-2.1276,0.0,0.0,-2.1276,-2.1276,-2.1276,-2.1276,-2.1276,-2.1254,-2.1211,-2.0963,-2.0716,-2.049,-2.0253,-2.0037,-1.9919,-1.9919,-1.9919,-1.9693,-1.8243,-1.6474,-1.4637,-1.3252,-1.1482,-1.0019,-1.0019,-1.0019,-1.0019,-1.0019,-1.0019,-1.0019,-1.0019,-0.9942,-0.9786,-0.9402,-0.9012,-0.8622,-0.8159,-0.808,-0.7998,-0.7603,-0.7842,-0.7998,-0.7603,-0.7525,-0.7525,-0.7525,-0.7525,-0.7525,-0.7525,-0.7525,0.0,-0.7525,-0.7525,-0.7525,-0.7525,-0.7525,-0.7525,-0.7525,-0.7525,-0.7525,-0.7525,-0.5877,-0.431,-0.282,-0.0941,0.0794,0.2276,0.252,0.2634,0.2692,0.2692,0.2692,0.2692,0.2692,0.2692,0.2692,0.2692,0.2692,0.2692,0.2692,0.2692,0.2692,0.2692,0.2695,0.2702,-3.3734,-3.13,-2.9308,-2.9619,-2.7513,-2.5079,-2.3267,-2.2946,-2.2464,-2.1438,-2.1276,-2.1276,-2.1276,-2.1276,-2.1276,-2.1276,-2.1276,-2.1276,-2.1276,-2.1276,-2.1276,-2.1276,-2.1276,-2.1276,-2.1276,-2.1276,-2.1276,-2.1276,-2.1276,-2.1276,-2.1276,-2.1276,-2.1276,-2.1276,-2.1276,-2.1276,-2.1276,-2.1276,-2.1157,-2.0953,-2.0716,-2.0479,-2.0253,-2.0005,-1.9962,-1.9919,-1.9919,-1.9919,-1.9844,-1.9542,-1.7398,-1.4867,-1.456,-1.2404,-1.0019,-1.0019,-1.0019,-1.0019,-1.0019,-1.0019,-1.0019,-1.0019,-0.9786,-0.9402,-0.9012,-0.8622,-0.8159,-0.7686,-0.7603,-0.7603,-0.7525,-0.7603,-0.7603,-0.7525,-0.7525,-0.7525,-0.7525,-0.7525,-0.7525,-0.7525,-0.7525,-0.7525,-0.7525,-0.7525,-0.7525,-0.7525,-0.7525,-0.7525,-0.7525,-0.7525,-0.7525,-0.7525,-0.5877,-0.4857,-0.4544,-0.149,0.0159,0.0569,0.1951,0.2634,0.2692,0.2692,0.2692,0.2692,0.2692,0.2692,0.2692,0.2692,0.2692,0.2692,0.2692,0.2692,0.2692,0.2692,0.2709,0.2735,-3.3761,-3.1807,-3.0083,-3.0083,-2.7499,-2.5079,-2.4056,-2.2556,-2.1518,-2.1357,-2.1276,-2.1276,-2.1276,-2.1276,-2.1276,-2.1276,-2.1276,-2.1276,-2.1276,-2.1276,-2.1276,-2.1276,-2.1276,-2.1276,-2.1276,-2.1276,-2.1276,-2.1276,-2.1276,-2.1276,-2.1276,-2.1276,-2.1276,-2.1276,-2.1276,-2.1276,-2.1265,-2.1136,-2.1017,-2.0877,-2.0522,-2.0317,-2.0188,-2.0016,-1.9919,-1.9919,-1.9919,-1.9919,-1.9919,-1.9919,-1.7702,-1.4867,-1.4867,-1.2635,-1.0019,-1.0019,-1.0019,-1.0019,-1.0019,-1.0019,-1.0019,-1.0019,-0.9708,-0.9324,-0.8856,-0.8471,-0.808,-0.7603,-0.7525,-0.7525,-0.7525,-0.7525,-0.7525,-0.7525,-0.7525,-0.7525,-0.7525,-0.7525,-0.7525,-0.7525,-0.7525,-0.7525,-0.7525,-0.7525,-0.7525,-0.7525,-0.7525,-0.7525,-0.7525,-0.7525,-0.7525,-0.7525,-0.5877,-0.4623,-0.3681,-0.1254,0.0476,0.1382,0.2195,0.2634,0.2692,0.2692,0.2692,0.2692,0.2692,0.2692,0.2692,0.2692,0.2692,0.2692,0.2692,0.2692,0.2692,0.2692,0.2881,0.3171,-3.3761,-3.219,-3.0793,-3.0793,-2.7342,-2.4602,-2.4602,-2.2705,-2.1276,-2.1276,-2.1276,-2.1276,-2.1276,-2.1276,-2.1276,-2.1276,-2.1276,-2.1276,-2.1276,-2.1276,-2.1276,-2.1276,-2.1276,-2.1276,-2.1276,-2.1276,-2.1276,-2.1276,-2.1276,-2.1254,-2.12,-2.1254,-2.1276,-2.1276,-2.1276,-2.1276,-2.1265,-2.1007,-2.0877,-2.0791,-2.0382,-2.0188,-2.0113,-1.9995,-1.9919,-1.9919,-1.9919,-1.9919,-1.9919,-1.9919,-1.7702,-1.4867,-1.4867,-1.2635,-1.0019,-1.0019,-1.0019,-1.0019,-1.0019,-1.0019,-1.0019,-1.0019,-0.963,-0.9168,-0.8856,-0.8388,-0.792,-0.7603,-0.7525,-0.7525,-0.7525,-0.7525,-0.7525,-0.7525,-0.7525,-0.7525,-0.7525,-0.7525,-0.7525,-0.7525,-0.7525,-0.7525,-0.7525,-0.7525,-0.7525,-0.7525,-0.7525,-0.7525,-0.7525,-0.7525,-0.7525,-0.7525,-0.5561,-0.3994,-0.3055,-0.0627,0.1033,0.2114,0.2439,0.2634,0.2692,0.2692,0.2692,0.2692,0.2692,0.2692,0.2692,0.2692,0.2692,0.2692,0.2692,0.2692,0.2692,0.2692,0.3055,0.3526,-3.3761,-3.1255,-2.8997,-2.8997,-2.5634,-2.2797,-2.2797,-2.1922,-2.1276,-2.1276,-2.1276,-2.1276,-2.1276,-2.1276,-2.1276,-2.1276,-2.1276,-2.1276,-2.1276,-2.1276,-2.1276,-2.1276,-2.1276,-2.1276,-2.1276,-2.1276,-2.1276,-2.1276,-2.1276,-2.1168,-2.0942,-2.1168,-2.1276,-2.1276,-2.1276,-2.1276,-2.1265,-2.1007,-2.078,-2.0576,-2.0317,-2.0081,-1.9952,-1.993,-1.9919,-1.9919,-1.9919,-1.9919,-1.9919,-1.9919,-1.7702,-1.4867,-1.4867,-1.2635,-1.0019,-1.0019,-1.0019,-1.0019,-1.0019,-1.0019,-1.0019,-1.0019,-0.9402,-0.8856,-0.8778,-0.8154,-0.7525,-0.7525,-0.7525,-0.7525,-0.7525,-0.7525,-0.7525,-0.7525,-0.7525,-0.7525,-0.7525,-0.7525,-0.7525,-0.7525,-0.7525,-0.7525,-0.7525,-0.7525,-0.7525,-0.7525,-0.7525,-0.7525,-0.7525,-0.7525,-0.7525,-0.7525,-0.4385,-0.3368,-0.4779,-0.0078,0.1589,0.0325,0.187,0.2634,0.2692,0.2692,0.2692,0.2692,0.2692,0.2692,0.2692,0.2692,0.2692,0.2692,0.2692,0.2692,0.2692,0.2692,0.307,0.3474,-3.2512,-3.1255,-2.9696,-2.767,-2.5555,-2.3748,-2.2728,-2.1842,-2.1276,-2.1276,-2.1276,-2.1276,-2.1276,-2.1276,-2.1276,-2.1276,-2.1276,-2.1276,-2.1276,-2.1276,-2.1276,-2.1276,-2.1276,-2.1276,-2.1276,-2.1276,-2.1276,-2.1276,-2.1276,-2.1222,-2.1136,-2.1233,-2.1276,-2.1276,-2.1276,-2.119,-2.1039,-2.0802,-2.0565,-2.0339,-2.0091,-1.993,-1.9919,-1.9919,-1.9919,-1.9919,-1.9919,-1.9919,-1.9768,-1.8774,-1.6855,-1.4867,-1.4867,-1.2635,-1.0019,-1.0019,-1.0019,-1.0019,-1.0019,-1.0019,-0.9942,-0.9708,-0.9246,-0.87,-0.8471,-0.792,-0.7525,-0.7525,-0.7525,-0.7525,-0.7525,-0.7525,-0.7525,-0.7525,-0.7525,-0.7525,-0.7525,-0.7525,-0.7525,-0.7525,-0.7525,-0.7525,-0.7525,-0.7525,-0.7525,-0.7525,-0.7525,-0.7525,-0.7525,-0.7525,-0.7525,-0.7525,-0.4231,-0.282,-0.3525,0.0471,0.2226,0.1626,0.2276,0.2634,0.2692,0.2692,0.2692,0.2692,0.2692,0.2692,0.2692,0.2692,0.2692,0.2692,0.2692,0.2692,0.2779,0.3052,0.3519,0.4003,-3.2266,-3.1255,-2.9851,-2.7435,-2.5634,-2.4136,-2.2797,-2.1922,-2.1438,-2.1357,-2.1276,-2.1276,-2.1276,-2.1276,-2.1276,-2.1276,-2.1276,-2.1276,-2.1276,-2.1276,-2.1276,-2.1276,-2.1276,-2.1276,-2.1276,-2.1276,-2.1276,-2.1276,-2.1276,-2.1243,-2.1168,-2.1168,-2.1211,-2.1276,-2.12,-2.1071,-2.0888,-2.0587,-2.0361,-2.0188,-1.9941,-1.9919,-1.9919,-1.9919,-1.9919,-1.9919,-1.9919,-1.9919,-1.9693,-1.8547,-1.6703,-1.479,-1.433,-1.2249,-1.0019,-1.0019,-1.0019,-1.0019,-1.0019,-1.0019,-0.9936,-0.9511,-0.9041,-0.8658,-0.827,-0.7799,-0.7493,-0.7521,-0.7525,-0.7525,-0.7525,-0.7525,-0.7525,-0.7525,-0.7525,-0.7525,-0.7525,-0.7525,-0.7525,-0.7525,-0.7525,-0.7525,-0.7525,-0.7525,-0.7525,-0.7525,-0.7525,-0.7525,-0.7525,-0.7525,-0.7291,-0.6818,-0.3994,-0.2272,-0.1802,0.1099,0.2544,0.2601,0.2601,0.2634,0.2692,0.2692,0.2692,0.2692,0.2692,0.2692,0.2692,0.2692,0.2692,0.2692,0.2692,0.2692,0.2781,0.3324,0.379,0.4266,-3.3761,-3.1101,-2.8842,-2.8764,-2.5714,-2.305,-2.2648,-2.2164,-2.1761,-2.1357,-2.1276,-2.1276,-2.1276,-2.1276,-2.1276,-2.1276,-2.1276,-2.1276,-2.1276,-2.1276,-2.1276,-2.1276,-2.1276,-2.1276,-2.1276,-2.1276,-2.1276,-2.1276,-2.1276,-2.1147,-2.091,-2.091,-2.1039,-2.1265,-2.1017,-2.091,-2.0877,-2.0414,-2.0221,-2.0188,-1.9941,-1.9919,-1.9919,-1.9919,-1.9919,-1.9919,-1.9919,-1.9919,-1.9919,-1.9844,-1.7692,-1.4637,-1.3021,-1.1411,-1.0019,-1.0019,-1.0019,-1.0019,-1.0019,-1.0019,-0.9915,-0.9413,-0.8928,-0.8468,-0.8089,-0.7701,-0.7415,-0.7505,-0.7525,-0.7525,-0.7525,-0.7525,-0.7525,-0.7525,-0.7525,-0.7525,-0.7525,-0.7525,-0.7525,-0.7525,-0.7525,-0.7525,-0.7525,-0.7525,-0.7525,-0.7525,-0.7525,-0.7525,-0.7525,-0.7525,-0.674,-0.5092,-0.3368,-0.1724,-0.0078,0.1649,0.2544,0.2601,0.2601,0.2634,0.2692,0.2692,0.2692,0.2692,0.2692,0.2692,0.2692,0.2692,0.2692,0.2692,0.2692,0.2692,0.2781,0.3324,0.379,0.4179,-3.2359,-3.0315,-2.8452,-2.7278,-2.4933,-2.305,-2.2648,-2.2164,-2.1761,-2.1357,-2.1276,-2.1276,-2.1276,-2.1276,-2.1276,-2.1276,-2.1276,-2.1276,-2.1276,-2.1276,-2.1276,-2.1276,-2.1276,-2.1276,-2.1276,-2.1276,-2.1276,-2.1276,-2.1276,-2.1243,-2.1157,-2.1157,-2.12,-2.1265,-2.1017,-2.0813,-2.0651,-2.0339,-2.0113,-1.9962,-1.9952,-1.9919,-1.9919,-1.9919,-1.9919,-1.9919,-1.9919,-1.9919,-1.9542,-1.7236,-1.5786,-1.4406,-1.1637,-1.0402,-1.0019,-1.0019,-1.0019,-1.0003,-0.9916,-0.9894,-0.9714,-0.8915,-0.8663,-0.8361,-0.7684,-0.7426,-0.7399,-0.7427,-0.748,-0.7525,-0.7525,-0.7525,-0.7525,-0.7525,-0.7525,-0.7525,-0.7525,-0.7525,-0.7525,-0.7525,-0.7525,-0.7525,-0.7525,-0.7525,-0.7525,-0.7525,-0.7525,-0.7525,-0.7525,-0.7525,-0.7291,-0.674,-0.3994,-0.2272,-0.1724,0.1099,0.2544,0.2601,0.2601,0.2634,0.2692,0.2692,0.2692,0.2692,0.2692,0.2692,0.2692,0.2692,0.2692,0.2692,0.2692,0.2861,0.3205,0.378,0.4247,0.4705,-3.1501,-2.9464,-2.7513,-2.6504,-2.4694,-2.3291,-2.2889,-2.2487,-2.2003,-2.1599,-2.1357,-2.1276,-2.1276,-2.1276,-2.1276,-2.1276,-2.1276,-2.1276,-2.1276,-2.1276,-2.1276,-2.1276,-2.1276,-2.1276,-2.1276,-2.1276,-2.1276,-2.1276,-2.1276,-2.1276,-2.1276,-2.1276,-2.1233,-2.1125,-2.0888,-2.0651,-2.0414,-2.0177,-1.9984,-1.9919,-1.9919,-1.9919,-1.9919,-1.9919,-1.9919,-1.9919,-1.9919,-1.9919,-1.9466,-1.6779,-1.5403,-1.4406,-1.1792,-1.048,-1.0019,-1.0019,-0.9987,-0.9932,-0.9856,-0.9807,-0.9521,-0.8651,-0.8402,-0.8178,-0.7435,-0.728,-0.735,-0.7382,-0.7435,-0.7484,-0.7517,-0.7525,-0.7525,-0.7525,-0.7525,-0.7525,-0.7525,-0.7525,-0.7525,-0.7525,-0.7525,-0.7525,-0.7525,-0.7525,-0.7525,-0.7525,-0.7525,-0.7525,-0.7525,-0.7525,-0.7209,-0.6584,-0.3916,-0.2194,-0.1568,0.1177,0.2544,0.2602,0.2624,0.2656,0.2692,0.2692,0.2692,0.2692,0.2692,0.2692,0.2692,0.2692,0.2692,0.2692,0.2692,0.2945,0.346,0.3966,0.452,0.4971,-3.1331,-2.8608,-2.6267,-2.6267,-2.4933,-2.368,-2.3291,-2.2889,-2.2406,-2.2003,-2.1518,-2.1276,-2.1276,-2.1276,-2.1276,-2.1276,-2.1276,-2.1276,-2.1276,-2.1276,-2.1276,-2.1276,-2.1276,-2.1276,-2.1276,-2.1276,-2.1276,-2.1276,-2.1276,-2.1276,-2.1276,-2.1265,-2.1125,-2.0888,-2.0651,-2.0414,-2.0199,-2.0027,-1.9919,-1.9919,-1.9919,-1.9919,-1.9919,-1.9919,-1.9919,-1.9919,-1.9919,-1.9919,-1.9617,-1.7864,-1.6168,-1.4637,-1.2867,-1.1256,-1.0019,-1.0019,-0.9932,-0.9835,-0.9829,-0.9742,-0.9404,-0.8538,-0.8214,-0.7998,-0.7265,-0.7186,-0.7276,-0.7362,-0.7386,-0.7419,-0.7509,-0.7525,-0.7525,-0.7525,-0.7525,-0.7525,-0.7525,-0.7525,-0.7525,-0.7525,-0.7525,-0.7525,-0.7525,-0.7525,-0.7525,-0.7525,-0.7525,-0.7525,-0.7525,-0.7525,-0.6818,-0.5248,-0.3525,-0.188,-0.0157,0.1492,0.2385,0.2602,0.2664,0.2692,0.2692,0.2692,0.2692,0.2692,0.2692,0.2692,0.2692,0.2692,0.2692,0.2692,0.2692,0.3029,0.3544,0.4052,0.452,0.5058,-3.1331,-2.8608,-2.6267,-2.6267,-2.4933,-2.368,-2.3291,-2.2889,-2.2406,-2.2003,-2.1518,-2.1276,-2.1276,-2.1276,-2.1276,-2.1276,-2.1276,-2.1276,-2.1276,-2.1276,-2.1276,-2.1276,-2.1276,-2.1276,-2.1276,-2.1276,-2.1276,-2.1276,-2.1276,-2.1276,-2.1276,-2.1082,-2.0963,-2.0888,-2.0479,-2.0264,-2.0199,-2.0027,-1.9919,-1.9919,-1.9919,-1.9919,-1.9919,-1.9919,-1.9919,-1.9919,-1.9919,-1.9919,-1.9466,-1.6474,-1.525,-1.4406,-1.1482,-1.033,-1.0019,-1.0019,-0.9932,-0.9818,-0.9731,-0.9398,-0.8912,-0.829,-0.7747,-0.7237,-0.7096,-0.7092,-0.7182,-0.7276,-0.7346,-0.7419,-0.7509,-0.7525,-0.7525,-0.7525,-0.7525,-0.7525,-0.7525,-0.7525,-0.7525,-0.7525,-0.7525,-0.7525,-0.7525,-0.7525,-0.7525,-0.7525,-0.7525,-0.7525,-0.7525,-0.7525,-0.7291,-0.6896,-0.5248,-0.3603,-0.1959,-0.0235,0.1271,0.2602,0.2664,0.2692,0.2692,0.2692,0.2692,0.2692,0.2692,0.2692,0.2692,0.2692,0.2692,0.2692,0.2692,0.3197,0.3879,0.4138,0.4694,0.5491,-3.016,-2.7435,-2.5171,-2.5171,-2.4387,-2.376,-2.3532,-2.297,-2.2487,-2.2245,-2.168,-2.1276,-2.1276,-2.1276,-2.1276,-2.1276,-2.1276,-2.1276,-2.1276,-2.1276,-2.1276,-2.1276,-2.1276,-2.1276,-2.1276,-2.1276,-2.1276,-2.1276,-2.1276,-2.1276,-2.1276,-2.1017,-2.0845,-2.0737,-2.0371,-2.0156,-2.0037,-1.9984,-1.9919,-1.9919,-1.9919,-1.9919,-1.9919,-1.9919,-1.9919,-1.9919,-1.9919,-1.9919,-1.938,-1.6015,-1.4867,-1.433,-1.1023,-1.0019,-1.0008,-0.9954,-0.9851,-0.9737,-0.9617,-0.9203,-0.8659,-0.8019,-0.7425,-0.699,-0.699,-0.7027,-0.7101,-0.7235,-0.7301,-0.737,-0.7501,-0.7525,-0.7525,-0.7525,-0.7525,-0.7525,-0.7525,-0.7525,-0.7525,-0.7525,-0.7525,-0.7525,-0.7525,-0.7525,-0.7525,-0.7525,-0.7525,-0.7525,-0.7525,-0.7525,-0.7525,-0.7525,-0.517,-0.3447,-0.2507,-0.0079,0.1686,0.2602,0.2664,0.2692,0.2692,0.2692,0.2692,0.2692,0.2692,0.2692,0.2692,0.2692,0.2692,0.2692,0.2692,0.3195,0.4046,0.4138,0.4778,0.5578,-2.8764,-2.6109,-2.376,-2.376,-2.376,-2.376,-2.376,-2.313,-2.2567,-2.2567,-2.1842,-2.1276,-2.1276,-2.1276,-2.1276,-2.1276,-2.1276,-2.1276,-2.1276,-2.1276,-2.1276,-2.1276,-2.1276,-2.1276,-2.1276,-2.1276,-2.1276,-2.1276,-2.1276,-2.1276,-2.1276,-2.0985,-2.0748,-2.0554,-2.0274,-2.0037,-1.9919,-1.9919,-1.9919,-1.9919,-1.9919,-1.9919,-1.9919,-1.9919,-1.9919,-1.9919,-1.9919,-1.9919,-1.938,-1.6015,-1.4867,-1.433,-1.1023,-1.0008,-0.997,-0.9845,-0.9731,-0.9617,-0.944,-0.8962,-0.8367,-0.7711,-0.7276,-0.699,-0.699,-0.699,-0.7039,-0.7207,-0.7252,-0.7313,-0.7476,-0.7517,-0.7525,-0.7525,-0.7525,-0.7525,-0.7525,-0.7525,-0.7525,-0.7525,-0.7525,-0.7525,-0.7525,-0.7525,-0.7525,-0.7525,-0.7525,-0.7525,-0.7525,-0.7525,-0.7525,-0.7525,-0.4701,-0.2977,-0.2507,0.0883,0.2601,0.2602,0.2664,0.2692,0.2692,0.2692,0.2692,0.2692,0.2692,0.2692,0.2692,0.2692,0.2692,0.2692,0.2692,0.32,0.4056,0.414,0.4783,0.5589,-2.8764,-2.6109,-2.376,-2.376,-2.376,-2.376,-2.376,-2.313,-2.2567,-2.2567,-2.1842,-2.1276,-2.1276,-2.1276,-2.1276,-2.1276,-2.1276,-2.1276,-2.1276,-2.1276,-2.1276,-2.1276,-2.1276,-2.1276,-2.1276,-2.1276,-2.1276,-2.1276,-2.1276,-2.1276,-2.1265,-2.0823,-2.0597,-2.0544,-2.0179,-1.9962,-1.9919,-1.9919,-1.9919,-1.9919,-1.9919,-1.9919,-1.9919,-1.9919,-1.9919,-1.9919,-1.9919,-1.9919,-1.938,-1.6015,-1.4867,-1.433,-1.1023,-0.9949,-0.9845,-0.9731,-0.9612,-0.9435,-0.9124,-0.8377,-0.7638,-0.7208,-0.7063,-0.699,-0.699,-0.699,-0.7019,-0.7125,-0.7211,-0.7292,-0.739,-0.7472,-0.7525,-0.7525,-0.7525,-0.7525,-0.7525,-0.7525,-0.7525,-0.7525,-0.7525,-0.7525,-0.7525,-0.7525,-0.7525,-0.7525,-0.7525,-0.7525,-0.7525,-0.7525,-0.7525,-0.7525,-0.6975,-0.5327,-0.2507,0.0883,0.2601,0.2602,0.2664,0.2692,0.2692,0.2692,0.2692,0.2692,0.2692,0.2692,0.2692,0.2692,0.2692,0.2692,0.2692,0.3299,0.4099,0.4152,0.4806,0.5646,-2.8997,-2.6819,-2.4866,-2.392,-2.376,-2.376,-2.376,-2.313,-2.2567,-2.2567,-2.1842,-2.1276,-2.1276,-2.1276,-2.1276,-2.1276,-2.1276,-2.1276,-2.1276,-2.1276,-2.1276,-2.1276,-2.1276,-2.1276,-2.1276,-2.1276,-2.1276,-2.1276,-2.1276,-2.1211,-2.1071,-2.0727,-2.05,-2.0361,-2.0005,-1.9919,-1.9919,-1.9919,-1.9919,-1.9919,-1.9919,-1.9919,-1.9919,-1.9919,-1.9919,-1.9919,-1.9919,-1.9919,-1.938,-1.6015,-1.4867,-1.433,-1.1023,-0.9938,-0.9813,-0.9704,-0.9387,-0.8951,-0.8591,-0.8038,-0.7494,-0.7135,-0.699,-0.699,-0.699,-0.699,-0.7015,-0.7109,-0.7199,-0.7288,-0.7374,-0.7464,-0.7525,-0.7525,-0.7525,-0.7525,-0.7525,-0.7525,-0.7525,-0.7525,-0.7525,-0.7525,-0.7525,-0.7525,-0.7525,-0.7525,-0.7525,-0.7525,-0.7525,-0.7525,-0.7525,-0.7525,-0.5721,-0.3212,0.0157,0.1767,0.2601,0.2602,0.2664,0.2692,0.2692,0.2692,0.2692,0.2692,0.2692,0.2692,0.2692,0.2692,0.2692,0.2692,0.2945,0.3472,0.4109,0.4502,0.5075,0.566,-2.853,-2.6884,-2.533,-2.4,-2.376,-2.376,-2.376,-2.313,-2.2567,-2.2567,-2.1842,-2.1276,-2.1276,-2.1276,-2.1276,-2.1276,-2.1276,-2.1276,-2.1276,-2.1276,-2.1276,-2.1276,-2.1276,-2.1276,-2.1276,-2.1276,-2.1276,-2.1276,-2.1276,-2.1147,-2.0899,-2.0673,-2.0436,-2.0199,-1.9962,-1.9919,-1.9919,-1.9919,-1.9919,-1.9919,-1.9919,-1.9919,-1.9919,-1.9919,-1.9919,-1.9919,-1.9919,-1.9919,-1.938,-1.6015,-1.4867,-1.433,-1.1023,-0.9916,-0.978,-0.9693,-0.9129,-0.8512,-0.8078,-0.7715,-0.7349,-0.7063,-0.699,-0.699,-0.699,-0.699,-0.7011,-0.708,-0.7182,-0.7284,-0.735,-0.7452,-0.7525,-0.7525,-0.7525,-0.7525,-0.7525,-0.7525,-0.7525,-0.7525,-0.7525,-0.7525,-0.7525,-0.7525,-0.7525,-0.7525,-0.7525,-0.7525,-0.7525,-0.7525,-0.7131,-0.6346,-0.3838,-0.1098,0.1885,0.241,0.2601,0.2602,0.2664,0.2692,0.2692,0.2692,0.2692,0.2692,0.2692,0.2692,0.2692,0.2692,0.2692,0.2777,0.3113,0.3564,0.4209,0.4593,0.517,0.5679,-2.6806,-2.5092,-2.392,-2.384,-2.376,-2.376,-2.376,-2.313,-2.2567,-2.2567,-2.1842,-2.1276,-2.1276,-2.1276,-2.1276,-2.1276,-2.1276,-2.1276,-2.1276,-2.1276,-2.1276,-2.1276,-2.1276,-2.1276,-2.1276,-2.1276,-2.1276,-2.1276,-2.1276,-2.1147,-2.0899,-2.0673,-2.0436,-2.0199,-1.9962,-1.9919,-1.9919,-1.9919,-1.9919,-1.9919,-1.9919,-1.9919,-1.9919,-1.9919,-1.9919,-1.9919,-1.9919,-1.9919,-1.938,-1.6015,-1.4867,-1.433,-1.1023,-0.9867,-0.9682,-0.9671,-0.8981,-0.8078,-0.7711,-0.7349,-0.7063,-0.699,-0.699,-0.699,-0.699,-0.699,-0.699,-0.6998,-0.7141,-0.7264,-0.7272,-0.7411,-0.7525,-0.7525,-0.7525,-0.7525,-0.7525,-0.7525,-0.7525,-0.7525,-0.7525,-0.7525,-0.7525,-0.7525,-0.7525,-0.7525,-0.7525,-0.7525,-0.7525,-0.7525,-0.6111,-0.2977,-0.2664,-0.1645,0.0157,0.1767,0.2601,0.2602,0.2664,0.2692,0.2692,0.2692,0.2692,0.2692,0.2692,0.2692,0.2692,0.2692,0.2692,0.2692,0.2777,0.3324,0.4166,0.4257,0.4844,0.5736,-2.6819,-2.5806,-2.5012,-2.4,-2.376,-2.368,-2.344,-2.297,-2.2487,-2.2164,-2.168,-2.1276,-2.1276,-2.1276,-2.1276,-2.1276,-2.1276,-2.1276,-2.1276,-2.1276,-2.1276,-2.1276,-2.1276,-2.1276,-2.1276,-2.1276,-2.1276,-2.1276,-2.1276,-2.1082,-2.0694,-2.0608,-2.0361,-1.9984,-1.9962,-1.9919,-1.9919,-1.9919,-1.9919,-1.9919,-1.9919,-1.9919,-1.9919,-1.9919,-1.9919,-1.9919,-1.9919,-1.9919,-1.938,-1.6015,-1.4867,-1.4306,-1.0922,-0.9796,-0.9564,-0.8902,-0.8436,-0.8005,-0.7353,-0.7135,-0.699,-0.699,-0.699,-0.699,-0.699,-0.699,-0.699,-0.699,-0.7137,-0.7264,-0.7264,-0.7407,-0.7525,-0.7525,-0.7525,-0.7525,-0.7525,-0.7525,-0.7525,-0.7525,-0.7525,-0.7525,-0.7525,-0.7525,-0.7525,-0.7525,-0.7525,-0.7525,-0.7525,-0.7525,-0.5955,-0.2585,-0.2507,-0.1176,0.1492,0.225,0.2601,0.2602,0.2664,0.2692,0.2692,0.2692,0.2692,0.2692,0.2692,0.2692,0.2692,0.2692,0.2692,0.2777,0.3279,0.375,0.4257,0.4865,0.5374,0.5741,-2.603,-2.5489,-2.5171,-2.4,-2.376,-2.368,-2.3291,-2.2889,-2.2406,-2.2003,-2.1518,-2.1276,-2.1276,-2.1276,-2.1276,-2.1276,-2.1276,-2.1276,-2.1276,-2.1276,-2.1276,-2.1276,-2.1276,-2.1276,-2.1276,-2.1276,-2.1276,-2.1276,-2.1276,-2.1028,-2.0565,-2.0565,-2.0384,-1.9919,-1.9919,-1.9919,-1.9919,-1.9919,-1.9919,-1.9919,-1.9919,-1.9919,-1.9919,-1.9919,-1.9919,-1.9919,-1.9919,-1.9542,-1.8699,-1.5863,-1.456,-1.3608,-1.0709,-0.9731,-0.9425,-0.8275,-0.8078,-0.8078,-0.7208,-0.7063,-0.7131,-0.7063,-0.699,-0.699,-0.699,-0.699,-0.699,-0.699,-0.7137,-0.7264,-0.7264,-0.7407,-0.7525,-0.7525,-0.7525,-0.7525,-0.7525,-0.7525,-0.7525,-0.7525,-0.7525,-0.7525,-0.7525,-0.7525,-0.7525,-0.7525,-0.7525,-0.7525,-0.7525,-0.7525,-0.5955,-0.2585,-0.2507,-0.0864,0.2529,0.2577,0.2601,0.2602,0.2664,0.2692,0.2692,0.2692,0.2692,0.2692,0.2692,0.2692,0.2692,0.2692,0.2692,0.2777,0.3533,0.4006,0.4257,0.5128,0.555,0.5741,-2.416,-2.376,-2.376,-2.376,-2.376,-2.368,-2.3291,-2.2889,-2.2406,-2.2003,-2.1518,-2.1276,-2.1276,-2.1276,-2.1276,-2.1276,-2.1276,-2.1276,-2.1276,-2.1276,-2.1276,-2.1276,-2.1276,-2.1276,-2.1276,-2.1276,-2.1276,-2.1276,-2.1276,-2.1028,-2.0565,-2.0565,-2.0384,-1.9919,-1.9919,-1.9919,-1.9919,-1.9919,-1.9919,-1.9919,-1.9919,-1.9919,-1.9919,-1.9919,-1.9919,-1.9919,-1.9919,-1.885,-1.7169,-1.548,-1.3868,-1.2152,-1.0326,-0.9677,-0.9239,-0.7956,-0.8145,-0.844,-0.728,-0.7276,-0.7494,-0.7135,-0.699,-0.699,-0.699,-0.699,-0.699,-0.699,-0.7137,-0.7264,-0.7264,-0.7407,-0.7525,-0.7525,-0.7525,-0.7525,-0.7525,-0.7525,-0.7525,-0.7525,-0.7525,-0.7525,-0.7525,-0.7525,-0.7525,-0.7525,-0.7525,-0.7525,-0.7525,-0.7525,-0.5955,-0.2585,-0.2507,-0.0867,0.2559,0.2587,0.2601,0.2602,0.2664,0.2692,0.2692,0.2692,0.2692,0.2692,0.2692,0.2692,0.2692,0.2692,0.2692,0.2777,0.3197,0.3752,0.4259,0.4694,0.5286,0.5741,-2.416,-2.376,-2.376,-2.376,-2.376,-2.36,-2.2889,-2.2648,-2.2326,-2.1599,-2.1357,-2.1276,-2.1276,-2.1276,-2.1276,-2.1276,-2.1276,-2.1276,-2.1276,-2.1276,-2.1276,-2.1276,-2.1276,-2.1276,-2.1276,-2.1276,-2.1276,-2.1276,-2.1276,-2.1028,-2.0565,-2.0565,-2.0384,-1.9919,-1.9919,-1.9919,-1.9919,-1.9919,-1.9919,-1.9919,-1.9919,-1.9919,-1.9919,-1.9919,-1.9919,-1.9919,-1.9919,-1.885,-1.7169,-1.548,-1.3785,-1.198,-0.9874,-0.9045,-0.8842,-0.816,-0.8078,-0.815,-0.7566,-0.7494,-0.7494,-0.7135,-0.699,-0.699,-0.699,-0.699,-0.699,-0.699,-0.7137,-0.7264,-0.7264,-0.7407,-0.7525,-0.7525,-0.7525,-0.7525,-0.7525,-0.7525,-0.7525,-0.7525,-0.7525,-0.7525,-0.7525,-0.7525,-0.7525,-0.7525,-0.7525,-0.7525,-0.7525,-0.7525,-0.5955,-0.2585,-0.2507,-0.0867,0.2559,0.2587,0.2612,0.2634,0.2673,0.2692,0.2692,0.2692,0.2692,0.2692,0.2692,0.2692,0.2692,0.2692,0.2692,0.2777,0.3533,0.4006,0.4257,0.5128,0.555,0.5918,-2.4,-2.376,-2.376,-2.376,-2.368,-2.3359,-2.2728,-2.2406,-2.2084,-2.1357,-2.1276,-2.1276,-2.1276,-2.1276,-2.1276,-2.1276,-2.1276,-2.1276,-2.1276,-2.1276,-2.1276,-2.1276,-2.1276,-2.1276,-2.1276,-2.1276,-2.1276,-2.1276,-2.1276,-2.1028,-2.0565,-2.0565,-2.0384,-1.9919,-1.9919,-1.9919,-1.9919,-1.9919,-1.9919,-1.9919,-1.9919,-1.9919,-1.9919,-1.9919,-1.9919,-1.9919,-1.9919,-1.885,-1.7169,-1.548,-1.3253,-1.1007,-0.9398,-0.8894,-0.8801,-0.8295,-0.8295,-0.844,-0.7933,-0.7811,-0.7769,-0.7409,-0.719,-0.7043,-0.7043,-0.7072,-0.7096,-0.7096,-0.7211,-0.7313,-0.7313,-0.7427,-0.7525,-0.7525,-0.7525,-0.7525,-0.7525,-0.7525,-0.7525,-0.7525,-0.7525,-0.7525,-0.7525,-0.7525,-0.7525,-0.7525,-0.7525,-0.7525,-0.7525,-0.7525,-0.5955,-0.2585,-0.2507,-0.0869,0.2575,0.2593,0.2617,0.2565,0.2677,0.2692,0.2692,0.2692,0.2692,0.2692,0.2692,0.2692,0.2692,0.2692,0.2692,0.2778,0.3718,0.4107,0.4348,0.5325,0.5657,0.6007,-2.376,-2.376,-2.376,-2.376,-2.344,-2.305,-2.2648,-2.2164,-2.1761,-2.1357,-2.1276,-2.1276,-2.1276,-2.1276,-2.1276,-2.1276,-2.1276,-2.1276,-2.1276,-2.1276,-2.1276,-2.1276,-2.1276,-2.1276,-2.1276,-2.1276,-2.1276,-2.1276,-2.1276,-2.1028,-2.0565,-2.0565,-2.0384,-1.9919,-1.9919,-1.9919,-1.9919,-1.9919,-1.9919,-1.9919,-1.9919,-1.9919,-1.9919,-1.9919,-1.9919,-1.9919,-1.9919,-1.885,-1.7093,-1.5285,-1.2416,-0.9575,-0.9071,-0.9029,-0.9085,-0.8367,-0.8657,-0.909,-0.8382,-0.8231,-0.8229,-0.7799,-0.7438,-0.7141,-0.7133,-0.7194,-0.7331,-0.7339,-0.7325,-0.7378,-0.7386,-0.7464,-0.7525,-0.7525,-0.7525,-0.7525,-0.7525,-0.7525,-0.7525,-0.7525,-0.7525,-0.7525,-0.7525,-0.7525,-0.7525,-0.7525,-0.7525,-0.7525,-0.7525,-0.7525,-0.6033,-0.282,-0.2585,-0.0952,0.2357,0.252,0.2619,0.2569,0.2679,0.2692,0.2692,0.2692,0.2692,0.2692,0.2692,0.2692,0.2692,0.2692,0.2692,0.2779,0.3746,0.4132,0.4351,0.5363,0.5689,0.6007,-2.376,-2.376,-2.368,-2.3371,-2.3291,-2.297,-2.2164,-2.2003,-2.1761,-2.1357,-2.1276,-2.1276,-2.1276,-2.1276,-2.1276,-2.1276,-2.1276,-2.1276,-2.1276,-2.1276,-2.1276,-2.1276,-2.1276,-2.1276,-2.1276,-2.1276,-2.1276,-2.1276,-2.1276,-2.1028,-2.0565,-2.0565,-2.0384,-1.9919,-1.9919,-1.9919,-1.9919,-1.9919,-1.9919,-1.9919,-1.9919,-1.9919,-1.9919,-1.9919,-1.9919,-1.9919,-1.9919,-1.885,-1.6894,-1.3792,-1.1352,-0.9559,-0.8977,-0.8749,-0.8801,-0.8657,-0.8729,-0.8822,-0.8768,-0.8509,-0.8247,-0.7959,-0.7565,-0.7352,-0.7257,-0.7249,-0.7277,-0.7327,-0.7356,-0.7381,-0.7426,-0.7448,-0.7525,-0.7525,-0.7525,-0.7525,-0.7525,-0.7525,-0.7525,-0.7525,-0.7525,-0.7525,-0.7525,-0.7525,-0.7525,-0.7525,-0.7525,-0.7525,-0.7525,-0.7525,-0.6584,-0.4544,-0.3212,-0.1507,0.065,0.1951,0.2628,0.2683,0.269,0.2692,0.2692,0.2692,0.2692,0.2692,0.2692,0.2692,0.2692,0.2692,0.2692,0.2779,0.3746,0.4132,0.4351,0.5363,0.5689,0.6186,-2.376,-2.376,-2.368,-2.3291,-2.305,-2.2648,-2.2003,-2.1761,-2.1518,-2.1357,-2.1276,-2.1276,-2.1276,-2.1276,-2.1276,-2.1276,-2.1276,-2.1276,-2.1276,-2.1276,-2.1276,-2.1276,-2.1276,-2.1276,-2.1276,-2.1276,-2.1276,-2.1276,-2.1276,-2.1028,-2.0565,-2.0565,-2.0384,-1.9919,-1.9919,-1.9919,-1.9919,-1.9919,-1.9919,-1.9919,-1.9919,-1.9919,-1.9919,-1.9919,-1.9919,-1.9919,-1.9919,-1.8309,-1.5878,-1.3932,-1.1667,-0.9628,-0.9165,-0.9018,-0.9029,-0.9081,-0.9102,-0.9129,-0.9245,-0.8865,-0.8464,-0.8502,-0.7977,-0.7403,-0.7356,-0.7372,-0.7426,-0.7382,-0.7386,-0.7475,-0.7427,-0.7484,-0.7525,-0.7525,-0.7525,-0.7525,-0.7525,-0.7525,-0.7525,-0.7525,-0.7525,-0.7525,-0.7525,-0.7525,-0.7525,-0.7525,-0.7525,-0.7525,-0.7525,-0.7525,-0.674,-0.5014,-0.3368,-0.1665,0.0081,0.1788,0.2632,0.2692,0.2692,0.2692,0.2692,0.2692,0.2692,0.2692,0.2692,0.2692,0.2692,0.2692,0.2692,0.2781,0.3767,0.415,0.4355,0.5306,0.6866,0.8854,-2.368,-2.368,-2.352,-2.3038,-2.2728,-2.2326,-2.1842,-2.1518,-2.1276,-2.1276,-2.1276,-2.1276,-2.1276,-2.1276,-2.1276,-2.1276,-2.1276,-2.1276,-2.1276,-2.1276,-2.1276,-2.1276,-2.1276,-2.1276,-2.1276,-2.1276,-2.1276,-2.1276,-2.1276,-2.1028,-2.0565,-2.0565,-2.0384,-1.9919,-1.9919,-1.9919,-1.9919,-1.9919,-1.9919,-1.9919,-1.9919,-1.9919,-1.9919,-1.9919,-1.9919,-1.9919,-1.9919,-1.7778,-1.4887,-1.4703,-1.2426,-0.9628,-0.9405,-0.9334,-0.9356,-0.9459,-0.9503,-0.9546,-0.9666,-0.9233,-0.876,-0.9137,-0.8456,-0.7656,-0.7556,-0.7533,-0.7525,-0.7525,-0.7525,-0.7525,-0.7525,-0.7525,-0.7525,-0.7525,-0.7525,-0.7525,-0.7525,-0.7525,-0.7525,-0.7525,-0.7525,-0.7525,-0.7525,-0.7525,-0.7525,-0.7525,-0.7525,-0.7525,-0.7525,-0.7525,-0.6896,-0.5483,-0.3532,-0.1828,-0.0325,0.1628,0.2637,0.2692,0.2692,0.2692,0.2692,0.2692,0.2692,0.2692,0.2692,0.2692,0.2692,0.2692,0.2692,0.2782,0.3791,0.4173,0.4357,0.5695,0.8409,1.1693,-2.3359,-2.3279,-2.3038,-2.2245,-2.2003,-2.1842,-2.1438,-2.1357,-2.1276,-2.1276,-2.1276,-2.1276,-2.1276,-2.1276,-2.1276,-2.1276,-2.1276,-2.1276,-2.1276,-2.1276,-2.1276,-2.1276,-2.1276,-2.1276,-2.1276,-2.1276,-2.1276,-2.1276,-2.1276,-2.1028,-2.0565,-2.0565,-2.0384,-1.9919,-1.9919,-1.9919,-1.9919,-1.9919,-1.9919,-1.9919,-1.9919,-1.9919,-1.9919,-1.9919,-1.9919,-1.9919,-1.9919,-1.7778,-1.4911,-1.4784,-1.2517,-0.9644,-0.9508,-0.9459,-0.9465,-0.9481,-0.9563,-0.9671,-0.9786,-0.9421,-0.9137,-0.9341,-0.9003,-0.8549,-0.8136,-0.7751,-0.7525,-0.7525,-0.7525,-0.7525,-0.7525,-0.7525,-0.7525,-0.7525,-0.7525,-0.7525,-0.7525,-0.7525,-0.7525,-0.7525,-0.7525,-0.7525,-0.7525,-0.7525,-0.7525,-0.7525,-0.7525,-0.7525,-0.7525,-0.7525,-0.7369,-0.7131,-0.4115,-0.2323,-0.2029,0.1067,0.2658,0.2692,0.2692,0.2692,0.2692,0.2692,0.2692,0.2692,0.2692,0.2692,0.2692,0.2692,0.2692,0.2782,0.3791,0.4173,0.4529,0.7194,0.9562,1.1693,-2.3279,-2.3211,-2.2958,-2.2073,-2.1922,-2.1761,-2.1357,-2.1276,-2.1276,-2.1276,-2.1276,-2.1276,-2.1276,-2.1276,-2.1276,-2.1276,-2.1276,-2.1276,-2.1276,-2.1276,-2.1276,-2.1276,-2.1276,-2.1276,-2.1276,-2.1276,-2.1276,-2.1276,-2.1276,-2.1028,-2.0565,-2.0565,-2.0384,-1.9919,-1.9919,-1.9919,-1.9919,-1.9919,-1.9919,-1.9919,-1.9919,-1.9919,-1.9919,-1.9919,-1.9919,-1.9919,-1.9919,-1.7778,-1.4911,-1.4808,-1.2519,-0.9742,-0.9628,-0.959,-0.9601,-0.9666,-0.9704,-0.9764,-0.99,-0.9619,-0.9387,-0.9692,-0.9251,-0.8788,-0.8852,-0.8384,-0.7842,-0.7525,-0.7525,-0.7525,-0.7525,-0.7525,-0.7525,-0.7525,-0.7525,-0.7525,-0.7525,-0.7525,-0.7525,-0.7525,-0.7525,-0.7525,-0.7525,-0.7525,-0.7525,-0.7525,-0.7525,-0.7525,-0.7525,-0.7525,-0.7525,-0.7525,-0.428,-0.2487,-0.2435,0.0904,0.2662,0.2692,0.2692,0.2692,0.2692,0.2692,0.2692,0.2692,0.2692,0.2692,0.2692,0.2692,0.2861,0.3205,0.3879,0.5248,0.6983,0.9264,1.1339,1.3287]}]]